[[{"header":{"parameterUnit":"m.s-1","parameterCategory":1,"la1":30.6,"la2":29.2853,"lo1":-89.7004,"lo2":-87.6739,"dy":0.0162,"dx":0.0183,"nx":112,"ny":82,"refTime":"2023-08-19T18:00:00:Z","depth":0,"parameterNumber":2,"parameterNumberName":"U-component_of_WINDS"},"data":[0.0,0.0,0.0,0.0,0.0,0.0,0.0,0.0,0.0,0.0,0.0,0.0,0.0,0.0,0.0,0.0,0.0,0.0,0.0,0.0,0.0,0.0,0.0,0.0,0.0,0.0,0.0,0.0,0.0,0.0,0.0,0.0,0.0,0.0,0.0,0.0,0.0,0.0,0.0,0.0,0.0,0.0,0.0,0.0,0.0,0.0,0.0,0.0,0.0,0.0,0.0,0.0,0.0,0.0,0.0,0.0,0.0,0.0,0.0,0.0,0.0,0.0,0.0,0.0,0.0,0.0,0.0,0.0,0.0,0.0,0.0,0.0,0.0,0.0,0.0,0.0,0.0,0.0,0.0,0.0,0.0,0.0,0.0,0.0,0.0,0.0,0.0,0.0,0.0,0.0,-3.5865,-3.8272,-4.3602,-4.6999,-4.7003,-4.7099,-4.488,-3.9416,0.0,0.0,0.0,0.0,0.0,0.0,0.0,0.0,0.0,0.0,0.0,0.0,0.0,0.0,0.0,0.0,0.0,0.0,0.0,0.0,0.0,0.0,0.0,0.0,0.0,0.0,0.0,0.0,0.0,0.0,0.0,0.0,0.0,0.0,0.0,0.0,0.0,0.0,0.0,0.0,0.0,0.0,0.0,0.0,0.0,0.0,0.0,0.0,0.0,0.0,0.0,0.0,0.0,0.0,0.0,0.0,0.0,0.0,0.0,0.0,0.0,0.0,0.0,0.0,0.0,0.0,0.0,0.0,0.0,0.0,0.0,0.0,0.0,0.0,0.0,0.0,0.0,0.0,0.0,0.0,0.0,0.0,0.0,0.0,0.0,0.0,0.0,0.0,0.0,0.0,0.0,0.0,0.0,0.0,0.0,0.0,0.0,0.0,0.0,0.0,0.0,0.0,0.0,0.0,-3.6875,-4.2949,-4.5084,-4.6097,-4.6115,-4.6203,-4.4179,-3.9155,0.0,0.0,0.0,0.0,0.0,0.0,0.0,0.0,0.0,0.0,0.0,0.0,0.0,0.0,0.0,0.0,0.0,0.0,0.0,0.0,0.0,0.0,0.0,0.0,0.0,0.0,0.0,0.0,0.0,0.0,0.0,0.0,0.0,0.0,0.0,0.0,0.0,0.0,0.0,0.0,0.0,0.0,0.0,0.0,0.0,0.0,0.0,0.0,0.0,0.0,0.0,0.0,0.0,0.0,0.0,0.0,0.0,0.0,0.0,0.0,0.0,0.0,0.0,0.0,0.0,0.0,0.0,0.0,0.0,0.0,0.0,0.0,0.0,0.0,0.0,0.0,0.0,0.0,0.0,0.0,0.0,0.0,0.0,0.0,0.0,0.0,0.0,0.0,0.0,0.0,0.0,0.0,0.0,0.0,0.0,0.0,0.0,0.0,0.0,0.0,0.0,0.0,0.0,-3.5082,-3.8835,-4.4679,-4.5648,-4.5913,-4.5913,-4.6015,-4.3828,-3.8418,-3.6102,0.0,0.0,0.0,0.0,0.0,0.0,0.0,0.0,0.0,0.0,0.0,0.0,0.0,0.0,0.0,0.0,0.0,0.0,0.0,0.0,0.0,0.0,0.0,0.0,0.0,0.0,0.0,0.0,0.0,0.0,0.0,0.0,0.0,0.0,0.0,0.0,0.0,0.0,0.0,0.0,0.0,0.0,0.0,0.0,0.0,0.0,0.0,0.0,0.0,0.0,0.0,0.0,0.0,0.0,0.0,0.0,0.0,0.0,0.0,0.0,0.0,0.0,0.0,0.0,0.0,0.0,0.0,0.0,0.0,0.0,0.0,0.0,0.0,0.0,0.0,0.0,0.0,0.0,0.0,0.0,0.0,0.0,0.0,0.0,0.0,0.0,0.0,0.0,0.0,0.0,0.0,0.0,0.0,0.0,0.0,0.0,0.0,0.0,0.0,0.0,0.0,0.0,-3.8407,-4.0962,-4.5322,-4.5847,-4.5889,-4.5893,-4.5583,-4.3227,-3.8022,-3.6008,0.0,0.0,0.0,0.0,0.0,0.0,0.0,0.0,0.0,0.0,0.0,0.0,0.0,0.0,0.0,0.0,0.0,0.0,0.0,0.0,0.0,0.0,0.0,0.0,0.0,0.0,0.0,0.0,0.0,0.0,0.0,0.0,0.0,0.0,0.0,0.0,0.0,0.0,0.0,0.0,0.0,0.0,0.0,0.0,0.0,0.0,0.0,0.0,0.0,0.0,0.0,0.0,0.0,0.0,0.0,0.0,0.0,0.0,0.0,0.0,0.0,0.0,0.0,0.0,0.0,0.0,0.0,0.0,0.0,0.0,0.0,0.0,0.0,0.0,0.0,0.0,0.0,0.0,0.0,0.0,0.0,0.0,0.0,0.0,0.0,0.0,0.0,0.0,0.0,0.0,0.0,0.0,0.0,0.0,0.0,0.0,0.0,0.0,0.0,0.0,0.0,0.0,-3.976,-4.2857,-4.5529,-4.579,-4.5802,-4.5811,-4.4348,-4.1965,-3.8575,-3.5894,0.0,0.0,0.0,0.0,0.0,0.0,0.0,0.0,0.0,0.0,0.0,0.0,0.0,0.0,0.0,0.0,0.0,0.0,0.0,0.0,0.0,0.0,0.0,0.0,0.0,0.0,0.0,0.0,0.0,0.0,0.0,0.0,0.0,0.0,0.0,0.0,0.0,0.0,0.0,0.0,0.0,0.0,0.0,0.0,0.0,0.0,0.0,0.0,0.0,0.0,0.0,0.0,0.0,0.0,0.0,0.0,0.0,0.0,0.0,0.0,0.0,0.0,0.0,0.0,0.0,0.0,0.0,0.0,0.0,0.0,0.0,0.0,0.0,0.0,0.0,0.0,0.0,0.0,0.0,0.0,0.0,0.0,0.0,0.0,0.0,0.0,0.0,0.0,0.0,0.0,0.0,0.0,0.0,0.0,0.0,0.0,0.0,0.0,0.0,0.0,0.0,0.0,-3.9697,-4.2806,0.0,-4.5634,-4.5789,-4.5784,-4.5055,-4.2589,-3.7948,0.0,0.0,0.0,0.0,0.0,0.0,0.0,0.0,0.0,0.0,0.0,0.0,0.0,0.0,0.0,0.0,0.0,0.0,0.0,0.0,0.0,0.0,0.0,0.0,0.0,0.0,0.0,0.0,0.0,0.0,0.0,0.0,0.0,0.0,0.0,0.0,0.0,0.0,0.0,0.0,0.0,0.0,0.0,0.0,0.0,0.0,0.0,0.0,0.0,0.0,0.0,0.0,0.0,0.0,0.0,0.0,0.0,0.0,0.0,0.0,0.0,0.0,0.0,0.0,0.0,0.0,0.0,0.0,0.0,0.0,0.0,0.0,0.0,0.0,0.0,0.0,0.0,0.0,0.0,0.0,0.0,0.0,0.0,0.0,0.0,0.0,0.0,0.0,0.0,0.0,0.0,0.0,0.0,0.0,0.0,0.0,0.0,0.0,0.0,0.0,0.0,0.0,-3.6028,-3.9559,-4.2573,0.0,-4.5208,-4.5411,-4.5411,-4.4487,-4.2068,-3.7649,0.0,0.0,0.0,0.0,0.0,0.0,0.0,0.0,0.0,0.0,0.0,0.0,0.0,0.0,0.0,0.0,0.0,0.0,0.0,0.0,0.0,0.0,0.0,0.0,0.0,0.0,0.0,0.0,0.0,0.0,0.0,0.0,0.0,0.0,0.0,0.0,0.0,0.0,0.0,0.0,0.0,0.0,0.0,0.0,0.0,0.0,0.0,0.0,0.0,0.0,0.0,0.0,0.0,0.0,0.0,0.0,0.0,0.0,0.0,0.0,0.0,0.0,0.0,0.0,0.0,0.0,0.0,0.0,0.0,0.0,0.0,0.0,0.0,0.0,0.0,0.0,0.0,0.0,0.0,0.0,0.0,0.0,0.0,0.0,0.0,0.0,0.0,0.0,0.0,0.0,0.0,0.0,0.0,0.0,0.0,0.0,0.0,0.0,0.0,0.0,0.0,0.0,-3.6063,-3.9479,-4.238,-4.4384,-4.4599,-4.4599,-4.4599,-4.2272,-3.9944,0.0,0.0,0.0,0.0,0.0,0.0,0.0,0.0,0.0,0.0,0.0,0.0,0.0,0.0,0.0,0.0,0.0,0.0,0.0,0.0,0.0,0.0,0.0,0.0,0.0,0.0,0.0,0.0,0.0,0.0,0.0,0.0,0.0,0.0,0.0,0.0,0.0,0.0,0.0,0.0,0.0,0.0,0.0,0.0,0.0,0.0,0.0,0.0,0.0,0.0,0.0,0.0,0.0,0.0,0.0,0.0,0.0,0.0,0.0,0.0,0.0,0.0,0.0,0.0,0.0,0.0,0.0,0.0,0.0,0.0,0.0,0.0,0.0,0.0,0.0,0.0,0.0,0.0,0.0,0.0,0.0,0.0,0.0,0.0,0.0,0.0,0.0,0.0,0.0,0.0,0.0,0.0,0.0,0.0,0.0,0.0,0.0,0.0,0.0,0.0,0.0,0.0,0.0,-3.5751,-3.9516,-4.2489,-4.4034,-4.4428,-4.4599,-4.4599,-4.3144,-4.1111,-3.8504,0.0,0.0,0.0,0.0,0.0,0.0,0.0,0.0,0.0,0.0,0.0,0.0,0.0,0.0,0.0,0.0,0.0,0.0,0.0,0.0,0.0,0.0,0.0,0.0,0.0,0.0,0.0,0.0,0.0,0.0,0.0,0.0,0.0,0.0,0.0,0.0,0.0,0.0,0.0,0.0,0.0,0.0,0.0,0.0,0.0,0.0,0.0,0.0,0.0,0.0,0.0,0.0,0.0,0.0,0.0,0.0,0.0,0.0,0.0,0.0,0.0,0.0,0.0,0.0,0.0,0.0,0.0,0.0,0.0,0.0,0.0,0.0,0.0,0.0,0.0,0.0,0.0,0.0,0.0,0.0,0.0,0.0,0.0,0.0,0.0,0.0,0.0,0.0,0.0,0.0,0.0,0.0,0.0,0.0,0.0,0.0,0.0,0.0,0.0,0.0,0.0,0.0,-3.5169,-3.8947,-4.1941,-4.2993,-4.3343,-4.3472,-4.3472,-4.254,-4.0707,-3.7966,0.0,0.0,0.0,0.0,0.0,0.0,0.0,0.0,0.0,0.0,0.0,0.0,0.0,0.0,0.0,0.0,0.0,0.0,0.0,0.0,0.0,0.0,0.0,0.0,0.0,0.0,0.0,0.0,0.0,0.0,0.0,0.0,0.0,0.0,0.0,0.0,0.0,0.0,0.0,0.0,0.0,0.0,0.0,0.0,0.0,0.0,0.0,0.0,0.0,0.0,0.0,0.0,0.0,0.0,0.0,0.0,0.0,0.0,0.0,0.0,0.0,0.0,0.0,0.0,0.0,0.0,0.0,0.0,0.0,0.0,0.0,0.0,0.0,0.0,0.0,0.0,0.0,0.0,0.0,0.0,0.0,0.0,0.0,0.0,0.0,0.0,0.0,0.0,0.0,0.0,0.0,0.0,0.0,0.0,0.0,0.0,0.0,0.0,0.0,0.0,0.0,0.0,-3.4565,-3.8121,-4.0877,-4.1704,-4.181,-4.181,-4.181,-4.106,-3.9476,-3.6852,0.0,0.0,0.0,0.0,0.0,0.0,0.0,0.0,0.0,0.0,0.0,0.0,0.0,0.0,0.0,0.0,0.0,0.0,0.0,0.0,0.0,0.0,0.0,0.0,0.0,0.0,0.0,0.0,0.0,0.0,0.0,0.0,0.0,0.0,0.0,0.0,0.0,0.0,0.0,0.0,0.0,0.0,0.0,0.0,0.0,0.0,0.0,0.0,0.0,0.0,0.0,0.0,0.0,0.0,0.0,0.0,0.0,0.0,0.0,0.0,-3.6875,-3.4571,0.0,0.0,0.0,0.0,0.0,0.0,0.0,0.0,0.0,0.0,0.0,0.0,0.0,0.0,0.0,0.0,0.0,0.0,0.0,0.0,0.0,0.0,0.0,0.0,0.0,0.0,0.0,0.0,0.0,0.0,0.0,0.0,0.0,0.0,0.0,0.0,0.0,0.0,0.0,0.0,-3.4874,-3.7933,-4.0447,-4.1662,-4.181,-4.181,-4.181,-4.106,-3.9891,-3.8183,-3.6706,0.0,0.0,0.0,0.0,0.0,0.0,0.0,0.0,0.0,0.0,0.0,0.0,0.0,0.0,0.0,0.0,0.0,0.0,0.0,0.0,0.0,0.0,0.0,0.0,0.0,0.0,0.0,0.0,0.0,0.0,0.0,0.0,0.0,0.0,0.0,0.0,0.0,0.0,0.0,0.0,0.0,0.0,0.0,0.0,0.0,0.0,0.0,0.0,0.0,0.0,0.0,0.0,0.0,0.0,0.0,0.0,0.0,0.0,0.0,-3.9718,-3.8296,0.0,0.0,0.0,0.0,0.0,0.0,0.0,0.0,0.0,0.0,0.0,0.0,0.0,0.0,0.0,0.0,0.0,0.0,0.0,0.0,0.0,0.0,0.0,0.0,0.0,0.0,0.0,0.0,0.0,0.0,0.0,0.0,0.0,0.0,0.0,0.0,0.0,0.0,0.0,0.0,-3.4491,-3.7453,-3.9773,-4.0886,-4.1001,-4.1001,-4.1001,-4.0574,-3.9606,-3.7809,-3.7104,0.0,0.0,0.0,0.0,0.0,0.0,0.0,0.0,0.0,0.0,0.0,0.0,0.0,0.0,0.0,0.0,0.0,0.0,0.0,0.0,0.0,0.0,0.0,0.0,0.0,0.0,0.0,0.0,0.0,0.0,0.0,0.0,0.0,0.0,0.0,0.0,0.0,0.0,0.0,0.0,0.0,0.0,0.0,0.0,0.0,0.0,0.0,0.0,0.0,0.0,0.0,0.0,0.0,-4.2683,-4.2831,-4.2256,-4.1692,-4.2098,-4.3324,-4.2273,-4.2298,-4.2946,-4.0208,0.0,0.0,0.0,0.0,0.0,0.0,0.0,0.0,0.0,0.0,0.0,0.0,0.0,0.0,0.0,0.0,0.0,0.0,0.0,0.0,0.0,0.0,0.0,0.0,-3.1681,-3.2453,-3.1534,0.0,0.0,0.0,0.0,0.0,0.0,0.0,0.0,0.0,0.0,0.0,-3.4171,-3.6906,-3.8962,-3.961,-3.9613,-3.9546,-3.9546,-3.9546,-3.8707,-3.6712,-3.7084,-3.6204,0.0,0.0,0.0,0.0,0.0,0.0,0.0,0.0,0.0,0.0,0.0,0.0,0.0,0.0,0.0,0.0,0.0,0.0,0.0,0.0,0.0,0.0,0.0,0.0,0.0,0.0,0.0,0.0,0.0,0.0,0.0,0.0,-3.5451,-3.5709,0.0,0.0,0.0,0.0,0.0,0.0,0.0,0.0,0.0,0.0,0.0,0.0,0.0,-3.7997,-3.8299,-4.1491,-4.2889,-4.2466,-4.5706,-4.6293,-4.4649,-4.5706,-4.5651,-4.4829,-4.5246,0.0,-4.4394,-4.3396,0.0,0.0,0.0,0.0,0.0,0.0,0.0,0.0,0.0,0.0,0.0,0.0,0.0,0.0,0.0,0.0,0.0,0.0,0.0,0.0,0.0,0.0,-3.0953,-3.2176,-3.2302,-3.2395,0.0,-3.1882,-2.9757,-2.8648,-2.815,0.0,0.0,0.0,0.0,0.0,0.0,0.0,-3.5,-3.6753,-3.7994,-3.8108,-3.7584,-3.7252,-3.7252,-3.7252,-3.6809,-3.5884,-3.6443,-3.6763,-3.6816,-3.5034,0.0,0.0,0.0,0.0,0.0,0.0,0.0,0.0,0.0,0.0,0.0,0.0,0.0,0.0,0.0,0.0,0.0,0.0,0.0,0.0,0.0,0.0,0.0,0.0,0.0,0.0,0.0,0.0,0.0,-3.3672,-3.5762,-3.5432,-3.5062,-3.4035,0.0,0.0,0.0,0.0,0.0,0.0,0.0,0.0,0.0,-3.9668,-3.9249,-3.9764,-4.1538,-4.311,-4.414,-4.4567,-4.6062,-4.6356,-4.5603,-4.4969,-4.4705,-4.4609,-4.463,-4.4551,-4.447,-4.3206,-4.1346,-3.9033,0.0,0.0,0.0,0.0,-3.5915,-3.6458,-3.7951,-3.8394,-3.8034,-3.6849,0.0,0.0,0.0,0.0,0.0,0.0,0.0,0.0,0.0,0.0,-3.1029,-3.1877,-3.1803,-3.186,-3.2489,-3.1655,-3.065,0.0,-2.9776,-2.9223,-2.8,0.0,0.0,0.0,0.0,-3.3433,-3.4233,-3.5674,-3.6753,-3.7214,-3.663,-3.6236,-3.6236,-3.6236,-3.5892,-3.5166,-3.5755,-3.5861,-3.5218,-3.4654,-3.4291,0.0,0.0,0.0,0.0,0.0,0.0,0.0,0.0,0.0,0.0,0.0,0.0,0.0,0.0,0.0,0.0,0.0,0.0,0.0,0.0,0.0,0.0,0.0,0.0,0.0,0.0,0.0,0.0,-3.5209,-3.6651,-3.5708,-3.6402,-3.5903,0.0,0.0,0.0,0.0,0.0,0.0,-3.7335,-3.7929,-3.9433,-4.1913,-4.0823,-4.1285,-4.3568,-4.3831,-4.4327,-4.5271,-4.5343,-4.5317,-4.5135,-4.3695,-4.3296,-4.3649,-4.3075,-4.3171,-4.3571,-4.2671,-4.1558,-4.0228,-3.7817,-3.6753,-3.6533,-3.6675,-3.6921,-3.752,-3.8756,-3.923,-3.904,-3.7989,-3.6921,-3.5672,-3.3371,0.0,0.0,0.0,0.0,-3.1247,-3.1208,-3.1066,-3.1073,-3.1361,-3.1286,-3.1235,-3.1361,-3.1286,-3.1095,0.0,-3.0953,-3.0495,-2.9074,0.0,0.0,0.0,0.0,-3.2455,-3.3281,-3.4319,-3.5216,-3.5751,-3.532,-3.4984,-3.4984,-3.4984,-3.462,-3.3865,-3.476,-3.4848,-3.3756,-3.4244,-3.4147,-3.3276,0.0,0.0,0.0,0.0,0.0,0.0,0.0,0.0,0.0,0.0,0.0,0.0,0.0,0.0,0.0,0.0,0.0,0.0,0.0,0.0,0.0,0.0,0.0,0.0,0.0,0.0,0.0,0.0,0.0,-3.8262,-4.0092,0.0,0.0,0.0,0.0,-3.5967,-3.621,-3.7177,-3.8992,-3.9424,-4.0153,-4.1311,-4.1839,-4.2141,-4.2242,-4.2771,-4.3073,-4.3123,-4.3652,-4.3627,-4.3123,-4.3098,-4.2796,-4.2217,-4.1688,-4.1411,-4.1605,-4.2905,-4.2194,-4.0174,-3.9203,-3.7935,-3.6854,-3.8225,-3.878,-3.8992,-4.015,-4.0151,-3.942,-3.8119,-3.6345,-3.4572,-3.4637,-3.3625,0.0,0.0,-3.1958,-3.1501,-3.1372,-3.1035,-3.0783,-3.1286,-3.1009,-3.0783,-3.1286,-3.0823,-3.0368,0.0,-3.0637,-3.0382,-2.9468,0.0,-3.0417,-3.0768,-3.1362,-3.2019,-3.2538,-3.2993,-3.3252,-3.3318,-3.2907,-3.2676,-3.2676,-3.2676,-3.2318,-3.1409,-3.3176,-3.4267,-3.4361,-3.485,-3.5368,-3.5795,-3.3094,0.0,0.0,0.0,0.0,0.0,0.0,0.0,0.0,0.0,0.0,0.0,0.0,0.0,0.0,0.0,0.0,0.0,0.0,0.0,0.0,0.0,0.0,0.0,0.0,0.0,0.0,0.0,0.0,-3.8313,-4.0031,0.0,-3.7387,-3.696,-3.7006,-3.7303,-3.7761,-3.8642,-3.9951,-3.9772,-4.0199,-4.1304,-4.1178,-4.1605,-4.266,-4.2183,-4.2283,-4.2961,-4.2459,-4.2108,-4.1907,-4.1555,-4.1279,-4.1078,-4.0526,-4.0275,-4.0354,-4.0823,-4.0818,-4.0337,-3.9674,-3.9068,-3.8742,-3.9193,-3.9239,-3.8907,-3.9369,-3.9172,-3.8437,-3.7629,-3.61,-3.4636,-3.4728,-3.3866,-3.2884,-3.286,-3.2411,-3.1913,-3.188,-3.126,-3.0658,-3.0859,-3.0482,-3.0131,-3.0331,-3.0403,-3.0164,-2.9212,-2.9455,-2.9949,-3.0124,-3.0083,-3.0189,-3.0622,-3.1081,-3.1462,-3.1683,-3.1668,-3.1629,-3.1629,-3.0764,-3.0278,-3.0278,-3.0278,-3.0154,-2.9813,-3.0864,-3.1511,-3.1604,-3.1737,-3.1951,-3.2141,-2.9839,-2.8665,0.0,0.0,0.0,0.0,0.0,0.0,0.0,0.0,0.0,0.0,0.0,0.0,0.0,0.0,0.0,0.0,0.0,0.0,0.0,0.0,0.0,0.0,0.0,0.0,0.0,0.0,-3.9393,-3.8165,-4.0149,-4.0646,-3.8316,-3.8367,-3.8567,-3.8567,-3.9094,-3.9747,-4.0475,-4.035,-4.0576,-4.1304,-4.0978,-4.1329,-4.2409,-4.1706,-4.1706,-4.2409,-4.1681,-4.1329,-4.1329,-4.0777,-4.0526,-4.0475,-3.9283,-3.8852,-3.8871,-3.8087,-3.8024,-3.8615,-3.9436,-3.9697,-3.9672,-3.9496,-3.9195,-3.8818,-3.789,-3.7295,-3.6653,-3.5698,-3.4605,-3.3708,-3.3514,-3.2859,-3.2107,-3.1937,-3.1501,-3.0992,-3.0628,-3.0022,-2.9464,-2.927,-2.8979,-2.8712,-2.8712,-2.9003,-2.8883,-2.7753,-2.8491,-2.9322,-2.9702,-2.9431,-2.946,-3.0269,-3.0547,-3.0748,-3.0777,-3.0485,-3.0324,-3.0324,-2.9525,-2.9002,-2.9002,-2.9169,-2.9094,-2.8583,-2.9348,-2.9727,-2.9586,-2.993,-3.0228,-3.0269,-2.7968,-2.6806,-2.6966,0.0,0.0,0.0,0.0,0.0,0.0,0.0,0.0,0.0,0.0,0.0,0.0,0.0,0.0,0.0,0.0,0.0,0.0,0.0,0.0,0.0,0.0,0.0,-3.5671,-3.8388,-3.9531,-3.8091,-4.037,-4.1171,-3.9043,-3.9293,-3.9619,-3.9619,-4.0095,-4.0395,-4.0526,-4.0896,-4.1171,-4.1171,-4.1171,-4.1064,-4.1089,-4.1064,-4.1064,-4.1089,-4.1064,-4.1064,-4.1039,-4.0621,-4.037,-4.0215,-3.7774,-3.6977,-3.7252,-3.4932,-3.4185,-3.4894,-3.8233,-3.9544,-3.9572,-3.9044,-3.8818,-3.8416,-3.5957,-3.4742,-3.4048,-3.2241,-3.1667,-3.1555,-3.106,-3.0566,-3.0072,-2.9691,-2.9195,-2.8521,-2.7554,-2.7285,-2.715,-2.6595,-2.6483,-2.6483,-2.6483,-2.6483,-2.6483,-2.6483,-2.7671,-2.8597,-2.8099,-2.8004,-2.8435,-2.9577,-2.9712,0.0,-2.9738,-2.9502,-2.9267,-2.9267,-2.9053,-2.8867,-2.8958,-2.9416,-2.9171,-2.7749,-2.8686,-2.9099,-2.8565,-2.9684,-3.0439,-3.0682,-2.7803,-2.5532,-2.4003,0.0,0.0,0.0,0.0,0.0,0.0,0.0,0.0,0.0,0.0,0.0,0.0,0.0,0.0,0.0,0.0,0.0,0.0,0.0,0.0,0.0,0.0,-3.2372,-3.3141,-3.5779,-3.7534,-3.7182,-3.7873,-3.8083,-3.7525,-3.7269,-3.7481,-3.8586,-3.8476,-3.8973,-4.0395,-3.9275,-3.8572,-3.8572,-3.7472,-3.709,-3.7571,-3.709,-3.709,-3.7571,-3.709,-3.6928,-3.6904,-3.6765,-3.6719,-3.6673,-3.568,-3.526,-3.5352,-3.4374,-3.4088,-3.4223,-3.5201,-3.6105,-3.6952,-3.6807,-3.6375,-3.5599,-3.4437,-3.3168,-3.1837,-3.1315,-3.0701,-3.0187,-3.0052,-2.9398,-2.8611,-2.8564,-2.8181,-2.7644,-2.7375,-2.7037,-2.664,-2.6505,-2.6483,-2.6483,-2.6483,-2.6483,-2.6235,-2.5462,-2.5633,-2.6096,-2.6812,-2.6953,-2.7021,-2.7405,-2.7394,0.0,-2.6978,-2.6776,-2.6729,-2.6907,-2.6776,-2.6986,-2.7828,-2.7063,-2.6404,-2.6355,-2.5539,-2.5245,-2.5413,-2.5761,-2.5972,-2.6,-2.5905,-2.5451,0.0,0.0,0.0,0.0,0.0,0.0,0.0,0.0,0.0,0.0,0.0,0.0,0.0,0.0,0.0,0.0,0.0,0.0,0.0,0.0,0.0,0.0,-3.1195,-3.1754,-3.1864,-3.4553,-3.6498,-3.6814,-3.6657,-3.6544,-3.6544,-3.6117,-3.6158,-3.6928,-3.6758,-3.7059,-3.8251,-3.719,-3.6595,-3.6595,-3.5727,-3.5423,-3.5714,-3.5445,-3.5445,-3.5714,-3.5423,-3.5288,-3.5288,-3.5288,-3.5176,-3.4952,-3.392,-3.3377,-3.3333,-3.2104,-3.1742,0.0,0.0,0.0,0.0,0.0,-3.4023,-3.3133,-3.2065,-3.1024,-3.0035,-2.9064,-2.8381,-2.787,-2.7558,-2.6977,-2.6487,-2.6384,-2.6062,-2.5806,-2.5594,-2.536,-2.5062,-2.5062,-2.5062,-2.5062,-2.5062,-2.5062,-2.4893,-2.4211,-2.4125,0.0,-2.4978,-2.5462,-2.5946,-2.6501,-2.6356,-2.6147,-2.5895,-2.5516,-2.543,-2.5588,-2.543,-2.5645,-2.6294,-2.578,0.0,0.0,0.0,-2.447,-2.4559,-2.4522,0.0,0.0,0.0,-2.4219,-2.3012,0.0,0.0,0.0,-2.3613,-2.4317,0.0,0.0,0.0,0.0,0.0,0.0,0.0,0.0,0.0,0.0,0.0,0.0,0.0,0.0,0.0,0.0,-3.0839,-3.1543,-3.1582,-3.3886,-3.5644,-3.6156,-3.5846,-3.5489,-3.5489,-3.5113,-3.4847,-3.5068,-3.5068,-3.5068,-3.5288,0.0,0.0,0.0,0.0,-3.4847,-3.4847,-3.4847,-3.4847,-3.4847,-3.4847,-3.4847,-3.4847,-3.4803,-3.4537,-3.3965,-3.2274,-3.1521,-3.135,-2.9152,-2.8476,-2.9134,-3.223,-3.3541,-3.3429,-3.2611,-3.1883,-3.1096,-2.9501,0.0,0.0,-2.6289,-2.5625,-2.543,-2.4609,-2.4316,-2.4199,-2.3828,-2.3711,-2.3633,-2.3242,-2.3144,-2.3144,-2.3144,-2.3144,-2.3144,-2.3144,-2.3144,-2.3144,-2.3144,-2.3144,-2.3144,-2.3144,-2.3973,-2.4934,-2.6044,-2.5793,-2.5458,-2.5521,-2.5113,-2.4768,-2.4847,0.0,0.0,-2.4847,-2.5169,-2.4957,-2.4126,-2.4777,-2.5031,-2.4703,-2.466,-2.4179,-2.3142,-2.3222,-2.2361,-2.0408,-2.0533,-2.013,-1.9538,-2.2758,-2.3971,0.0,0.0,0.0,0.0,0.0,0.0,0.0,0.0,0.0,0.0,0.0,0.0,0.0,0.0,0.0,-3.0584,-3.1133,-3.1641,-3.1992,-3.2018,-3.1928,-3.2009,-3.1948,-3.1908,-3.1908,-3.1828,-3.2207,-3.3417,-3.3529,-3.4069,-3.5288,-3.4181,-3.3529,-3.3529,-3.2322,-3.1767,-3.1767,-3.1767,-3.1767,-3.1767,0.0,0.0,-3.1767,-3.1385,-3.1144,-3.1023,-2.9908,-2.9461,-2.9421,-2.8604,-2.8144,-2.8121,-2.9807,-3.0547,-3.0563,-3.1074,-3.037,-2.901,-2.8634,-2.7606,-2.6172,-2.5467,-2.4961,-2.457,-2.4062,-2.3672,0.0,-2.3281,-2.3262,-2.3242,-2.3164,-2.3144,-2.3144,-2.3144,-2.3144,-2.3144,-2.3144,-2.3144,-2.3144,-2.3144,-2.3144,-2.3144,-2.3144,-2.3299,-2.3493,-2.3747,-2.3714,-2.3493,-2.3148,-2.3353,-2.3559,-2.373,-2.4161,-2.4547,-2.508,-2.4053,-2.3371,-2.3182,-2.2469,-2.2029,-2.195,-2.2287,-2.1812,-2.0428,-2.0985,-2.0386,-1.8515,-1.9323,-1.9552,-1.9173,-2.0133,-2.0486,0.0,0.0,0.0,0.0,0.0,0.0,0.0,0.0,0.0,0.0,0.0,-2.7275,0.0,0.0,-3.047,-3.166,-3.166,-3.168,-3.2109,-3.1426,-3.0898,-3.0898,-3.0898,-3.0801,-3.0566,-3.0547,-3.0873,-3.1633,-3.1633,-3.2055,-3.3077,-3.2436,-3.1977,-3.1977,-3.1325,-3.0898,-3.0898,-3.0898,-3.0781,-3.0547,-3.0547,-3.043,-3.0215,-2.998,-2.9766,-2.9531,-2.9101,-2.8809,-2.8594,-2.8379,-2.8047,-2.7637,-2.7447,-2.7779,-2.8391,-2.8848,-2.8276,-2.7394,-2.7171,-2.6324,-2.5332,-2.4883,-2.4453,-2.4023,-2.3594,-2.332,-2.3144,-2.3144,-2.3144,-2.3144,-2.3144,-2.2668,-2.2208,-2.2208,-2.1765,-2.132,-2.132,-2.132,-2.132,-2.132,-2.132,-2.132,-2.132,-2.132,-2.1676,-2.295,-2.2408,-2.2025,-2.2454,-2.2519,-2.2519,-2.2689,-2.2886,-2.3182,-2.3512,-2.2173,-2.1307,-2.1546,-2.0192,-1.9435,-1.9634,-1.9634,-1.9388,-1.8794,-1.9175,-1.8667,-1.7375,-1.8071,-1.7962,-1.7281,-1.752,-1.8303,0.0,0.0,0.0,0.0,0.0,0.0,0.0,0.0,-2.4421,-2.6735,-2.7455,-2.8108,-2.9699,-3.0469,-3.1324,-3.2519,-3.209,-3.1618,-3.1629,-3.0934,-3.0276,-2.9906,-3.0393,-3.0586,-3.0117,-3.0078,-3.0078,-3.0078,-3.0078,-3.0273,-3.0723,-3.0762,-3.0801,-3.0898,-3.0801,-3.0762,-3.0762,-3.0684,-3.0334,-2.9603,-2.9945,-2.9657,-2.8747,-2.8895,-2.8684,-2.8009,-2.7914,-2.7706,-2.7384,-2.7416,-2.715,-2.6627,-2.5104,-2.5197,-2.6009,-2.6009,-2.5762,-2.5362,-2.4922,-2.4602,-2.4184,-2.3765,-2.3385,-2.2953,-2.2536,-2.2403,-2.2403,-2.2403,-2.2403,-2.2403,-2.2403,-2.1676,-2.0926,-2.0926,-2.0223,-1.9497,-1.9497,-1.9497,-1.9497,-1.9497,-1.9497,-1.9497,-1.9497,-1.9314,-1.9861,-2.205,-2.1313,-2.0833,-2.1825,-2.1627,-2.1438,-2.1438,-2.1362,-2.1332,-2.1161,-1.9907,-1.927,-1.9502,-1.8271,-1.7563,-1.7713,-1.7579,-1.7449,-1.7499,-1.7562,-1.7132,-1.6314,-1.661,-1.6273,-1.5324,-1.5605,-1.6786,-2.2078,-2.129,-2.1671,-2.3166,-2.2814,-2.2793,0.0,0.0,-2.5496,-2.8603,-2.9184,-2.9745,-3.1532,-3.2285,-3.25,-3.2285,-3.2148,-3.1469,-2.9757,-2.8765,-2.7786,-2.6338,-2.8602,-3.0098,-2.9687,-2.9648,-2.9648,-2.9648,-2.9648,-2.9824,-3.0254,-3.0273,-3.0469,-3.0879,-3.0488,-3.0273,-3.0273,-2.9902,-2.8993,-2.7651,-2.9048,-2.8201,-2.5591,-2.6537,-2.6246,-2.4918,-2.458,-2.43,-2.425,-2.4023,-2.3685,-2.3224,-2.319,-2.277,-2.2283,-2.2283,-2.2046,-2.1807,-2.1675,-2.1519,-2.1241,-2.0772,-2.0526,-2.0424,-2.0053,-1.9861,-1.9861,-1.9861,-1.9861,-1.9861,-1.9861,-1.977,-1.9679,-1.9679,-1.9588,-1.9497,-1.9497,-1.9497,-1.9497,-1.9497,-1.9497,-1.9497,-1.9497,-1.8596,-1.8319,-1.9679,-1.9736,-1.9703,-1.9793,-1.976,-1.9743,-1.9743,-1.9529,-1.916,-1.8498,-1.7944,-1.7429,-1.7288,-1.7266,-1.7133,-1.6579,-1.7083,-1.6798,-1.5644,-1.6058,-1.5646,-1.443,-1.5001,-1.5183,-1.5017,-1.5311,-1.5765,-2.2966,-2.2277,-2.2081,0.0,-2.3053,-2.3216,-2.4843,-2.4696,-2.5024,-2.779,-2.9168,-3.0265,-3.115,-3.2191,-3.2734,0.0,-3.2109,-3.1219,-2.9283,-2.8654,-2.7523,-2.5411,-2.6485,-2.7463,-2.7884,-2.8737,-2.9199,-2.9199,-2.9199,-2.9375,-2.9805,-2.9824,-2.9922,-3.0117,-2.9941,-2.9372,-2.8539,-2.837,-2.7355,-2.5629,-2.631,-2.5848,-2.4381,-2.4794,-2.4726,-2.4036,-2.3673,-2.3618,-2.3492,-2.3237,-2.2872,-2.2435,-2.1698,-2.0977,-2.057,-2.1685,-2.1843,-2.1495,-2.1279,-2.0964,-2.0599,-2.0235,-1.9969,-1.9678,-1.953,-1.9497,-1.9497,-1.9497,-1.9497,-1.9497,-1.9497,-1.8948,-1.8411,-1.8411,-1.7855,-1.739,-1.739,-1.739,-1.739,-1.739,-1.739,-1.739,-1.739,-1.6936,-1.6749,-1.7296,-1.7948,-1.8688,-1.9405,-1.9225,-1.8929,-1.8518,-1.8242,-1.7895,-1.7598,-1.6844,-1.6293,-1.6218,-1.5523,-1.5153,-1.5065,-1.5139,-1.4967,-1.4627,-1.4797,-1.4698,-1.4082,-1.4509,-1.471,-1.471,-1.5177,-1.5458,-2.1799,0.0,0.0,-2.1671,-2.2049,-2.2564,-2.3518,-2.3743,-2.426,-2.6517,-2.8027,-2.9146,-2.9942,-3.1212,-3.2104,-3.1875,-3.1725,-3.0863,-2.8635,-2.79,-2.6712,-2.4063,-2.4245,-2.474,-2.5497,-2.7178,-2.8287,-2.8401,-2.8649,-2.8984,-2.9551,-2.9453,-2.9322,-2.8971,-2.8876,-2.8127,-2.6505,-2.6399,-2.5395,-2.3764,-2.4105,-2.3747,-2.2605,-2.2605,-2.2558,-2.2448,-2.2198,-2.2151,-2.2041,-2.1679,-2.1396,-2.1055,-1.9925,-1.9328,-1.9242,-2.0524,-2.0735,-2.0295,-1.9948,-1.9602,-1.9288,-1.902,-1.8691,-1.8488,-1.8488,-1.8488,-1.8488,-1.8488,-1.8488,-1.8488,-1.8488,-1.7855,-1.7232,-1.7232,-1.648,-1.5832,-1.5832,-1.5832,-1.5832,-1.5832,-1.5832,-1.5832,-1.5832,-1.5832,-1.5832,-1.5832,-1.6574,-1.7498,-1.8395,-1.8099,-1.7663,-1.7087,-1.6713,-1.6464,-1.6453,-1.5711,-1.5184,-1.5165,-1.4241,-1.3788,-1.3841,-1.3788,-1.3828,-1.3961,-1.4041,-1.4082,-1.4082,-1.4295,-1.4442,-1.4536,-1.4963,-1.5244,0.0,0.0,-1.6089,-1.7789,-1.8732,-1.9589,-2.1608,-2.2512,-2.3474,-2.5219,-2.5636,-2.6157,-2.79,-2.9717,-3.0628,-2.9743,-3.1011,-3.0709,-2.6709,-2.5807,-2.4499,-2.1259,-2.1847,-2.2602,0.0,-2.5057,-2.6709,-2.7086,-2.7876,-2.8672,-2.9531,-2.916,-2.8439,-2.735,-2.6988,-2.6099,-2.4611,-2.4149,-2.3183,-2.1714,-2.3167,-2.2281,-1.9475,-1.9475,-1.9327,-1.9045,-1.9031,-1.887,-1.8588,-1.8292,-1.8158,-1.8117,-1.7822,-1.7687,-1.7687,-1.7701,-1.7324,-1.6787,-1.6491,-1.6195,-1.594,-1.594,-1.5927,-1.5927,-1.5927,-1.5927,-1.5927,-1.5927,-1.5927,-1.5927,-1.5927,-1.5927,-1.5832,-1.5832,-1.5832,-1.5832,-1.5832,-1.5832,-1.5832,-1.5832,-1.5832,-1.5832,-1.5832,-1.5832,-1.5832,-1.5832,-1.5832,-1.5832,-1.5927,-1.5671,-1.5376,-1.5066,-1.4771,-1.4475,-1.4193,-1.4166,-1.4045,-1.3667,-1.3921,-1.3828,-1.3267,-1.3774,-1.3948,-1.3585,-1.3935,-1.4082,-1.4082,-1.4095,-1.4242,-1.4522,-1.4536,-1.4856,-1.5157,0.0,-1.5357,-1.636,-1.6829,-1.713,-1.8038,-1.9291,-2.0535,-2.1232,-2.2683,-2.4074,-2.4822,-2.5999,-2.6861,-2.6745,-2.754,-2.7261,-2.4687,-2.4316,-2.3442,-2.0943,-2.1245,0.0,0.0,0.0,0.0,-2.5476,-2.5715,-2.5918,-2.6049,-2.5909,-2.5561,-2.4991,-2.4855,-2.4116,-2.2534,-2.2425,-2.1586,-2.0141,-2.0388,-2.0061,-1.9065,-1.8878,-1.8731,-1.8624,-1.8424,-1.829,-1.817,-1.7862,-1.7622,-1.7462,-1.7555,-1.7462,-1.7288,-1.7288,-1.7168,-1.6954,-1.666,-1.6366,-1.6086,-1.5885,-1.5832,-1.5832,-1.5832,-1.5832,-1.5832,-1.5832,-1.5832,-1.5832,-1.5832,-1.5832,-1.5832,-1.5832,-1.5832,-1.5832,-1.5832,-1.514,-1.4555,-1.4555,-1.3788,-1.321,-1.321,-1.321,-1.321,-1.321,-1.4663,-1.5832,-1.5832,-1.5578,-1.5284,-1.499,-1.4696,-1.4402,-1.4108,-1.4082,-1.4041,-1.3948,-1.4028,-1.4001,-1.3801,-1.3975,-1.3691,-1.2722,-1.2808,-1.2504,-1.1735,-1.1735,-1.178,-1.1956,-1.2913,-1.3088,-1.3574,-1.3554,-1.3906,-1.4808,-1.5062,-1.542,-1.6217,-1.7367,-1.8415,-1.924,-2.0282,-2.1281,-2.2062,-2.335,-2.4034,-2.3676,-2.4836,-2.5156,-2.323,-2.3059,-2.25,-2.0967,-2.1002,-2.1042,0.0,0.0,0.0,-2.4237,-2.459,-2.4745,-2.4647,-2.44,-2.3926,-2.323,-2.3103,-2.2266,-2.0816,-2.0802,-2.0315,-1.9212,-1.9118,-1.8971,-1.8771,-1.8677,-1.8531,-1.8317,-1.813,-1.7646,-1.7085,-1.6804,-1.6415,-1.5817,-1.5891,-1.5878,-1.5805,-1.5707,-1.5609,-1.5692,-1.6347,-1.6433,-1.6219,-1.5925,-1.5832,-1.5832,-1.5832,-1.5832,-1.5832,-1.5832,-1.5832,-1.5832,-1.5832,-1.5832,-1.5737,-1.5248,-1.514,-1.4949,-1.4472,-1.3788,-1.3199,-1.3199,-1.2522,-1.195,-1.195,-1.195,-1.195,-1.195,-1.3307,-1.4567,-1.5045,-1.4897,-1.4812,-1.499,-1.433,-1.387,-1.4108,-1.4082,-1.3913,-1.3464,-1.3464,-1.3294,-1.2869,-1.2869,-1.2478,-1.1771,-1.1682,-1.1381,-1.076,-1.0686,-1.0696,-1.076,-1.1706,-1.1822,-1.1362,-1.1136,-1.1232,-1.2702,-1.3302,-1.397,-1.5698,-1.6388,-1.7078,-1.8795,-1.8273,-1.8058,0.0,0.0,-2.2162,-2.0656,-2.3097,-2.4268,-2.2078,-2.204,-2.1878,0.0,0.0,0.0,0.0,0.0,0.0,-2.3325,0.0,-2.4622,-2.5033,-2.4415,-2.3467,-2.1933,-2.1636,-2.0816,-1.9359,-1.9372,-1.9225,-1.8945,-1.9097,-1.8924,-1.838,-1.8533,-1.8335,-1.7793,-1.7793,-1.6858,-1.5293,-1.5164,-1.4345,-1.3214,-1.3118,-1.3169,-1.3204,-1.3107,-1.2789,-1.2986,-1.527,-1.6064,-1.6011,-1.5817,-1.5642,-1.5629,-1.5629,-1.5629,-1.5629,-1.5629,-1.5629,-1.5629,-1.5629,-1.5629,-1.5343,-1.4076,-1.3776,-1.3488,-1.2145,-1.1853,-1.1755,-1.1755,-1.1755,-1.1658,-1.1658,-1.1658,-1.1658,-1.1658,-1.1755,-1.2328,-1.3584,-1.3555,-1.368,-1.472,-1.3432,-1.2889,-1.3854,-1.3913,-1.3464,-1.2322,-1.2237,-1.1724,-1.0605,-1.0626,-1.0639,-1.0662,-1.0552,-1.0661,-1.0886,-1.0563,-1.0583,-1.0895,-1.079,-1.0918,-0.7419,-0.6934,-0.7212,-0.8909,-0.9365,-0.9946,-1.1784,-1.317,-1.4295,-1.4776,-1.5246,-1.5991,0.0,0.0,0.0,-1.8915,-2.0916,0.0,-2.1409,-2.1502,0.0,-2.1122,0.0,-2.1109,-2.1109,-2.1109,0.0,0.0,-2.195,-2.193,-2.1534,-2.1378,-2.0844,-2.0048,-1.9965,-1.9809,-1.9372,-1.9372,-1.9332,-1.9252,-1.7918,-1.7086,-1.6869,-1.5512,-1.4724,-1.4548,-1.4548,-1.4299,-1.3804,-1.3848,-1.334,-1.2789,-1.3072,-1.3012,-1.2779,-1.2985,-1.2995,-1.2997,-1.3312,-1.3259,-1.3191,-1.41,-1.3692,-1.3102,-1.4076,-1.3692,-1.292,-1.292,-1.292,-1.292,-1.292,-1.292,-1.2823,-1.2522,-1.2425,-1.2339,-1.195,-1.117,-1.0485,-1.0485,-0.9706,-0.9023,-0.9023,-0.9023,-0.9023,-0.9023,-0.9797,-1.0974,-1.2231,-1.2225,-1.2181,-1.2221,-1.1801,-1.1476,-1.1499,-1.1477,-1.1391,-1.1037,-1.1037,-1.0864,-1.0616,-1.068,-1.0288,-0.9402,-0.9482,-0.9131,-0.8329,-0.8246,-0.8314,-0.852,-0.9301,-0.9299,-0.5567,-0.5297,-0.5661,-0.661,-0.7403,-0.8054,-0.8722,-1.0405,-1.1741,-1.2209,-1.2647,0.0,-1.428,-1.6004,0.0,0.0,0.0,0.0,-2.0414,-2.0716,-2.1041,0.0,-2.1109,0.0,-2.1109,-2.1109,-2.1109,0.0,-2.1109,-2.0909,-2.0454,-2.0307,-2.0027,-1.9573,-1.9439,-1.9372,-1.9372,-1.9372,-1.8945,-1.8096,-1.7117,-1.6034,-1.501,-1.3992,-1.3477,-1.3264,0.0,-1.294,-1.229,-1.2304,-1.1754,-1.1018,-1.1254,-1.1121,-1.0992,-1.1028,-1.1063,-1.108,-1.0706,-1.0515,-1.06,-1.2457,-1.2522,-1.2047,-1.2813,-1.2522,-1.195,-1.195,-1.195,-1.195,-1.195,-1.195,-1.1755,-1.117,-1.1072,-1.0877,-1.0288,-0.9608,-0.9114,-0.9114,-0.8528,-0.8038,-0.8038,-0.8038,-0.8038,-0.8038,-0.8627,-0.941,-1.0092,-1.0678,-1.1067,-1.1313,-1.0794,-1.0438,-1.0559,-1.0609,-1.0455,-0.9932,-0.9836,-0.9575,-0.9052,-0.9242,-0.8976,-0.8336,-0.8421,-0.8173,-0.7665,-0.7536,-0.7584,-0.7787,-0.8379,-0.8335,-0.4368,-0.4554,-0.4728,-0.4993,-0.6273,-0.7272,-0.68,-0.8165,-0.9744,-1.0612,0.0,-1.0801,-1.2232,-1.4504,-1.572,-1.4615,0.0,-1.9487,-1.905,-1.9424,-1.9864,-2.0335,-2.0462,-2.0462,-2.0462,-2.0462,-2.0462,-2.0462,-2.0462,-2.0459,-2.0695,-2.0401,-2.008,-1.976,-1.9492,-1.9243,-1.9127,-1.9127,-1.8147,-1.623,-1.6103,-1.5047,-1.3276,-1.3155,-1.2927,-1.2724,-1.2724,-1.1973,-1.0773,-1.0717,-0.9985,-0.8899,-0.8784,-0.8811,-0.8872,-0.8608,-0.8594,-0.8669,-0.8391,-0.8289,-0.8649,-1.0978,-1.158,-1.1463,-1.156,-1.156,-1.1365,-1.1365,-1.1365,-1.1365,-1.1365,-1.1365,-1.1072,-1.0002,-0.9706,-0.941,-0.8237,-0.8038,-0.8038,-0.8038,-0.8038,-0.8038,-0.8038,-0.8038,-0.8038,-0.8038,-0.8038,-0.8038,-0.8038,-0.9,-1.0026,-1.0715,-0.9879,-0.9478,-1.0095,-1.0308,-0.9883,-0.8727,-0.8648,-0.8224,-0.717,-0.7339,-0.7482,-0.7597,-0.7617,-0.7753,-0.8011,-0.7753,-0.7773,-0.8038,-0.7902,-0.7916,-0.1236,-0.0869,-0.1246,-0.277,-0.4413,-0.5792,-0.6531,-0.804,0.0,0.0,-0.9305,-0.9824,-1.0576,-1.2205,-1.3548,-1.3721,-1.538,-1.6583,-1.6562,-1.6817,-1.7043,0.0,0.0,0.0,-1.6818,-1.6818,0.0,0.0,-1.6818,-1.7885,-2.0557,-2.0401,-1.9987,-1.9452,-1.9399,-1.8765,-1.7443,-1.7443,-1.6483,-1.4729,-1.3441,-1.2427,-1.1827,-1.0603,-0.9846,-0.9699,-0.9699,0.0,-0.9258,-0.9237,-0.9057,-0.8757,-0.8859,-0.8838,-0.8743,-0.8689,-0.8689,-0.8682,-0.8506,-0.837,-0.8568,-1.0029,-0.9622,-0.8924,-1.0002,-0.9509,-0.8627,-0.8627,-0.8627,-0.8627,-0.8627,-0.8627,-0.8627,-0.8428,-0.8329,-0.8237,-0.8038,-0.8038,-0.8038,-0.8038,-0.8038,-0.8038,-0.8038,-0.8038,-0.8038,-0.8038,-0.8038,-0.8038,-0.8038,-0.8126,-0.8215,-0.835,-0.816,-0.7923,-0.7974,-0.7981,-0.784,-0.7415,-0.7527,-0.7605,-0.7333,-0.759,-0.7692,-0.7604,-0.7712,-0.7801,-0.7848,-0.7801,-0.7868,-0.8038,-0.8011,-0.8018,-0.0247,0.0,-0.0247,-0.1119,-0.3109,-0.4823,-0.4507,0.0,0.0,0.0,-0.7442,-0.8154,-0.8288,-1.0114,0.0,-1.2141,-1.392,-1.5352,-1.5573,-1.5923,0.0,0.0,0.0,0.0,0.0,-1.5913,-1.5913,-1.5913,-1.5913,-1.6465,-1.7885,-1.7626,-1.7601,-1.8181,-1.7337,-1.6503,-1.5784,-1.5784,-1.4893,-1.3258,-1.2355,-1.1356,-1.0395,-0.9448,-0.9001,-0.894,-0.894,-0.894,-0.894,-0.894,-0.8893,-0.8838,-0.8913,-0.8893,-0.8818,-0.8743,-0.8764,-0.8804,-0.8655,-0.8554,-0.8591,-0.9116,-0.8722,-0.8137,-0.8726,-0.8528,-0.8038,-0.8038,-0.8038,-0.8058,-0.814,-0.8099,-0.8079,-0.8235,-0.8214,-0.814,-0.8058,-0.8038,-0.8038,-0.8038,-0.8038,-0.8038,-0.8038,-0.8038,-0.8038,-0.8038,-0.8038,-0.8038,-0.8038,-0.7977,-0.7896,-0.7821,-0.7821,-0.774,-0.7509,-0.7556,-0.7536,-0.7387,-0.7448,-0.7489,-0.7489,-0.7699,-0.778,-0.7712,-0.7855,-0.7929,-0.7929,-0.7929,-0.797,-0.8038,-0.8038,-0.764,0.0,0.0,-0.0123,-0.0494,-0.2708,-0.4514,-0.3078,-0.5401,0.0,0.0,-0.5922,-0.6551,-0.6473,-0.8188,-0.9683,0.0,-1.1913,-1.3536,-1.387,-1.4438,0.0,0.0,0.0,0.0,-1.4754,-1.4754,0.0,-1.4754,-1.4754,-1.5029,-1.5403,-1.5052,-1.5345,-1.6503,-1.5311,-1.448,-1.4123,-1.4123,-1.3251,-1.1622,-1.1346,-1.0601,-0.9279,-0.9042,-0.894,-0.894,-0.894,-0.894,-0.894,-0.894,-0.894,-0.894,-0.894,-0.894,-0.8927,-0.8804,-0.8832,-0.892,-0.8804,-0.8737,-0.8682,-0.8533,-0.8303,-0.8079,-0.8052,-0.8038,-0.8038,-0.8038,-0.8038,-0.8072,-0.8228,-0.818,-0.8153,-0.8418,-0.835,-0.8201,-0.8106,-0.7759,-0.7534,-0.7534,-0.7534,-0.7534,-0.7534,-0.7839,-0.8038,-0.8038,-0.8038,-0.8038,-0.8038,-0.8038,-0.7991,-0.7875,-0.797,-0.7929,-0.7665,-0.7746,-0.7753,-0.7611,-0.7631,-0.7645,-0.7645,-0.778,-0.7862,-0.7862,-0.7977,-0.7839,-0.7534,-0.7534,-0.7434,-0.7129,-0.7129,-0.6625,0.0123,0.0,-0.037,-0.1848,-0.3566,-0.4879,-0.4496,0.0,0.0,-0.552,-0.5427,-0.5686,-0.6027,-0.6659,0.0,0.0,0.0,-0.9117,0.0,-1.037,0.0,0.0,0.0,0.0,-1.124,-1.124,-1.124,-1.124,-1.124,-1.2393,-1.5182,-1.5246,-1.5156,-1.4857,-1.4718,-1.3885,-1.2457,-1.2449,-1.1454,-0.9648,-0.9627,-0.9353,-0.8981,-0.8954,-0.894,-0.894,-0.894,-0.894,0.0,-0.894,-0.894,-0.894,-0.894,-0.894,-0.894,-0.892,-0.8927,-0.894,-0.892,-0.8825,-0.8682,-0.8533,-0.8377,-0.8221,-0.8079,-0.8038,-0.8038,-0.8038,-0.8038,-0.8072,-0.8228,-0.8262,-0.8289,-0.8445,-0.8269,-0.8092,-0.8221,-0.722,-0.6232,-0.6232,-0.6232,-0.6232,-0.6232,-0.7235,-0.8038,-0.8038,-0.8038,-0.8038,-0.8038,-0.8038,-0.8031,-0.8018,-0.8031,-0.797,-0.7807,-0.7801,-0.7753,-0.7611,-0.7719,-0.7794,-0.7794,-0.7936,-0.8018,-0.8018,-0.8031,-0.7434,-0.6232,-0.6232,-0.5522,-0.4418,-0.4418,-0.4318,0.0125,0.0,-0.0125,-0.0876,-0.2093,-0.3017,-0.2481,0.0,-0.4576,-0.3526,-0.3653,-0.4009,-0.4163,-0.454,-0.5088,0.0,0.0,0.0,-0.8165,0.0,0.0,0.0,-1.032,0.0,0.0,0.0,-1.0717,-1.0717,-1.0717,-1.1148,-1.2314,-1.2426,-1.2691,-1.3409,-1.2445,-1.1539,-1.0927,-1.083,-1.0314,-0.9517,-0.9422,-0.9273,-0.9062,-0.8981,-0.894,-0.883,-0.7931,-0.7593,0.0,-0.6589,-0.6255,-0.6366,-0.726,-0.7593,-0.7709,-0.8602,-0.894,-0.894,-0.894,-0.8899,-0.8804,-0.856,-0.8445,-0.835,-0.8113,-0.8038,-0.8058,-0.8153,-0.818,-0.8235,-0.8472,-0.7955,-0.7124,-0.6061,-0.5707,-0.5693,-0.567,-0.5274,-0.4798,-0.4798,-0.4758,-0.4818,-0.4818,-0.5222,-0.5622,-0.5622,-0.5622,-0.5622,-0.5622,-0.5622,-0.5622,-0.5622,-0.703,-0.8018,-0.7957,-0.795,-0.7923,-0.7868,-0.7125,-0.6755,-0.6755,-0.6001,-0.5622,-0.5622,-0.5622,-0.5322,-0.4818,-0.4818,-0.4518,-0.4014,-0.4014,-0.3616,0.1249,0.1386,0.1394,0.0378,-0.0617,-0.1203,0.0,0.0,-0.2839,-0.198,-0.2326,-0.2674,-0.2738,-0.3102,-0.3605,0.0,0.0,-0.5582,-0.6738,-0.7722,0.0,0.0,0.0,-0.9903,0.0,-1.0538,-1.0717,-1.0717,-1.0717,-1.067,-1.0568,-0.9987,-1.0385,-1.1823,-1.0674,-0.9985,-0.9985,-0.9876,-0.9747,-0.9605,-0.9456,-0.93,-0.915,-0.9008,-0.8712,-0.8152,-0.7149,-0.6478,0.0,-0.4916,-0.447,-0.4582,-0.5699,-0.6033,-0.6144,-0.726,-0.7593,-0.7593,-0.7593,-0.7593,-0.7558,-0.7338,-0.724,-0.7171,-0.6896,-0.7397,-0.8072,-0.8228,-0.802,-0.7706,-0.7463,-0.6697,-0.5625,-0.4439,-0.4102,-0.4098,-0.4069,-0.3689,-0.3436,-0.3436,-0.34,-0.3369,-0.3369,-0.3777,-0.3974,-0.395,-0.4048,-0.4041,-0.4017,-0.4014,-0.4014,-0.4014,-0.5722,-0.683,-0.683,-0.683,-0.683,-0.683,-0.5927,-0.5422,-0.5422,-0.4518,-0.4014,-0.4014,-0.4014,-0.3817,-0.3416,-0.3416,-0.3215,-0.2814,-0.2814,-0.2314,0.3815,0.4398,0.4476,0.1006,0.0495,0.0,0.0,0.0,-0.2271,-0.1428,-0.1548,-0.1893,-0.208,-0.2436,-0.2815,-0.321,0.0,0.0,-0.5391,-0.623,0.0,0.0,0.0,-0.8483,-0.9373,-1.0156,-1.0717,-1.0717,-1.0717,0.0,-1.0717,-0.8978,-0.8665,-0.9935,-0.9903,-0.9822,-0.9822,-0.9822,-0.9747,-0.9605,-0.9456,-0.93,-0.915,-0.9008,-0.8152,-0.67,-0.67,-0.5922,0.0,-0.447,-0.447,-0.447,-0.447,-0.447,-0.447,-0.4582,-0.4582,-0.4582,-0.4582,-0.4582,-0.4457,-0.4272,-0.4196,-0.4242,-0.4133,-0.5892,-0.8072,-0.8228,-0.7416,-0.6202,-0.468,-0.4246,-0.4266,-0.445,-0.4242,-0.405,-0.4121,-0.3009,-0.2019,-0.2019,-0.2019,-0.2019,-0.2019,-0.3077,-0.4005,-0.4037,-0.4023,-0.3997,-0.4024,-0.4014,-0.4014,-0.4014,-0.4017,-0.4017,-0.4017,-0.4017,-0.4017,-0.4017,-0.4017,-0.4017,-0.4017,-0.4017,-0.4014,-0.4014,-0.4014,-0.3316,-0.2012,-0.2012,-0.1309,0.0,0.0,0.0,0.3624,0.3661,0.3567,0.2129,0.1634,0.1381,0.0228,0.0,0.0113,0.0223,0.0,-0.0336,-0.0334,-0.0781,-0.1352,-0.1832,0.0,0.0,0.0,0.0,0.0,-0.7406,-0.774,-0.8154,0.0,0.0,-0.7102,-0.7102,-0.7102,-0.7102,-0.7102,-0.6414,-0.6846,-0.8531,-0.846,-0.8352,-0.8352,-0.9252,-0.97,-0.9456,-0.9401,-0.8781,-0.7539,-0.7388,-0.6589,-0.5139,-0.4132,-0.3352,-0.2794,-0.179,-0.1456,-0.1567,-0.2571,-0.2905,-0.3017,-0.4136,-0.447,-0.447,-0.447,-0.447,-0.446,-0.4272,-0.4233,-0.4203,-0.4043,-0.4586,-0.5252,-0.5417,-0.5335,-0.4764,-0.3213,-0.2881,-0.2553,-0.1677,-0.1332,-0.1324,-0.1331,-0.0987,-0.0651,-0.0651,-0.0645,-0.0639,-0.0639,-0.0959,-0.1275,-0.1267,-0.1266,-0.1264,-0.1257,-0.1242,-0.1238,-0.1254,-0.1228,-0.2012,-0.3817,-0.4014,-0.4014,-0.4014,-0.3115,-0.2615,-0.2615,-0.1712,-0.1309,-0.1309,-0.1309,-0.1008,-0.0605,-0.0605,-0.0404,0.0,0.0,0.0,0.0,0.4354,0.4396,0.3241,0.2748,0.2376,0.1359,0.1239,0.1234,0.1121,0.0785,0.0561,0.0561,0.0112,-0.045,-0.0909,-0.1487,0.0,0.0,0.0,0.0,-0.5522,0.0,0.0,0.0,-0.5859,-0.5362,-0.5362,-0.5362,-0.5352,-0.5454,-0.4683,-0.4759,-0.5933,-0.6428,-0.6846,-0.7464,-0.8337,-0.9067,-0.9544,-0.8838,-0.7887,-0.6822,-0.6214,-0.5054,-0.3575,-0.2571,-0.19,0.0,-0.0336,0.0,-0.0112,-0.1008,-0.1343,-0.1456,-0.2478,-0.2822,-0.2822,-0.2822,-0.2822,-0.2815,-0.2656,-0.2641,-0.2633,-0.248,-0.3191,-0.4024,-0.3466,-0.3529,-0.324,-0.179,-0.1343,-0.112,-0.0224,0.0,0.0,0.0,0.0,0.0,0.0,0.0,0.0,0.0,0.0,0.0,0.0,0.0,0.0,0.0,0.0,0.0,0.0,0.0,-0.0721,-0.2363,-0.2449,-0.2534,-0.2515,-0.1724,-0.1218,-0.121,-0.0404,0.0,0.0,0.0,0.0,0.0,0.0,0.0,0.0,0.0,0.0,0.0,0.5903,0.0,0.4187,0.3454,0.2851,0.1259,0.1019,0.0,0.1234,0.1009,0.0897,0.0785,0.0449,-0.0112,-0.0336,-0.0682,0.0,0.0,-0.1954,0.0,0.0,-0.3584,0.0,-0.3868,-0.4622,-0.4961,-0.4961,-0.4958,-0.5059,-0.4991,-0.3366,-0.2552,-0.2517,-0.3841,-0.5406,-0.7235,-0.7015,-0.7851,-0.9539,-0.7606,-0.6793,-0.6662,-0.5073,-0.3524,0.0,-0.2017,-0.1234,0.0,0.0,0.0,0.0,0.0,0.0,0.0,0.0,0.0115,0.0115,0.0115,0.0229,0.0343,0.0338,0.0336,0.0335,0.022,-0.1749,-0.3602,-0.2295,-0.1989,-0.1677,-0.0336,0.0,0.0,0.0,0.0,0.0,0.0,0.0,0.0,0.0,0.0,0.0,0.0,0.0,0.0,0.0,0.0,0.0,0.0,0.0,0.0,0.0,0.0,0.0,0.0,0.0,0.0,0.0,0.0,0.0,0.0,0.0,0.0,0.0,0.0,0.0,0.0,0.0,0.0,0.0,0.0107,0.0107,0.1232,0.0,0.3247,0.2339,0.1596,0.1069,0.0,0.0551,0.0331,0.0559,0.0,0.0449,0.0224,0.0224,0.0224,0.0,0.0,-0.0568,-0.058,0.0,0.0,-0.4665,-0.3689,-0.3045,-0.3011,-0.1995,-0.121,-0.121,-0.1331,-0.1321,-0.1317,-0.09,-0.0633,-0.0631,-0.0995,-0.2585,-0.5406,-0.5445,-0.6213,-0.7702,-0.5998,-0.4541,-0.3342,-0.2905,-0.1981,-0.0465,-0.0574,-0.0343,0.0,0.0,0.0,0.0,0.0,0.0,0.0,0.0,0.0676,0.1687,0.1687,0.2474,0.3485,0.3471,0.3466,0.324,0.2004,0.0445,-0.0891,-0.0557,-0.0447,-0.0448,-0.0112,0.0,0.0,0.0,0.0,0.0,0.0,0.0,0.0,0.0,0.0,0.0,0.0,0.0,0.0,0.0,0.0,0.0,0.0,0.0,0.0,0.0,0.0,0.0,0.0,0.0,0.0,0.0,0.0,0.0,0.0,0.0,0.0,0.0,0.0,0.0,0.0,0.0,0.0,0.0,0.1171,0.1703,-0.0422,0.0208,0.0818,0.0521,-0.0105,-0.0535,-0.011,0.0,0.0,0.0,0.0,-0.0224,-0.0224,-0.0226,-0.0226,0.0,-0.0343,0.0,0.0,0.0,-0.1655,-0.2619,-0.1854,-0.133,0.0,-0.0536,0.0,0.0,0.0,0.0,0.0,0.0,0.0,0.0,0.0,-0.1233,-0.3812,-0.3727,-0.4512,-0.6042,-0.4321,-0.3118,-0.2293,-0.1505,-0.0811,0.0,0.0,0.0,0.0,0.0,0.0,0.0,0.0,0.0448,0.1009,0.1016,0.1924,0.3275,0.3275,0.3821,0.447,0.447,0.447,0.4359,0.3463,0.2684,0.1791,0.0336,0.0,0.0,0.0,0.0,0.0,0.0,0.0,0.0,0.0,0.0,0.0,0.0,0.0,0.0,0.0,0.0,0.0,0.0,0.0,0.0,0.0,0.0,0.0,0.0,0.0,0.0,0.0,0.0,0.0,0.0,0.0,0.0,0.0,0.0,0.0,0.0,0.0,0.0329,0.1103,0.1094,0.1422,0.2203,0.2948,0.3265,-0.1439,-0.1627,-0.1686,-0.1068,-0.1514,-0.1755,-0.1117,0.0,0.0,0.0,0.0,0.0,0.0,-0.0683,0.0,0.0,0.0,0.0,0.0,0.0381,0.0642,0.0394,0.0396,0.0,0.0,0.0,0.0,0.0,0.0,0.0,0.0,0.0,0.0,0.0,0.0,-0.074,-0.2094,-0.191,-0.2716,-0.4529,-0.267,-0.195,-0.2064,-0.0691,0.0,0.0,0.0,0.0,0.0337,0.0561,0.0672,0.0672,0.0448,0.1231,0.2574,0.2271,0.3307,0.49,0.5127,0.5197,0.5139,0.5139,0.5139,0.5139,0.4916,0.4804,0.4247,0.1456,0.056,0.0336,0.0112,0.0,0.0,0.0,0.0,0.0,0.0,0.0,0.0,0.0,0.0,0.0,0.0,0.0,0.0,0.0,0.0,0.0,0.0,0.0,0.0,0.0,0.0,0.0,0.0,0.0,0.0,0.0,0.0,0.0,0.0,0.0,0.0,0.0,0.0223,0.1132,0.2523,0.2606,0.3282,0.469,0.4852,0.4815,-0.3585,-0.4672,-0.529,-0.2006,-0.1984,-0.2524,-0.1452,0.0,0.0,0.0,0.0,0.0,0.0,-0.0802,-0.0452,0.0,0.0,0.0,0.0,0.0,0.0131,0.0132,0.0,0.0,0.0,0.0,0.0,0.0,0.0,0.0,0.0,0.0,0.0,0.0,0.0,-0.0123,-0.037,-0.0359,-0.1169,-0.2885,-0.115,-0.0345,-0.0345,-0.0117,0.0,0.0117,0.0,0.1827,0.1939,0.326,0.3801,0.3689,0.2347,0.2794,0.4024,0.269,0.3924,0.6502,0.7844,0.8171,0.8263,0.8263,0.8263,0.8042,0.67,0.6366,0.6033,0.4247,0.2908,0.1566,0.0336,0.0,0.0,0.0,0.0,0.0,0.0,0.0,0.0,0.0,0.0,0.0,0.0,0.0,0.0,0.0,0.0,0.0,0.0,0.0,0.0,0.0,0.0,0.0,0.0,0.0,0.0,0.0,0.0,0.0,0.0,0.0,0.0,0.0,0.136,0.2287,0.2523,0.3821,0.4515,0.469,0.593,0.6449,-0.3602,-0.4255,-0.4651,-0.326,-0.4168,-0.5177,-0.4249,0.0,0.0,0.0,0.0,0.0,0.0,0.0,-0.0598,-0.0247,0.0,0.0248,0.026,0.0389,0.0388,0.0,0.0,0.0262,0.0,0.0,0.0,0.0,0.0,0.0,0.0,0.0,0.0,0.0,0.0,0.0367,0.1202,0.1184,0.0352,-0.1163,-0.0343,0.0,0.0,0.0,0.0459,0.1259,0.0,0.2713,0.3503,0.426,0.447,0.447,0.3687,0.4332,0.5617,0.5722,0.6603,0.7944,0.8686,0.894,0.894,0.894,0.894,0.8843,0.8239,0.8033,0.7691,0.6224,0.4049,0.2241,0.2487,0.1915,0.1234,0.1359,0.1239,0.1008,0.0224,0.0,0.0,0.0,0.0,0.0,0.0,0.0,0.0,0.0,0.0,0.0,0.0,0.0,0.0,0.0,0.0,0.0,0.0,0.0828,0.0938,0.0,0.0,0.0,0.0,0.0,0.0456,0.1379,0.2066,0.3351,0.517,0.5748,0.6565,0.7397,0.7916,0.8196,-0.3485,-0.3669,-0.3937,-0.4099,0.0,-0.6593,-0.5798,0.0,0.0,0.0,0.0,0.0,0.0,-0.0611,0.0,0.013,0.0255,0.0381,0.0395,0.0518,0.0641,0.0389,0.0388,0.0258,0.0,0.0,0.0,0.0,0.0,0.0,0.0,0.0,0.0,0.0,0.0369,0.1091,0.2245,0.2579,0.2214,0.1047,0.1021,0.1008,0.1008,0.1008,0.1678,0.2794,0.3129,0.391,0.5027,0.5361,0.5477,0.5472,0.5139,0.5638,0.664,0.8202,0.8743,0.873,0.8886,0.894,0.894,0.894,0.894,0.896,0.9069,0.9123,0.8917,0.7743,0.5422,0.3487,0.4428,0.3731,0.2819,0.297,0.295,0.2361,0.0901,0.0577,0.0471,0.0588,0.0604,0.074,0.111,0.0855,0.0606,0.0606,0.024,0.0,0.0,0.0,0.0,0.0,0.0366,0.0727,0.109,0.2266,0.2485,0.119,0.0818,0.0581,0.0588,0.093,0.1741,0.3052,0.3492,0.4922,0.7443,0.7616,0.8331,0.9605,0.949,0.9415,-0.3719,-0.4687,-0.5399,-0.3807,-0.4258,0.0,-0.3845,-0.3485,0.0,0.0,0.0,0.0,0.0,0.0252,0.0505,0.0885,0.0387,0.0,0.0,0.0,0.0,0.0,0.0,0.0,0.0,0.0,0.0,0.0,0.0,0.0,0.0,0.0,0.0,0.0,0.1337,0.2047,0.2161,0.3609,0.4325,0.4151,0.4142,0.4136,0.4136,0.4136,0.4247,0.4359,0.5806,0.6478,0.67,0.8042,0.8602,0.8491,0.7038,0.6523,0.665,0.8317,0.8832,0.873,0.8886,0.894,0.894,0.894,0.894,0.894,0.8954,0.9049,0.9123,0.8876,0.7685,0.6256,0.483,0.4525,0.4569,0.4576,0.4572,0.4113,0.2631,0.2205,0.2115,0.2232,0.2291,0.2831,0.4303,0.3318,0.2336,0.2336,0.0984,0.0,0.0,0.0,0.0,0.0,0.1354,0.2948,0.4419,0.4596,0.4704,0.4529,0.31,0.2346,0.235,0.3749,0.4568,0.4691,0.6296,0.7184,0.7443,0.8877,0.9607,0.9612,0.9598,0.9517,-0.3146,-0.3468,-0.3772,-0.3929,-0.3801,0.0,0.0,0.0,0.0,0.0,0.0,0.0,0.0,0.0,0.038,0.0894,0.0388,0.0392,0.1456,0.0656,0.0389,0.1412,0.0638,0.0,0.0,0.0,0.0,0.0,0.0,0.0,0.0,0.0,0.0494,0.1479,0.1941,0.3109,0.5086,0.5664,0.6351,0.726,0.5361,0.447,0.447,0.447,0.5027,0.5922,0.6478,0.726,0.8152,0.8712,0.894,0.8816,0.8169,0.7883,0.7954,0.8553,0.8757,0.873,0.8886,0.894,0.894,0.894,0.894,0.8954,0.9042,0.9178,0.9286,0.9232,0.8208,0.7059,0.7398,0.6669,0.6003,0.6125,0.5414,0.4246,0.2786,0.1652,0.1194,0.2265,0.2548,0.2954,0.4671,0.4426,0.3935,0.3935,0.2585,0.1602,0.1602,0.0617,0.037,0.1479,0.3077,0.4671,0.6259,0.5498,0.5373,0.6381,0.4938,0.3948,0.3987,0.4548,0.5379,0.639,0.7095,0.784,0.8883,0.9546,0.9795,0.9741,0.9741,0.9707,-0.2571,-0.2382,-0.2295,0.0,0.0,0.0,0.0,0.0,0.0,0.0,0.0,0.0,0.0,0.0,0.0,0.0,0.0772,0.0647,0.2216,0.155,0.1403,0.3024,0.2257,0.1371,0.0864,0.074,0.0617,0.0,0.0,0.0247,0.074,0.074,0.1476,0.3176,0.3487,0.4729,0.6859,0.7204,0.7903,0.883,0.6816,0.5922,0.5922,0.5922,0.6478,0.7371,0.7371,0.7931,0.894,0.894,0.894,0.8927,0.8825,0.8723,0.8648,0.875,0.8723,0.8669,0.8866,0.894,0.894,0.894,0.894,0.8967,0.911,0.9259,0.9381,0.9381,0.8703,0.8119,0.903,0.7975,0.6914,0.7685,0.6503,0.498,0.4242,0.2745,0.2045,0.3725,0.4015,0.4545,0.6141,0.6043,0.569,0.569,0.4475,0.3369,0.3369,0.1874,0.1497,0.3098,0.4192,0.5774,0.7978,0.7118,0.7011,0.8156,0.7069,0.6194,0.577,0.6198,0.7044,0.8094,0.8142,0.8751,0.9822,0.9822,0.9822,0.9822,0.9822,0.9822,-0.1879,-0.1669,-0.1327,0.0,0.0,0.0,0.0,0.0,0.0,0.0,0.0,0.0,0.0,0.0,0.0,0.3139,0.1532,0.0645,0.2314,0.254,0.3145,0.4771,0.4957,0.4303,0.2708,0.2462,0.1848,0.0123,0.0,0.074,0.2462,0.2462,0.3176,0.4684,0.6142,0.6854,0.6744,0.8221,0.894,0.894,0.894,0.894,0.894,0.894,0.894,0.894,0.894,0.894,0.894,0.894,0.894,0.894,0.894,0.875,0.852,0.8825,0.8743,0.8526,0.8832,0.894,0.894,0.894,0.894,0.8967,0.911,0.9259,0.9381,0.9381,0.9496,0.9571,0.9422,0.8105,0.735,0.8993,0.8084,0.6945,0.7298,0.6005,0.5283,0.7085,0.7412,0.785,0.9572,0.8576,0.7656,0.7656,0.6358,0.5394,0.5394,0.3855,0.3322,0.4778,0.496,0.6263,0.9572,0.9822,0.989,1.0039,0.991,0.9086,0.7484,0.8958,0.9822,0.9822,0.9822,0.9822,0.9822,0.9822,0.9822,0.9822,0.9822,0.9822,-0.0957,-0.0721,0.0,-0.0489,0.0,0.0,0.0,0.0,0.0,0.0,0.0,0.0,0.0,0.0,0.0,0.3465,0.3482,0.4003,0.5678,0.4994,0.4823,0.6425,0.5487,0.4616,0.4177,0.414,0.3872,0.3389,0.3422,0.3671,0.3993,0.399,0.4824,0.6359,0.6657,0.735,0.8464,0.8785,0.894,0.894,0.894,0.894,0.894,0.894,0.894,0.894,0.894,0.894,0.894,0.894,0.894,0.8927,0.8818,0.8784,0.8804,0.8784,0.8791,0.8818,0.8906,0.9008,0.9076,0.8974,0.9008,0.9096,0.9144,0.9259,0.9401,0.951,0.8853,0.8277,0.9314,0.8248,0.7475,0.915,0.8225,0.706,0.7291,0.6098,0.5369,0.7069,0.7337,0.785,0.9572,0.9575,0.9293,0.9293,0.8012,0.6161,0.3855,0.2957,0.3194,0.4778,0.6002,0.7449,0.9585,0.9917,0.9998,1.0046,1.0107,0.9843,0.9236,0.9632,0.9822,0.9822,0.9822,0.9822,0.9822,0.9822,0.9822,0.9822,0.9822,0.9822,-0.0359,0.0,0.0,-0.0244,-0.0123,0.0,0.0,0.0,0.0,0.0,0.0,0.1997,0.2362,0.3318,0.0,0.4909,0.4916,0.5544,0.7207,0.6544,0.6494,0.8032,0.736,0.6368,0.5786,0.5618,0.5349,0.4637,0.4681,0.4924,0.559,0.5586,0.6282,0.7891,0.7738,0.8094,0.9069,0.8981,0.894,0.894,0.894,0.894,0.894,0.894,0.894,0.894,0.894,0.894,0.894,0.894,0.8906,0.8838,0.875,0.873,0.8757,0.8723,0.8771,0.8859,0.892,0.8994,0.9055,0.8967,0.9035,0.9164,0.9225,0.9354,0.9503,0.9652,0.9086,0.86,0.9453,0.8904,0.8367,0.9361,0.8283,0.735,0.8193,0.7118,0.6385,0.7972,0.8343,0.8708,0.9572,0.9998,1.0141,1.0141,0.9416,0.7961,0.5223,0.4677,0.5033,0.601,0.699,0.8204,0.9888,1.0086,1.0161,1.0222,1.0263,1.0263,1.0229,1.0025,0.9937,1.0005,0.9944,0.991,0.991,0.991,0.9883,0.9822,0.9822,0.9822,0.0,0.0,0.0,0.0121,0.0,0.0,0.0253,0.0,0.0253,0.0257,0.0,0.1488,0.4383,0.3929,0.4111,0.6977,0.6263,0.5896,0.7362,0.7606,0.806,0.94,0.9605,0.894,0.729,0.7142,0.6546,0.5028,0.4918,0.5622,0.7016,0.7132,0.7778,0.9157,0.9123,0.9055,0.894,0.8913,0.8906,0.892,0.8906,0.8899,0.8899,0.8927,0.894,0.894,0.894,0.894,0.894,0.892,0.8838,0.8918,0.8682,0.8707,0.8723,0.8642,0.871,0.875,0.8893,0.8947,0.896,0.896,0.9055,0.9205,0.9354,0.9496,0.9639,0.9781,0.9822,0.9822,0.9822,0.9822,0.9788,0.9659,0.842,0.7845,0.9425,0.8714,0.8099,0.9572,0.9829,0.9842,0.9842,1.0093,1.0304,1.0317,1.0417,0.9908,0.8163,0.7807,0.7747,0.7742,0.7781,0.8486,1.0149,1.029,1.0351,1.048,1.0385,1.0378,1.0507,1.0229,1.0134,1.0276,1.0141,1.0073,1.0073,1.0073,0.9998,0.9863,0.9849,0.9849,0.0,0.0,0.0,0.0,0.0,0.0379,0.1639,0.1997,0.1989,0.202,0.4022,0.5628,0.5018,0.6676,0.8066,0.7479,0.8099,0.8836,0.9207,0.9329,0.9438,0.9781,0.9571,0.9345,0.9071,0.8871,0.8508,0.816,0.8262,0.8506,0.8742,0.8736,0.8837,0.9157,0.8927,0.8845,0.894,0.8703,0.8642,0.8757,0.8635,0.8581,0.8587,0.8832,0.894,0.894,0.894,0.894,0.8927,0.8811,0.9377,1.0166,0.887,0.9108,1.0126,0.8984,0.8682,0.8893,0.8927,0.9015,0.911,0.911,0.9211,0.9361,0.9517,0.9585,0.9639,0.9781,0.9822,0.9822,0.9822,0.9822,0.9815,0.9781,0.9526,0.929,0.9694,0.9572,0.9329,0.97,0.9917,0.9998,0.9998,1.0249,1.0487,1.0609,0.9474,0.8435,0.803,0.6814,0.6378,0.7616,0.7852,0.8452,1.0163,1.0385,1.046,1.0487,1.0575,1.0636,1.067,1.0385,1.0249,1.0283,1.0249,1.0229,1.0229,1.0229,1.0215,1.0175,1.0059,1.0066,0.0846,0.0,0.0,0.0126,0.0,0.1375,0.2264,0.373,0.48,0.484,0.5594,0.6209,0.6085,0.7521,0.8569,0.8509,0.9112,0.972,0.972,0.9659,0.9612,0.9612,0.9408,0.9273,0.9286,0.9144,0.9049,0.9049,0.9123,0.9137,0.9055,0.9049,0.9049,0.9049,0.8899,0.8825,0.8832,0.8669,0.8594,0.8601,0.852,0.8934,0.964,0.9823,0.9899,0.9899,1.0542,1.0758,1.0741,1.0559,1.0854,1.1371,1.0647,1.0828,1.1422,1.016,0.98,0.9809,0.9154,0.8988,0.9049,0.9049,0.9198,0.9395,0.9476,0.9116,0.8751,0.9552,0.9207,0.8836,0.9572,0.9822,0.9822,0.9822,0.9822,0.9822,0.9822,0.9822,0.9822,0.9822,0.9944,1.0046,1.0046,1.0297,1.0548,1.0697,0.9908,0.9238,0.9238,0.844,0.8281,0.915,0.9144,0.9514,1.0364,1.0561,1.0602,1.0602,1.0677,1.0717,1.0717,1.0575,1.0493,1.0493,1.0419,1.0378,1.0378,1.0378,1.0344,1.0276,1.0195,1.0202,0.2266,0.0,0.211,0.0755,0.1626,0.0,0.2888,0.5226,0.7505,0.7734,0.6752,0.6141,0.7606,0.785,0.8187,0.942,0.9625,0.9612,0.9612,0.9476,0.9381,0.9381,0.9245,0.911,0.8988,0.8954,0.894,0.894,0.894,0.894,0.894,0.894,0.894,0.894,0.8886,0.8825,0.875,0.8648,0.8659,0.8793,0.9049,0.9823,1.1151,1.1353,1.1388,1.1239,1.226,1.2775,1.2755,1.2432,1.2435,1.2484,1.2567,1.2659,1.2823,1.1695,1.1156,1.0891,0.9699,0.9154,0.8947,0.9001,0.9184,0.9388,0.9085,0.842,0.7972,0.9079,0.8587,0.8099,0.9451,0.9822,0.9822,0.9822,0.9822,0.9822,0.9822,0.9842,0.9863,0.9863,1.0005,1.0134,1.0161,1.0371,1.0575,1.0704,1.0717,1.0717,1.0717,1.0717,1.0717,1.0717,1.0717,1.0717,1.0717,1.0717,1.0717,1.0717,1.0717,1.0717,1.0717,1.0717,1.0717,1.0717,1.0595,1.0527,1.0527,1.0527,1.0473,1.0358,1.0331,1.0331,0.0,0.0,0.3763,0.0,0.3297,0.4712,0.0,0.0,0.7981,0.0,0.9329,0.9207,0.9451,0.9451,0.9566,0.9795,0.9686,0.9612,0.9612,0.9476,0.9381,0.9381,0.9245,0.9144,0.9123,0.9015,0.894,0.894,0.894,0.894,0.894,0.894,0.894,0.894,0.8682,0.8662,0.8906,0.8391,0.8751,1.0128,1.1016,1.1756,1.2264,1.3357,1.3383,1.2499,1.2521,1.2442,1.2422,1.2304,1.2893,1.3777,1.2804,1.3143,1.4163,1.3049,1.2005,1.1109,1.0891,0.9911,0.8981,0.9239,0.9347,0.9189,0.7982,0.8563,0.9207,0.8099,0.8587,0.9572,0.97,0.9822,0.9822,0.9822,0.9822,0.9822,0.9822,0.9924,1.0019,1.0019,1.0243,1.0473,1.0609,1.0663,1.0697,1.0717,1.0717,1.0717,1.0717,1.0717,1.0717,1.0717,1.0717,1.0717,1.0717,1.0717,1.0717,1.0717,1.0717,1.0717,1.0717,1.0717,1.0717,1.0717,1.0704,1.069,1.069,1.069,1.0677,1.0656,1.0527,1.0534,0.5331,0.4814,0.4324,0.0,0.4957,0.62,0.626,0.0,0.9032,0.9714,0.9822,0.9795,0.972,0.9632,0.9544,0.9462,0.9395,0.9354,0.9354,0.9225,0.9164,0.9245,0.9123,0.9035,0.9035,0.8899,0.8845,0.8933,0.8859,0.8845,0.8933,0.894,0.894,0.894,0.947,0.9838,0.9985,1.0414,1.0932,1.1503,1.272,1.3358,1.3469,1.4863,1.4871,1.3968,1.4352,1.4548,1.4524,1.4362,1.4546,1.5055,1.4716,1.5034,1.5506,1.3581,1.2646,1.2082,1.046,0.9478,0.8974,0.9184,0.9313,0.9305,0.8791,0.8533,0.8465,0.8708,0.8587,0.8708,0.9572,0.9822,0.9822,0.9822,0.9822,0.9842,0.993,0.9998,1.01,1.0263,1.0405,1.0541,1.0697,1.0717,1.0717,1.0717,1.0717,1.0717,1.0717,1.0717,1.0717,1.0717,1.0717,1.0717,1.0717,1.0717,1.0717,1.0717,1.0717,1.0717,1.0717,1.0717,1.0717,1.0717,1.0717,1.0717,1.0717,1.0717,1.0717,1.0717,1.0649,1.0656,0.0,0.0,0.5835,0.5418,0.6654,0.7769,0.0,0.0,0.9869,0.0,0.9795,0.9734,0.9632,0.9517,0.9401,0.9286,0.9205,0.915,0.915,0.9028,0.8981,0.9083,0.9001,0.894,0.894,0.8832,0.8818,0.8927,0.8832,0.8818,0.8933,0.894,0.9044,0.9478,1.0246,1.0911,1.1532,1.2685,1.3057,1.2872,1.4161,1.4789,1.4961,1.583,1.5849,1.5343,1.5908,1.6166,1.6139,1.5925,1.5832,1.5872,1.6233,1.6315,1.5922,1.4063,1.3123,1.2408,1.0241,0.9293,0.9015,0.9164,0.9313,0.9352,0.9136,0.8515,0.8221,0.8958,0.8587,0.8343,0.9451,0.9822,0.9822,0.9822,0.9849,0.9924,1.0073,1.0134,1.0236,1.05,1.0548,1.0588,1.0704,1.0717,1.0717,1.0717,1.0717,1.0717,1.0717,1.0717,1.0717,1.0717,1.0717,1.0717,1.0717,1.0717,1.0738,1.0778,1.0778,1.0792,1.0833,1.0799,1.0778,1.0778,1.0738,1.0717,1.0717,1.0717,1.0717,1.0717,1.0717,1.0717,0.0,0.9717,0.0,0.7413,0.8515,0.0,0.0,0.0,0.9998,0.9849,0.9713,0.9618,0.9612,0.9605,0.9598,0.9585,0.934,0.915,0.915,0.9028,0.894,0.8947,0.8947,0.894,0.894,0.8933,0.8927,0.894,0.8933,0.8927,0.894,0.894,0.9588,1.0891,1.0648,1.1256,1.3136,1.4301,1.4663,1.426,1.5562,1.6321,1.656,1.6112,1.6069,1.6573,1.6002,1.5845,1.5845,1.5832,1.5832,1.5885,1.646,1.5871,1.4706,1.5106,1.3578,1.121,1.1,1.0231,0.9164,0.932,0.9469,0.938,0.7928,0.8581,0.9329,0.7972,0.8587,0.97,0.9822,0.9822,0.9822,0.9822,0.993,1.008,1.0236,1.0371,1.0514,1.0677,1.0711,1.0711,1.0717,1.0717,1.0717,1.0717,1.0717,1.0717,1.0717,1.0717,1.0717,1.0717,1.0717,1.0717,1.0717,1.0717,1.0778,1.0928,1.0934,1.0995,1.1131,1.1009,1.0934,1.0934,1.0792,1.0717,1.0717,1.0717,1.0717,1.0717,1.0717,1.0717,0.0,0.0,0.0,0.9208,0.9442,0.9552,0.8552,0.9118,0.9754,0.9693,0.9646,0.9612,0.9612,0.9449,0.9313,0.9313,0.9144,0.9015,0.9015,0.8974,0.894,0.894,0.894,0.894,0.894,0.8852,0.8832,0.8933,0.8845,0.8832,0.8933,0.9809,1.0562,1.1109,1.2548,1.4145,1.5817,1.6251,1.6215,1.5831,1.6341,1.6513,1.642,1.6206,1.6233,1.6406,1.6005,1.5832,1.5832,1.5832,1.5832,1.5872,1.6273,1.6229,1.5821,1.5359,1.4635,1.3588,1.1755,1.0896,1.0401,0.9673,0.9483,0.9513,0.9042,0.9329,0.97,0.9079,0.9329,0.9822,0.9822,0.9822,0.9842,0.9944,1.0086,1.0236,1.0385,1.0534,1.0656,1.0711,1.0717,1.0717,1.0717,1.0717,1.0717,1.0717,1.0717,1.0717,1.0717,1.0717,1.0717,1.0717,1.0717,1.0717,1.0717,1.0812,1.0894,1.0948,1.1036,1.1111,1.1158,1.1111,1.1043,1.0948,1.0894,1.0819,1.0717,1.0717,1.0717,1.0717,1.0717,1.0717,1.1602,0.0,0.0,0.0,0.0,0.9867,0.9426,0.9486,0.9625,0.9673,0.9646,0.9612,0.9612,0.9361,0.915,0.915,0.9028,0.894,0.894,0.894,0.894,0.894,0.894,0.9044,0.9588,0.9595,0.9798,1.0343,1.0241,0.0,1.0343,1.115,1.1836,1.2191,1.4639,1.6289,1.7154,1.7248,1.7141,1.686,1.686,1.6754,1.6567,1.646,1.642,1.6406,1.6099,1.5925,1.5832,1.5832,1.5885,1.6005,1.6299,1.6295,1.6049,1.5383,1.4953,1.446,1.2593,1.1757,1.1272,1.0547,1.0023,0.97,0.9795,0.9822,0.9822,0.9822,0.9822,0.9836,0.9883,0.9897,0.9937,1.0093,1.0209,1.0331,1.0527,1.0649,1.0717,1.0717,1.0717,1.0717,1.0717,1.0717,1.0717,1.0717,1.0717,1.0717,1.0717,1.0717,1.0717,1.0717,1.0717,1.0717,1.0717,1.086,1.0968,1.1016,1.1158,1.126,1.1314,1.1267,1.1192,1.1097,1.1002,1.09,1.0799,1.0744,1.0717,1.0717,1.0717,1.0717,0.0,0.0,0.0,0.0,0.0,0.0,0.9801,0.0,0.9639,0.9788,0.97,0.9598,0.9605,0.9354,0.9144,0.9144,0.9028,0.894,0.894,0.894,0.894,0.894,0.894,0.9478,1.1,1.1109,1.1755,1.3156,1.3264,1.3264,1.3264,1.3062,1.3362,1.4581,1.6535,1.7448,1.7168,1.7435,1.7422,1.7128,1.7141,1.7244,1.7128,1.6834,1.67,1.6687,1.6393,1.6099,1.5832,1.5832,1.6005,1.6299,1.6593,1.6049,1.507,1.5329,1.4556,1.3511,1.3737,1.2843,1.1569,1.187,1.0994,0.9822,0.9822,0.9822,0.9822,0.9822,0.9822,0.9863,1.0019,1.0053,1.0093,1.0249,1.029,1.0365,1.0656,1.0717,1.0717,1.0717,1.0717,1.0717,1.0717,1.0717,1.0717,1.0717,1.0717,1.0717,1.0717,1.0717,1.0717,1.0717,1.0717,1.0724,1.0724,1.0867,1.1016,1.1158,1.1314,1.1463,1.1613,1.1477,1.1396,1.1389,1.1111,1.0955,1.0948,1.0799,1.0717,1.0717,1.0717,1.0717,1.2866,0.0,0.0,0.0,0.0,0.0,0.0,0.0,1.0186,1.0346,0.9806,0.9313,0.9422,0.9198,0.8994,0.8994,0.8967,0.894,0.894,0.894,0.894,0.894,0.9809,1.0672,1.1109,1.2082,1.2832,0.0,1.3264,1.3264,1.3264,1.4169,1.5282,1.6703,1.7279,1.7002,1.5952,1.6795,1.6587,1.5275,1.6315,1.6834,1.682,1.6526,1.6513,1.6687,1.6393,1.6099,1.5832,1.5832,1.6005,1.6299,1.6593,1.6685,1.6652,1.6937,1.6711,1.6324,1.5499,1.4298,1.2936,1.2212,1.0994,0.9822,0.9822,0.9822,0.9822,0.9822,0.9897,1.0019,1.0175,1.0134,1.0114,1.0371,1.0432,1.0487,1.0677,1.0717,1.0717,1.0717,1.0717,1.0717,1.0717,1.0717,1.0717,1.0717,1.0717,1.0717,1.0717,1.0717,1.0717,1.0717,1.0717,1.0765,1.0873,1.1016,1.1165,1.1321,1.147,1.1572,1.1619,1.1579,1.1504,1.1396,1.1307,1.1165,1.0948,1.0799,1.0717,1.0717,1.0717,1.0717,0.0,0.0,0.0,0.0,0.0,0.0,1.0747,1.0425,1.0281,0.0,0.9502,0.911,0.9259,0.9096,0.894,0.894,0.894,0.894,0.894,0.8988,0.9245,0.9906,1.0667,1.1652,1.2969,1.3748,1.4449,1.5091,1.5102,1.501,1.4687,1.5728,1.6609,1.7221,1.7448,1.7147,1.6287,1.6873,1.6638,1.5642,1.6469,1.682,1.67,1.666,1.666,1.67,1.6526,1.6353,1.6192,1.6192,1.6299,1.6486,1.678,1.7154,1.7542,1.7716,1.7849,1.7888,1.7398,1.5772,1.3884,1.3367,1.2113,1.0897,1.0239,1.05,1.111,1.111,1.1665,1.2266,1.2373,1.1823,1.1195,1.1449,1.1005,1.0534,1.0683,1.0717,1.0717,1.0717,1.0717,1.0717,1.0717,1.0717,1.0717,1.0717,1.0717,1.0717,1.0717,1.0717,1.0717,1.0717,1.0717,1.0778,1.0934,1.1084,1.1226,1.1382,1.1538,1.1619,1.1619,1.1619,1.1579,1.1491,1.1423,1.1246,1.0948,1.086,1.0785,1.0717,1.0717,1.0717,0.0,0.0,0.0,0.0,0.0,0.0,1.1069,1.0747,1.062,0.0,0.973,0.9439,0.9687,0.9475,0.9375,0.9375,0.9389,0.9389,0.9154,0.9286,1.0047,1.1604,1.1836,1.2942,1.5592,1.5815,1.6205,1.7477,1.7582,1.7355,1.6834,1.7301,1.7341,1.682,1.7315,1.7477,1.7371,1.7261,1.7114,1.6935,1.7074,1.6941,1.6767,1.6994,1.6981,1.6754,1.6754,1.674,1.6714,1.678,1.678,1.678,1.7048,1.7502,1.7996,1.8036,1.821,1.849,1.8811,1.693,1.4559,1.4891,1.407,1.2645,1.1232,1.1901,1.3152,1.3178,1.4279,1.5266,1.5317,1.4066,1.2716,1.2772,1.1667,1.0555,1.069,1.0717,1.0717,1.0717,1.0717,1.0724,1.0744,1.0744,1.0751,1.0765,1.0772,1.0765,1.0751,1.0744,1.0738,1.0724,1.0717,1.0785,1.0955,1.109,1.1233,1.1402,1.1545,1.1619,1.1619,1.1619,1.1619,1.1619,1.147,1.126,1.0995,1.0948,1.0853,1.0717,1.0717,1.0717,0.0,0.0,0.0,0.0,0.0,0.0,1.4282,1.3994,1.3778,0.0,1.3502,1.2774,1.271,1.254,1.2398,1.2073,1.243,1.2266,1.0907,1.0937,1.1604,1.3034,1.4532,1.5467,1.5822,1.6876,1.7528,1.7595,1.7582,1.7528,1.7422,1.7515,1.7528,1.7408,1.7528,1.7041,1.5849,1.642,1.6393,1.5451,1.616,1.666,1.7061,1.6874,1.6887,1.7061,1.7061,1.6927,1.674,1.7221,1.7275,1.7074,1.7128,1.7368,1.7702,1.7956,1.809,1.821,1.8744,1.7628,1.6195,1.6697,1.5771,1.4485,1.4452,1.4768,1.5047,1.509,1.5262,1.5222,1.4033,1.3354,1.2652,1.1417,1.0934,1.0683,1.0711,1.0717,1.0717,1.0717,1.0717,1.0758,1.088,1.0907,1.0941,1.1056,1.1077,1.1036,1.0921,1.0907,1.086,1.0731,1.0717,1.0833,1.1097,1.1145,1.128,1.1558,1.1606,1.1619,1.1619,1.1619,1.1619,1.1619,1.147,1.1362,1.1307,1.0941,1.0751,1.0717,1.0717,1.0717,0.0,0.0,0.0,1.4145,0.0,0.0,0.0,1.5043,1.5076,1.5066,1.4669,1.4168,1.3863,1.3661,1.3511,1.3406,1.3426,1.3535,1.3535,1.316,1.3477,1.5052,1.5954,1.6678,1.7353,1.776,1.7916,1.7609,1.7582,1.7515,1.7368,1.7502,1.7515,1.7368,1.7502,1.7252,1.6499,1.6832,1.6609,1.5884,1.6321,1.6567,1.6714,1.6714,1.6874,1.7154,1.7154,1.7141,1.7168,1.7462,1.7502,1.7382,1.7542,1.7782,1.8076,1.837,1.8571,1.8744,1.9038,1.7609,1.5568,1.6035,1.583,1.5155,1.4604,1.559,1.7003,1.7125,1.7622,1.7894,1.7374,1.5752,1.4107,1.3404,1.2025,1.0717,1.0717,1.0717,1.0717,1.0717,1.0778,1.086,1.0934,1.1009,1.1084,1.1151,1.1165,1.1138,1.1063,1.0995,1.0921,1.0846,1.0765,1.0839,1.1138,1.1165,1.1294,1.1599,1.1619,1.1619,1.1619,1.1619,1.1619,1.1619,1.147,1.1389,1.1389,1.109,1.0907,1.0833,1.0833,1.0833,0.0,0.0,0.0,0.0,0.0,1.5267,0.0,0.0,0.0,1.5731,1.5696,1.5636,1.5117,0.0,0.0,1.4786,0.0,0.0,0.0,1.5862,0.0,1.6774,1.6936,1.7439,1.8612,1.8247,1.7835,1.7689,1.7622,1.7475,1.7248,1.7395,1.7395,1.7257,1.7382,1.7475,1.7408,1.7181,1.6941,1.67,1.6647,1.6526,1.6366,1.666,1.6927,1.7154,1.7208,1.7368,1.7582,1.7582,1.7582,1.7609,1.7929,1.8196,1.845,1.8798,1.8836,1.8816,1.8868,1.6985,1.467,1.4941,1.5226,1.5337,1.4447,1.624,1.8569,1.8884,1.9903,2.0815,2.065,1.8359,1.5957,1.5485,1.3193,1.1108,1.0717,1.0717,1.0731,1.0758,1.0887,1.0989,1.0989,1.1111,1.1219,1.1246,1.1253,1.124,1.1212,1.1077,1.0982,1.0955,1.0812,1.0839,1.1138,1.1165,1.1294,1.1599,1.1619,1.1619,1.1619,1.1619,1.1619,1.1619,1.1497,1.1436,1.1436,1.128,1.1118,1.0948,1.0975,1.0975,0.0,0.0,0.0,0.0,1.6091,0.0,0.0,0.0,1.8482,1.9722,0.0,1.8964,0.0,0.0,0.0,0.0,0.0,0.0,1.8935,1.8837,1.8397,1.7611,1.7929,1.8197,1.8197,1.7895,1.7698,1.7888,1.7529,1.7371,1.7528,1.7315,1.7181,1.7154,1.7181,1.7074,1.6807,1.6767,1.674,1.67,1.6446,1.6433,1.666,1.6967,1.7114,1.7168,1.7422,1.7555,1.7582,1.7582,1.7582,1.7609,1.7929,1.8063,1.817,1.8718,1.8008,1.6887,1.7125,1.6138,1.4639,1.4882,1.5227,1.5805,1.7314,1.8034,1.8722,2.0384,2.0956,2.0676,1.9152,1.8489,1.744,1.4353,1.3325,1.2545,1.0982,1.0717,1.0758,1.0894,1.1036,1.1138,1.1138,1.1267,1.1409,1.1545,1.1565,1.1518,1.1382,1.1233,1.109,1.0962,1.0812,1.0839,1.1138,1.1165,1.1294,1.1599,1.1619,1.1619,1.1619,1.1619,1.1619,1.1619,1.1599,1.1592,1.1592,1.1443,1.1219,1.0955,1.1077,1.107,0.0,0.0,0.0,0.0,0.0,0.0,1.9192,0.0,1.9895,0.0,0.0,0.0,0.0,0.0,0.0,0.0,1.939,0.0,0.0,0.0,1.9184,0.0,0.0,0.0,1.8031,1.7899,1.7862,1.7796,1.7556,1.7477,1.7582,1.7315,1.7154,1.7154,1.6981,1.6834,1.67,1.67,1.662,1.646,1.6326,1.6339,1.646,1.6754,1.6981,1.7168,1.7462,1.7582,1.7582,1.7582,1.7582,1.7635,1.8116,1.7741,1.7006,1.7551,1.6809,1.5418,1.5515,1.4599,1.3204,1.3527,1.3729,1.4558,1.7406,1.8238,1.8674,2.0511,2.0335,1.9674,1.9941,1.8512,1.6818,1.6431,1.5524,1.4362,1.2545,1.215,1.1946,1.1049,1.1063,1.1192,1.128,1.1423,1.1545,1.1606,1.1619,1.1599,1.1531,1.1314,1.1138,1.1077,1.086,1.0839,1.1138,1.1165,1.1294,1.1599,1.1619,1.1619,1.1619,1.1619,1.1619,1.1619,1.1531,1.1531,1.1619,1.1463,1.1328,1.1206,1.1267,1.126,1.5671,0.0,0.0,0.0,0.0,0.0,0.0,0.0,0.0,0.0,0.0,0.0,0.0,0.0,0.0,0.0,0.0,1.9979,0.0,1.9776,0.0,0.0,0.0,0.0,0.0,1.8144,1.7943,1.7729,1.745,1.7397,1.7582,1.7154,1.6941,1.7021,1.674,1.658,1.658,1.666,1.6607,1.6393,1.6313,1.6313,1.6393,1.6607,1.6874,1.7168,1.7462,1.7582,1.7582,1.7582,1.7582,1.7649,1.825,1.7229,1.5569,1.6658,1.5666,1.3885,1.3885,1.2928,1.1518,1.1768,1.1896,1.279,1.6409,1.7508,1.7952,1.984,1.9419,1.864,1.9419,1.7859,1.6043,1.6947,1.6172,1.4754,1.2931,1.2545,1.2204,1.1184,1.1063,1.1212,1.1362,1.1518,1.1619,1.1619,1.1619,1.1619,1.1619,1.1355,1.1179,1.1219,1.0962,1.09,1.1199,1.1226,1.1341,1.1599,1.1619,1.1619,1.1619,1.1619,1.1619,1.1619,1.1511,1.1511,1.1619,1.1504,1.1457,1.1457,1.1457,1.143,0.0,0.0,0.0,1.746,0.0,0.0,0.0,0.0,2.0312,0.0,0.0,0.0,0.0,0.0,0.0,0.0,0.0,0.0,0.0,0.0,0.0,0.0,0.0,0.0,0.0,1.8347,1.8023,1.8036,1.7187,1.6977,1.7569,1.6767,1.6433,1.6714,1.6433,1.6286,1.6286,1.6567,1.67,1.6687,1.6406,1.642,1.6687,1.67,1.6874,1.7168,1.7462,1.7582,1.7582,1.7582,1.7582,1.7649,1.825,1.6546,1.4086,1.6181,1.4945,1.2337,1.2337,1.1261,0.9822,0.9943,0.995,1.0616,1.4394,1.5649,1.5992,1.7978,1.8512,1.8116,1.6431,1.5913,1.5524,1.384,1.3456,1.2931,1.1108,1.0717,1.0765,1.0921,1.1063,1.1212,1.1362,1.1518,1.1619,1.1619,1.1619,1.1619,1.1619,1.1355,1.1219,1.1369,1.1118,1.1063,1.1362,1.1382,1.145,1.1606,1.1619,1.1619,1.1619,1.1619,1.1619,1.1619,1.1613,1.1613,1.1619,1.1613,1.1613,1.1613,1.1613,1.1531,0.0,0.0,1.2516,1.5756,0.0,0.0,0.0,0.0,0.0,0.0,0.0,0.0,0.0,0.0,0.0,0.0,0.0,0.0,0.0,0.0,0.0,0.0,0.0,0.0,0.0,0.0,1.7634,1.7516,1.7173,1.7091,1.7288,1.6834,1.6513,1.642,1.6139,1.6072,1.6273,1.6366,1.642,1.642,1.6513,1.6513,1.6433,1.682,1.7048,1.7168,1.7462,1.7582,1.7582,1.7582,1.7582,1.753,1.7114,1.5625,1.3858,1.5014,1.3407,1.0664,1.0664,1.0301,0.9943,1.102,1.1374,1.2018,1.5671,1.6864,1.7314,1.8034,1.7479,1.6689,1.6043,1.5005,1.4362,1.4874,1.5005,1.4493,1.2808,1.3325,1.3901,1.2775,1.2814,1.298,1.3161,1.2215,1.1619,1.1619,1.2602,1.3031,1.1756,1.2552,1.2704,1.1523,1.1212,1.1172,1.1375,1.1484,1.1565,1.1613,1.1619,1.1619,1.1619,1.1619,1.1572,1.147,1.147,1.147,1.147,1.147,1.1518,1.1619,1.1619,1.1592,0.9131,0.9462,0.0,1.3746,1.4095,0.0,1.8011,0.0,0.0,0.0,0.0,0.0,0.0,0.0,0.0,0.0,0.0,0.0,0.0,2.1391,0.0,0.0,0.0,0.0,0.0,1.8151,1.7563,1.7226,1.7054,1.7052,0.0,1.6874,1.662,1.6433,1.6139,1.6126,1.642,1.6433,1.6526,1.674,1.682,1.682,1.6754,1.7021,1.7208,1.7315,1.7502,1.7649,1.7742,1.7622,1.7716,1.7835,1.6624,1.5219,1.3854,1.375,1.2097,0.9822,0.9822,1.0179,1.0778,1.1856,1.2569,1.3564,1.6549,1.7647,1.7796,1.7292,1.652,1.5654,1.4362,1.3193,1.2676,1.384,1.4101,1.3709,1.2676,1.3709,1.466,1.3609,1.357,1.3779,1.3897,1.2596,1.1619,1.1619,1.3167,1.3729,1.19,1.3154,1.348,1.1605,1.1335,1.1307,1.1457,1.1565,1.1619,1.1619,1.1619,1.1619,1.1619,1.1619,1.1599,1.1545,1.1497,1.1497,1.1545,1.1497,1.1525,1.1619,1.1619,1.1647]},{"header":{"parameterUnit":"m.s-1","parameterCategory":1,"la1":30.6,"la2":29.2853,"lo1":-89.7004,"lo2":-87.6739,"dy":0.0162,"dx":0.0183,"nx":112,"ny":82,"refTime":"2023-08-19T18:00:00:Z","depth":0,"parameterNumber":3,"parameterNumberName":"V-component_of_WINDS"},"data":[0.0,0.0,0.0,0.0,0.0,0.0,0.0,0.0,0.0,0.0,0.0,0.0,0.0,0.0,0.0,0.0,0.0,0.0,0.0,0.0,0.0,0.0,0.0,0.0,0.0,0.0,0.0,0.0,0.0,0.0,0.0,0.0,0.0,0.0,0.0,0.0,0.0,0.0,0.0,0.0,0.0,0.0,0.0,0.0,0.0,0.0,0.0,0.0,0.0,0.0,0.0,0.0,0.0,0.0,0.0,0.0,0.0,0.0,0.0,0.0,0.0,0.0,0.0,0.0,0.0,0.0,0.0,0.0,0.0,0.0,0.0,0.0,0.0,0.0,0.0,0.0,0.0,0.0,0.0,0.0,0.0,0.0,0.0,0.0,0.0,0.0,0.0,0.0,0.0,0.0,1.625,1.3272,0.759,0.1744,-0.3699,-0.2881,-0.049,0.3016,0.0,0.0,0.0,0.0,0.0,0.0,0.0,0.0,0.0,0.0,0.0,0.0,0.0,0.0,0.0,0.0,0.0,0.0,0.0,0.0,0.0,0.0,0.0,0.0,0.0,0.0,0.0,0.0,0.0,0.0,0.0,0.0,0.0,0.0,0.0,0.0,0.0,0.0,0.0,0.0,0.0,0.0,0.0,0.0,0.0,0.0,0.0,0.0,0.0,0.0,0.0,0.0,0.0,0.0,0.0,0.0,0.0,0.0,0.0,0.0,0.0,0.0,0.0,0.0,0.0,0.0,0.0,0.0,0.0,0.0,0.0,0.0,0.0,0.0,0.0,0.0,0.0,0.0,0.0,0.0,0.0,0.0,0.0,0.0,0.0,0.0,0.0,0.0,0.0,0.0,0.0,0.0,0.0,0.0,0.0,0.0,0.0,0.0,0.0,0.0,0.0,0.0,0.0,0.0,1.3695,0.6227,0.454,0.1811,-0.3528,-0.2826,-0.0289,0.377,0.0,0.0,0.0,0.0,0.0,0.0,0.0,0.0,0.0,0.0,0.0,0.0,0.0,0.0,0.0,0.0,0.0,0.0,0.0,0.0,0.0,0.0,0.0,0.0,0.0,0.0,0.0,0.0,0.0,0.0,0.0,0.0,0.0,0.0,0.0,0.0,0.0,0.0,0.0,0.0,0.0,0.0,0.0,0.0,0.0,0.0,0.0,0.0,0.0,0.0,0.0,0.0,0.0,0.0,0.0,0.0,0.0,0.0,0.0,0.0,0.0,0.0,0.0,0.0,0.0,0.0,0.0,0.0,0.0,0.0,0.0,0.0,0.0,0.0,0.0,0.0,0.0,0.0,0.0,0.0,0.0,0.0,0.0,0.0,0.0,0.0,0.0,0.0,0.0,0.0,0.0,0.0,0.0,0.0,0.0,0.0,0.0,0.0,0.0,0.0,0.0,0.0,0.0,1.6639,1.2059,0.5684,0.4395,0.2406,-0.1503,-0.1908,0.0096,0.5058,0.7509,0.0,0.0,0.0,0.0,0.0,0.0,0.0,0.0,0.0,0.0,0.0,0.0,0.0,0.0,0.0,0.0,0.0,0.0,0.0,0.0,0.0,0.0,0.0,0.0,0.0,0.0,0.0,0.0,0.0,0.0,0.0,0.0,0.0,0.0,0.0,0.0,0.0,0.0,0.0,0.0,0.0,0.0,0.0,0.0,0.0,0.0,0.0,0.0,0.0,0.0,0.0,0.0,0.0,0.0,0.0,0.0,0.0,0.0,0.0,0.0,0.0,0.0,0.0,0.0,0.0,0.0,0.0,0.0,0.0,0.0,0.0,0.0,0.0,0.0,0.0,0.0,0.0,0.0,0.0,0.0,0.0,0.0,0.0,0.0,0.0,0.0,0.0,0.0,0.0,0.0,0.0,0.0,0.0,0.0,0.0,0.0,0.0,0.0,0.0,0.0,0.0,0.0,1.4169,1.088,0.647,0.5122,0.341,0.0701,-0.0497,0.1132,0.6619,0.8645,0.0,0.0,0.0,0.0,0.0,0.0,0.0,0.0,0.0,0.0,0.0,0.0,0.0,0.0,0.0,0.0,0.0,0.0,0.0,0.0,0.0,0.0,0.0,0.0,0.0,0.0,0.0,0.0,0.0,0.0,0.0,0.0,0.0,0.0,0.0,0.0,0.0,0.0,0.0,0.0,0.0,0.0,0.0,0.0,0.0,0.0,0.0,0.0,0.0,0.0,0.0,0.0,0.0,0.0,0.0,0.0,0.0,0.0,0.0,0.0,0.0,0.0,0.0,0.0,0.0,0.0,0.0,0.0,0.0,0.0,0.0,0.0,0.0,0.0,0.0,0.0,0.0,0.0,0.0,0.0,0.0,0.0,0.0,0.0,0.0,0.0,0.0,0.0,0.0,0.0,0.0,0.0,0.0,0.0,0.0,0.0,0.0,0.0,0.0,0.0,0.0,0.0,1.3015,0.9894,0.6399,0.5927,0.4814,0.21,0.1549,0.3487,0.8464,0.987,0.0,0.0,0.0,0.0,0.0,0.0,0.0,0.0,0.0,0.0,0.0,0.0,0.0,0.0,0.0,0.0,0.0,0.0,0.0,0.0,0.0,0.0,0.0,0.0,0.0,0.0,0.0,0.0,0.0,0.0,0.0,0.0,0.0,0.0,0.0,0.0,0.0,0.0,0.0,0.0,0.0,0.0,0.0,0.0,0.0,0.0,0.0,0.0,0.0,0.0,0.0,0.0,0.0,0.0,0.0,0.0,0.0,0.0,0.0,0.0,0.0,0.0,0.0,0.0,0.0,0.0,0.0,0.0,0.0,0.0,0.0,0.0,0.0,0.0,0.0,0.0,0.0,0.0,0.0,0.0,0.0,0.0,0.0,0.0,0.0,0.0,0.0,0.0,0.0,0.0,0.0,0.0,0.0,0.0,0.0,0.0,0.0,0.0,0.0,0.0,0.0,0.0,1.3572,1.0772,0.0,0.7024,0.5622,0.461,0.4438,0.5986,0.9902,0.0,0.0,0.0,0.0,0.0,0.0,0.0,0.0,0.0,0.0,0.0,0.0,0.0,0.0,0.0,0.0,0.0,0.0,0.0,0.0,0.0,0.0,0.0,0.0,0.0,0.0,0.0,0.0,0.0,0.0,0.0,0.0,0.0,0.0,0.0,0.0,0.0,0.0,0.0,0.0,0.0,0.0,0.0,0.0,0.0,0.0,0.0,0.0,0.0,0.0,0.0,0.0,0.0,0.0,0.0,0.0,0.0,0.0,0.0,0.0,0.0,0.0,0.0,0.0,0.0,0.0,0.0,0.0,0.0,0.0,0.0,0.0,0.0,0.0,0.0,0.0,0.0,0.0,0.0,0.0,0.0,0.0,0.0,0.0,0.0,0.0,0.0,0.0,0.0,0.0,0.0,0.0,0.0,0.0,0.0,0.0,0.0,0.0,0.0,0.0,0.0,0.0,1.7378,1.4203,1.1806,0.0,0.8992,0.7905,0.7905,0.7744,0.8942,1.2052,0.0,0.0,0.0,0.0,0.0,0.0,0.0,0.0,0.0,0.0,0.0,0.0,0.0,0.0,0.0,0.0,0.0,0.0,0.0,0.0,0.0,0.0,0.0,0.0,0.0,0.0,0.0,0.0,0.0,0.0,0.0,0.0,0.0,0.0,0.0,0.0,0.0,0.0,0.0,0.0,0.0,0.0,0.0,0.0,0.0,0.0,0.0,0.0,0.0,0.0,0.0,0.0,0.0,0.0,0.0,0.0,0.0,0.0,0.0,0.0,0.0,0.0,0.0,0.0,0.0,0.0,0.0,0.0,0.0,0.0,0.0,0.0,0.0,0.0,0.0,0.0,0.0,0.0,0.0,0.0,0.0,0.0,0.0,0.0,0.0,0.0,0.0,0.0,0.0,0.0,0.0,0.0,0.0,0.0,0.0,0.0,0.0,0.0,0.0,0.0,0.0,0.0,1.7395,1.4761,1.2755,1.1996,1.195,1.195,1.195,1.1426,1.2307,0.0,0.0,0.0,0.0,0.0,0.0,0.0,0.0,0.0,0.0,0.0,0.0,0.0,0.0,0.0,0.0,0.0,0.0,0.0,0.0,0.0,0.0,0.0,0.0,0.0,0.0,0.0,0.0,0.0,0.0,0.0,0.0,0.0,0.0,0.0,0.0,0.0,0.0,0.0,0.0,0.0,0.0,0.0,0.0,0.0,0.0,0.0,0.0,0.0,0.0,0.0,0.0,0.0,0.0,0.0,0.0,0.0,0.0,0.0,0.0,0.0,0.0,0.0,0.0,0.0,0.0,0.0,0.0,0.0,0.0,0.0,0.0,0.0,0.0,0.0,0.0,0.0,0.0,0.0,0.0,0.0,0.0,0.0,0.0,0.0,0.0,0.0,0.0,0.0,0.0,0.0,0.0,0.0,0.0,0.0,0.0,0.0,0.0,0.0,0.0,0.0,0.0,0.0,1.871,1.6166,1.4217,1.3358,1.2425,1.195,1.195,1.2371,1.3656,1.5752,0.0,0.0,0.0,0.0,0.0,0.0,0.0,0.0,0.0,0.0,0.0,0.0,0.0,0.0,0.0,0.0,0.0,0.0,0.0,0.0,0.0,0.0,0.0,0.0,0.0,0.0,0.0,0.0,0.0,0.0,0.0,0.0,0.0,0.0,0.0,0.0,0.0,0.0,0.0,0.0,0.0,0.0,0.0,0.0,0.0,0.0,0.0,0.0,0.0,0.0,0.0,0.0,0.0,0.0,0.0,0.0,0.0,0.0,0.0,0.0,0.0,0.0,0.0,0.0,0.0,0.0,0.0,0.0,0.0,0.0,0.0,0.0,0.0,0.0,0.0,0.0,0.0,0.0,0.0,0.0,0.0,0.0,0.0,0.0,0.0,0.0,0.0,0.0,0.0,0.0,0.0,0.0,0.0,0.0,0.0,0.0,0.0,0.0,0.0,0.0,0.0,0.0,2.0101,1.8058,1.6521,1.6181,1.5455,1.4968,1.4968,1.5378,1.6138,1.7103,0.0,0.0,0.0,0.0,0.0,0.0,0.0,0.0,0.0,0.0,0.0,0.0,0.0,0.0,0.0,0.0,0.0,0.0,0.0,0.0,0.0,0.0,0.0,0.0,0.0,0.0,0.0,0.0,0.0,0.0,0.0,0.0,0.0,0.0,0.0,0.0,0.0,0.0,0.0,0.0,0.0,0.0,0.0,0.0,0.0,0.0,0.0,0.0,0.0,0.0,0.0,0.0,0.0,0.0,0.0,0.0,0.0,0.0,0.0,0.0,0.0,0.0,0.0,0.0,0.0,0.0,0.0,0.0,0.0,0.0,0.0,0.0,0.0,0.0,0.0,0.0,0.0,0.0,0.0,0.0,0.0,0.0,0.0,0.0,0.0,0.0,0.0,0.0,0.0,0.0,0.0,0.0,0.0,0.0,0.0,0.0,0.0,0.0,0.0,0.0,0.0,0.0,2.1494,2.0163,1.9279,1.9447,1.9497,1.9497,1.9497,1.9256,1.9041,1.8878,0.0,0.0,0.0,0.0,0.0,0.0,0.0,0.0,0.0,0.0,0.0,0.0,0.0,0.0,0.0,0.0,0.0,0.0,0.0,0.0,0.0,0.0,0.0,0.0,0.0,0.0,0.0,0.0,0.0,0.0,0.0,0.0,0.0,0.0,0.0,0.0,0.0,0.0,0.0,0.0,0.0,0.0,0.0,0.0,0.0,0.0,0.0,0.0,0.0,0.0,0.0,0.0,0.0,0.0,0.0,0.0,0.0,0.0,0.0,0.0,3.2481,3.154,0.0,0.0,0.0,0.0,0.0,0.0,0.0,0.0,0.0,0.0,0.0,0.0,0.0,0.0,0.0,0.0,0.0,0.0,0.0,0.0,0.0,0.0,0.0,0.0,0.0,0.0,0.0,0.0,0.0,0.0,0.0,0.0,0.0,0.0,0.0,0.0,0.0,0.0,0.0,0.0,2.2539,2.1244,2.0166,1.9538,1.9497,1.9497,1.9497,1.9256,1.9349,1.9877,1.9826,0.0,0.0,0.0,0.0,0.0,0.0,0.0,0.0,0.0,0.0,0.0,0.0,0.0,0.0,0.0,0.0,0.0,0.0,0.0,0.0,0.0,0.0,0.0,0.0,0.0,0.0,0.0,0.0,0.0,0.0,0.0,0.0,0.0,0.0,0.0,0.0,0.0,0.0,0.0,0.0,0.0,0.0,0.0,0.0,0.0,0.0,0.0,0.0,0.0,0.0,0.0,0.0,0.0,0.0,0.0,0.0,0.0,0.0,0.0,3.4986,3.3882,0.0,0.0,0.0,0.0,0.0,0.0,0.0,0.0,0.0,0.0,0.0,0.0,0.0,0.0,0.0,0.0,0.0,0.0,0.0,0.0,0.0,0.0,0.0,0.0,0.0,0.0,0.0,0.0,0.0,0.0,0.0,0.0,0.0,0.0,0.0,0.0,0.0,0.0,0.0,0.0,2.3816,2.3063,2.2274,2.1284,2.123,2.123,2.123,2.1121,2.0948,2.0743,2.0886,0.0,0.0,0.0,0.0,0.0,0.0,0.0,0.0,0.0,0.0,0.0,0.0,0.0,0.0,0.0,0.0,0.0,0.0,0.0,0.0,0.0,0.0,0.0,0.0,0.0,0.0,0.0,0.0,0.0,0.0,0.0,0.0,0.0,0.0,0.0,0.0,0.0,0.0,0.0,0.0,0.0,0.0,0.0,0.0,0.0,0.0,0.0,0.0,0.0,0.0,0.0,0.0,0.0,4.1945,4.1906,4.0985,4.2985,4.3026,4.1113,3.8398,3.7258,3.7168,3.5729,0.0,0.0,0.0,0.0,0.0,0.0,0.0,0.0,0.0,0.0,0.0,0.0,0.0,0.0,0.0,0.0,0.0,0.0,0.0,0.0,0.0,0.0,0.0,0.0,3.4123,3.3607,3.0719,0.0,0.0,0.0,0.0,0.0,0.0,0.0,0.0,0.0,0.0,0.0,2.5401,2.5128,2.4702,2.38,2.3567,2.3527,2.3527,2.3527,2.3028,2.195,2.2393,2.2186,0.0,0.0,0.0,0.0,0.0,0.0,0.0,0.0,0.0,0.0,0.0,0.0,0.0,0.0,0.0,0.0,0.0,0.0,0.0,0.0,0.0,0.0,0.0,0.0,0.0,0.0,0.0,0.0,0.0,0.0,0.0,0.0,3.4535,3.5554,0.0,0.0,0.0,0.0,0.0,0.0,0.0,0.0,0.0,0.0,0.0,0.0,0.0,4.1105,4.1251,4.3342,4.4219,4.3975,4.6106,4.6293,4.4844,4.6106,4.6051,4.4829,4.4853,0.0,3.8421,3.7723,0.0,0.0,0.0,0.0,0.0,0.0,0.0,0.0,0.0,0.0,0.0,0.0,0.0,0.0,0.0,0.0,0.0,0.0,0.0,0.0,0.0,0.0,3.6081,3.5735,3.5251,3.4739,0.0,3.3451,3.3339,3.3991,3.3847,0.0,0.0,0.0,0.0,0.0,0.0,0.0,2.7468,2.6703,2.6235,2.6069,2.559,2.5245,2.5245,2.5245,2.5062,2.4547,2.378,2.3646,2.4138,2.3079,0.0,0.0,0.0,0.0,0.0,0.0,0.0,0.0,0.0,0.0,0.0,0.0,0.0,0.0,0.0,0.0,0.0,0.0,0.0,0.0,0.0,0.0,0.0,0.0,0.0,0.0,0.0,0.0,0.0,3.5951,3.671,3.6213,3.7272,3.7635,0.0,0.0,0.0,0.0,0.0,0.0,0.0,0.0,0.0,4.2538,4.34,4.4356,4.5331,4.6432,4.7127,4.7584,4.8752,4.8849,4.8056,4.9075,4.8574,4.7008,4.6825,4.4941,4.1834,4.118,4.0631,4.0068,0.0,0.0,0.0,0.0,3.8346,3.8587,3.8283,3.7895,3.7703,3.8159,0.0,0.0,0.0,0.0,0.0,0.0,0.0,0.0,0.0,0.0,3.7143,3.6832,3.6586,3.6329,3.6241,3.5937,3.5414,0.0,3.4103,3.4065,3.4577,0.0,0.0,0.0,0.0,2.971,2.8725,2.7621,2.6703,2.6057,2.5529,2.5138,2.5138,2.5138,2.5016,2.4623,2.4459,2.4303,2.4205,2.4604,2.5958,0.0,0.0,0.0,0.0,0.0,0.0,0.0,0.0,0.0,0.0,0.0,0.0,0.0,0.0,0.0,0.0,0.0,0.0,0.0,0.0,0.0,0.0,0.0,0.0,0.0,0.0,0.0,0.0,3.8256,3.9476,3.7629,4.0076,4.094,0.0,0.0,0.0,0.0,0.0,0.0,4.2386,4.306,4.418,4.5941,4.6549,4.7494,4.8814,4.8894,4.9446,5.0278,5.0581,5.0551,5.0348,5.0935,5.0248,4.869,4.805,4.6907,4.5514,4.3995,4.3223,4.2763,4.127,4.1179,4.1842,4.1091,4.1186,4.1488,4.1198,4.0801,4.0604,4.0739,4.1186,4.14,4.0124,0.0,0.0,0.0,0.0,3.8933,3.7858,3.7519,3.7361,3.7375,3.7285,3.7225,3.7375,3.7285,3.673,0.0,3.468,3.4773,3.4958,0.0,0.0,0.0,0.0,3.1341,3.023,2.8925,2.7762,2.6941,2.6016,2.5417,2.5417,2.5417,2.5385,2.5289,2.5721,2.5669,2.4978,2.6277,2.7162,2.7553,0.0,0.0,0.0,0.0,0.0,0.0,0.0,0.0,0.0,0.0,0.0,0.0,0.0,0.0,0.0,0.0,0.0,0.0,0.0,0.0,0.0,0.0,0.0,0.0,0.0,0.0,0.0,0.0,0.0,4.1392,4.3371,0.0,0.0,0.0,0.0,4.1558,4.2585,4.3916,4.5654,4.6569,4.7641,4.9015,4.9642,5.0,5.012,5.0747,5.1105,5.1165,5.1792,5.1762,5.1165,5.1135,5.0777,5.009,4.9463,4.9134,4.8713,4.5016,4.3314,4.3081,4.2596,4.269,4.296,4.264,4.2507,4.2366,4.1215,4.0503,4.029,4.1417,4.2367,4.3076,4.2773,4.2084,0.0,0.0,3.9464,3.8728,3.7721,3.6985,3.6686,3.7285,3.6956,3.6686,3.7285,3.706,3.6676,0.0,3.635,3.6207,3.5748,0.0,3.4684,3.4321,3.3779,3.3157,3.2538,3.1173,3.0204,3.0131,2.8354,2.7176,2.7176,2.7176,2.748,2.8281,2.846,2.85,2.8325,2.7597,2.7633,2.8729,2.915,0.0,0.0,0.0,0.0,0.0,0.0,0.0,0.0,0.0,0.0,0.0,0.0,0.0,0.0,0.0,0.0,0.0,0.0,0.0,0.0,0.0,0.0,0.0,0.0,0.0,0.0,0.0,0.0,4.4074,4.6254,0.0,4.4556,4.4047,4.3907,4.4065,4.4803,4.5848,4.7402,4.7399,4.7908,4.9224,4.9075,4.9583,5.084,5.0272,5.0391,5.1199,5.0601,5.0182,4.9942,4.9523,4.9194,4.8955,4.8297,4.7997,4.788,4.6549,4.6137,4.6403,4.5841,4.5743,4.5764,4.5687,4.5339,4.4955,4.4498,4.3889,4.3445,4.3478,4.2832,4.2017,4.1942,4.1083,4.007,3.9685,3.9143,3.8542,3.8162,3.7255,3.6537,3.6776,3.6327,3.5908,3.6148,3.6394,3.6592,3.656,3.6213,3.6009,3.622,3.5693,3.5347,3.5696,3.467,3.3739,3.3533,3.1806,3.0677,3.0677,2.9322,2.8358,2.8358,2.8358,2.849,2.879,2.9161,2.9384,2.9342,2.9082,2.9022,2.9451,2.9323,3.074,0.0,0.0,0.0,0.0,0.0,0.0,0.0,0.0,0.0,0.0,0.0,0.0,0.0,0.0,0.0,0.0,0.0,0.0,0.0,0.0,0.0,0.0,0.0,0.0,0.0,0.0,4.7156,4.5484,4.7848,4.8655,4.607,4.5927,4.5963,4.5963,4.6591,4.7369,4.8237,4.8087,4.8356,4.9224,4.8835,4.9254,5.0541,4.9703,4.9703,5.0541,4.9673,4.9254,4.9254,4.8596,4.8297,4.8237,4.7654,4.7552,4.7789,4.7668,4.8018,4.8546,4.7628,4.7309,4.7279,4.707,4.6711,4.6262,4.6169,4.5647,4.5061,4.4678,4.37,4.2567,4.2322,4.1495,4.0546,4.0331,3.978,3.9137,3.8678,3.7912,3.7208,3.6963,3.6595,3.6258,3.6258,3.6626,3.6969,3.6997,3.6631,3.6371,3.6516,3.6182,3.6058,3.6556,3.5452,3.4601,3.494,3.2835,3.1264,3.1264,2.9914,2.9002,2.9002,2.9553,2.9736,2.947,3.0524,3.0918,3.0238,3.0993,3.1302,3.1208,3.1061,3.2374,3.5143,0.0,0.0,0.0,0.0,0.0,0.0,0.0,0.0,0.0,0.0,0.0,0.0,0.0,0.0,0.0,0.0,0.0,0.0,0.0,0.0,0.0,0.0,0.0,4.4248,4.6569,4.7955,4.58,4.8325,4.9284,4.6736,4.7036,4.7426,4.7426,4.7995,4.8355,4.8297,4.8954,4.9284,4.9284,4.9284,4.9374,4.9404,4.9374,4.9374,4.9404,4.9374,4.9374,4.9344,4.8625,4.8325,4.8353,4.7916,4.819,4.8767,4.8301,4.8595,4.9146,4.7851,4.7336,4.716,4.6531,4.6262,4.619,4.5817,4.5277,4.4775,4.4992,4.5016,4.4857,4.4154,4.3451,4.2748,4.2012,4.131,4.0543,3.917,3.8786,3.8595,3.7982,3.7822,3.7822,3.7822,3.7822,3.7822,3.7822,3.7739,3.7437,3.6785,3.6661,3.6724,3.7018,3.6205,0.0,3.6888,3.4238,3.2362,3.2362,3.0482,2.9247,2.9212,3.0729,3.1282,3.0416,3.2566,3.3035,3.131,3.3404,3.4405,3.3926,3.4334,3.5142,3.6437,0.0,0.0,0.0,0.0,0.0,0.0,0.0,0.0,0.0,0.0,0.0,0.0,0.0,0.0,0.0,0.0,0.0,0.0,0.0,0.0,0.0,0.0,4.7993,4.6893,4.9472,5.119,5.0479,5.1183,5.1466,5.0712,5.0367,4.9965,4.9166,4.8806,4.856,4.8355,4.8718,4.8929,4.8929,4.9727,5.0353,5.0775,5.0353,5.0353,5.0775,5.0353,5.0133,5.0102,4.9913,4.985,4.9787,4.911,4.898,4.9106,4.8413,4.8233,4.8424,4.8009,4.748,4.6873,4.6689,4.5935,4.4955,4.4476,4.4216,4.4224,4.4309,4.3642,4.2714,4.2523,4.1598,4.0671,4.0417,3.9875,3.9297,3.8914,3.8435,3.8046,3.7854,3.7822,3.7822,3.7822,3.7822,3.7994,3.8469,3.8544,3.8327,3.7589,3.744,3.7535,3.7547,3.7361,0.0,3.6794,3.6021,3.5471,3.5385,3.4895,3.4386,3.3758,3.4176,3.3948,3.2692,3.3284,3.3654,3.3724,3.4341,3.4623,3.4503,3.6317,3.7206,0.0,0.0,0.0,0.0,0.0,0.0,0.0,0.0,0.0,0.0,0.0,0.0,0.0,0.0,0.0,0.0,0.0,0.0,0.0,0.0,0.0,0.0,4.9922,5.0817,5.0747,5.1469,5.2125,5.2333,5.2109,5.1949,5.1949,5.1342,5.0691,5.0133,4.9676,4.9403,4.918,4.9353,4.9456,4.9456,5.0087,5.0589,5.1005,5.0621,5.0621,5.1005,5.0589,5.0397,5.0397,5.0397,5.0237,4.9917,4.9586,4.9483,4.9418,4.8735,4.8646,0.0,0.0,0.0,0.0,0.0,4.5771,4.4777,4.4541,4.4513,4.4528,4.433,4.3702,4.2916,4.2234,4.154,4.0787,4.0435,4.0132,3.9738,3.9411,3.9051,3.8778,3.8778,3.8778,3.8778,3.8778,3.8778,3.8887,3.9315,3.9368,0.0,3.8832,3.8469,3.8286,3.838,3.7815,3.7342,3.7327,3.6781,3.6318,3.6206,3.6318,3.6119,3.5697,3.631,0.0,0.0,0.0,3.5605,3.5734,3.6185,0.0,0.0,0.0,3.8758,3.8489,0.0,0.0,0.0,4.0899,4.1076,0.0,0.0,0.0,0.0,0.0,0.0,0.0,0.0,0.0,0.0,0.0,0.0,0.0,0.0,0.0,0.0,5.3146,5.4634,5.4702,5.2935,5.1862,5.2363,5.1913,5.1637,5.1637,5.1089,5.0703,5.055,5.055,5.055,5.0397,0.0,0.0,0.0,0.0,5.0703,5.0703,5.0703,5.0703,5.0703,5.0703,5.0703,5.0703,5.0639,5.0252,4.965,4.9698,4.9717,4.9686,4.9244,4.9323,4.9708,4.8464,4.7901,4.7741,4.6358,4.5533,4.5034,4.5211,0.0,0.0,4.463,4.4384,4.4045,4.2625,4.2117,4.1914,4.1271,4.1068,4.0933,4.0257,4.0087,4.0087,4.0087,4.0087,4.0087,4.0087,4.0087,4.0087,4.0087,4.0087,4.0087,4.0087,3.9506,3.9139,3.9349,3.806,3.739,3.8196,3.7058,3.6206,3.6152,0.0,0.0,3.6152,3.7491,3.7351,3.4941,3.6907,3.7818,3.7145,3.8154,3.8507,3.8137,3.9228,3.9725,3.9624,3.9867,4.0596,4.1662,4.1915,4.173,0.0,0.0,0.0,0.0,0.0,0.0,0.0,0.0,0.0,0.0,0.0,0.0,0.0,0.0,0.0,5.2707,5.3923,5.4803,5.5412,5.4085,5.3138,5.3271,5.3171,5.3104,5.3104,5.297,5.2557,5.1704,5.1631,5.1229,5.0397,5.1155,5.1631,5.1631,5.2487,5.287,5.287,5.287,5.287,5.287,0.0,0.0,5.287,5.2234,5.1832,5.1631,5.0522,5.0015,4.9947,4.9294,4.8748,4.8219,4.7242,4.6814,4.6616,4.5002,4.4395,4.4458,4.4516,4.461,4.4653,4.3888,4.3234,4.2557,4.1677,4.1001,0.0,4.0324,4.029,4.0257,4.0121,4.0087,4.0087,4.0087,4.0087,4.0087,4.0087,4.0087,4.0087,4.0087,4.0087,4.0087,4.0087,3.9952,3.9884,3.9915,3.9662,3.9293,3.8908,3.9059,3.9209,3.9105,3.9621,3.9475,3.8253,3.8493,3.7768,3.5527,3.6488,3.7028,3.6894,3.7648,3.797,3.7624,3.9055,3.9371,3.8602,4.051,4.1223,4.0884,4.1508,4.177,0.0,0.0,0.0,0.0,0.0,0.0,0.0,0.0,0.0,0.0,0.0,4.8703,0.0,0.0,5.3043,5.4837,5.4837,5.4871,5.5615,5.4431,5.3518,5.3518,5.3518,5.3348,5.2942,5.2909,5.2674,5.2129,5.2129,5.2054,5.1921,5.2416,5.2697,5.2697,5.3179,5.3518,5.3518,5.3518,5.3315,5.2909,5.2909,5.2706,5.2334,5.1928,5.1555,5.115,5.0405,4.9898,4.9526,4.9154,4.8578,4.7868,4.7301,4.6925,4.6557,4.5722,4.5251,4.4923,4.4556,4.4246,4.3876,4.3098,4.2354,4.161,4.0865,4.0392,4.0087,4.0087,4.0087,4.0087,4.0087,4.0269,4.048,4.048,4.072,4.0955,4.0955,4.0955,4.0955,4.0955,4.0955,4.0955,4.0955,4.0955,4.0767,4.0154,4.0012,3.9734,3.9088,3.9005,3.9005,3.8906,3.9244,3.916,3.8369,3.8212,3.7853,3.7131,3.6997,3.7136,3.7517,3.7517,3.7644,3.7901,3.8671,3.9135,3.9256,4.0828,4.1558,4.1465,4.2296,4.2346,0.0,0.0,0.0,0.0,0.0,0.0,0.0,0.0,4.8189,4.9756,5.0566,5.1501,5.3031,5.3853,5.4805,5.6325,5.5581,5.5041,5.562,5.4398,5.3513,5.3676,5.3447,5.2976,5.2164,5.2097,5.2097,5.2097,5.2097,5.2435,5.3213,5.3281,5.3348,5.3518,5.3348,5.3281,5.3281,5.3145,5.2806,5.2323,5.2128,5.1888,5.1595,5.1332,5.0958,5.053,5.0359,4.9983,4.9402,4.9206,4.8728,4.8036,4.7969,4.7389,4.6681,4.6681,4.6237,4.5521,4.4961,4.4156,4.3405,4.2654,4.1972,4.1408,4.0656,4.0417,4.0417,4.0417,4.0417,4.0417,4.0417,4.0767,4.107,4.107,4.1464,4.181,4.181,4.181,4.181,4.181,4.181,4.181,4.181,4.1895,4.1639,4.0611,4.0296,4.0019,3.9576,3.9016,3.8675,3.8675,3.8538,3.8286,3.7979,3.7638,3.7617,3.8069,3.7461,3.7238,3.7556,3.7273,3.7421,3.7957,3.8315,3.8936,3.9878,4.0854,4.1577,4.2103,4.2873,4.2887,4.6813,4.7262,4.8675,5.1129,5.1544,5.2108,0.0,0.0,5.5304,5.5834,5.6062,5.5943,5.545,5.5919,5.6292,5.5919,5.5683,5.5621,5.5671,5.4385,5.3662,5.4301,5.3232,5.2131,5.142,5.1352,5.1352,5.1352,5.1352,5.1657,5.2401,5.2435,5.2773,5.3484,5.2807,5.2435,5.2435,5.1792,5.177,5.2278,5.1605,5.1939,5.3057,5.1801,5.1511,5.195,5.1246,5.0947,5.0841,5.0083,4.9379,4.869,4.862,4.7738,4.6456,4.6456,4.5963,4.5211,4.5188,4.4613,4.3792,4.3065,4.2793,4.2581,4.1807,4.1639,4.1639,4.1639,4.1639,4.1639,4.1639,4.1682,4.1725,4.1725,4.1768,4.181,4.181,4.181,4.181,4.181,4.181,4.181,4.181,4.2262,4.2382,4.1725,4.1611,4.1541,4.1498,4.1427,4.1392,4.1392,4.0715,3.9722,3.835,3.7619,3.6955,3.6244,3.6816,3.6534,3.5154,3.6427,3.7075,3.6856,3.8293,3.8969,3.8852,4.039,4.1156,4.1258,4.2066,4.2732,5.0104,5.0628,5.1395,0.0,5.3017,5.3713,5.5472,5.5794,5.6204,5.7938,5.7869,5.7524,5.7672,5.7187,5.6697,0.0,5.5615,5.5179,5.5657,5.4752,5.4017,5.3879,5.3707,5.3038,5.1356,5.0793,5.0574,5.0574,5.0574,5.0879,5.1623,5.1657,5.1826,5.2164,5.186,5.1915,5.2289,5.1981,5.1993,5.2257,5.1917,5.1843,5.1989,5.1403,5.1262,5.1546,5.0767,5.0362,5.0378,4.9548,4.877,4.8112,4.8449,4.7957,4.7026,4.7039,4.6578,4.5835,4.5375,4.4703,4.3925,4.3147,4.2581,4.22,4.1881,4.181,4.181,4.181,4.181,4.181,4.181,4.2062,4.2342,4.2342,4.258,4.2772,4.2772,4.2772,4.2772,4.2772,4.2772,4.2772,4.2772,4.2995,4.3069,4.281,4.2541,4.2221,4.1853,4.1463,4.0825,3.9939,3.912,3.8376,3.7739,3.7611,3.747,3.7077,3.7246,3.7272,3.7054,3.7235,3.7515,3.7858,3.8547,3.8793,3.8689,3.9863,4.0414,4.0414,4.1699,4.247,5.2954,0.0,0.0,5.3976,5.4919,5.5848,5.6428,5.6969,5.7854,5.9559,5.9425,5.9102,5.9404,5.8393,5.7326,5.6917,5.579,5.511,5.5598,5.5053,5.4466,5.4366,5.4456,5.3975,5.2277,5.1114,5.0509,5.0714,5.0125,5.0202,5.1183,5.1014,5.1044,5.1469,5.1298,5.1535,5.23,5.2091,5.2067,5.2145,5.1988,5.1809,5.1679,5.1679,5.1571,5.1321,5.0748,5.0342,5.0092,4.9269,4.8626,4.8136,4.8403,4.814,4.7627,4.777,4.7124,4.6123,4.5336,4.455,4.3835,4.3227,4.2731,4.2266,4.2266,4.2266,4.2266,4.2266,4.2266,4.2266,4.2266,4.258,4.292,4.292,4.3214,4.3497,4.3497,4.3497,4.3497,4.3497,4.3497,4.3497,4.3497,4.3497,4.3497,4.3497,4.3178,4.277,4.2306,4.1626,4.0623,3.9297,3.8438,3.7864,3.7614,3.7929,3.8059,3.7772,3.7838,3.7881,3.8028,3.7881,3.7991,3.8358,3.8579,3.8689,3.8689,3.9276,3.968,3.9937,4.1111,4.1882,0.0,0.0,5.4755,5.6852,5.852,5.9844,6.0184,6.1435,6.2369,6.1642,6.1512,6.125,6.0519,5.9604,5.8524,5.7136,5.6235,5.5687,5.5683,5.503,5.5027,5.6483,5.5461,5.4567,0.0,5.2533,5.1581,5.231,5.0291,4.9661,5.115,5.0507,5.0782,5.226,5.1568,5.1499,5.2183,5.1494,5.1465,5.2101,5.1429,5.1861,5.3146,5.3146,5.2742,5.1972,5.1935,5.1495,5.0725,4.9918,4.9551,4.9441,4.8634,4.8267,4.8267,4.8304,4.7277,4.581,4.5003,4.4196,4.3499,4.3499,4.3463,4.3463,4.3463,4.3463,4.3463,4.3463,4.3463,4.3463,4.3463,4.3463,4.3497,4.3497,4.3497,4.3497,4.3497,4.3497,4.3497,4.3497,4.3497,4.3497,4.3497,4.3497,4.3497,4.3497,4.3497,4.3497,4.3463,4.2766,4.1959,4.1115,4.0308,3.9502,3.8731,3.8658,3.8328,3.7551,3.8248,3.7991,3.645,3.7845,3.8322,3.7581,3.8285,3.8689,3.8689,3.8726,3.9129,3.99,3.9937,4.0818,5.4656,0.0,5.7314,5.8497,5.9177,5.9741,6.0411,6.072,6.0929,6.1228,5.987,5.8481,5.8125,5.705,5.6,5.5449,5.5539,5.5894,5.6438,5.6259,5.6248,5.6768,5.6822,0.0,0.0,0.0,0.0,5.3112,5.2432,5.1983,5.1961,5.1682,5.1549,5.1525,5.1243,5.1423,5.2135,5.1884,5.2112,5.2813,5.209,5.1923,5.238,5.1867,5.1463,5.1169,5.0618,5.0251,4.9921,4.9077,4.8416,4.7976,4.8233,4.7976,4.7498,4.7498,4.7168,4.6581,4.5773,4.4966,4.4195,4.3644,4.3497,4.3497,4.3497,4.3497,4.3497,4.3497,4.3497,4.3497,4.3497,4.3497,4.3497,4.3497,4.3497,4.3497,4.3497,4.366,4.3818,4.3818,4.4065,4.4242,4.4242,4.4242,4.4242,4.4242,4.3823,4.3497,4.3497,4.28,4.1992,4.1185,4.0377,3.957,3.8762,3.8689,3.8579,3.8322,3.8542,3.8469,3.7918,3.8395,3.8663,3.8581,3.8841,3.9063,3.9301,3.9301,3.9451,3.9724,4.0039,4.0886,5.5473,5.7004,5.8486,5.9393,5.9853,6.0165,6.0521,6.0567,6.0706,6.1023,5.9324,5.7684,5.7473,5.6371,5.5274,5.445,5.5133,5.5845,5.6082,5.6364,5.6757,5.7217,5.7703,5.7813,0.0,0.0,0.0,5.4759,5.3958,5.337,5.3158,5.2626,5.2199,5.1872,5.1586,5.1825,5.2509,5.2472,5.2579,5.2784,5.2527,5.2123,5.1573,5.1316,5.0912,5.0325,4.9811,4.9487,4.927,4.8458,4.8013,4.7967,4.819,4.8153,4.793,4.7633,4.7336,4.6897,4.5844,4.5149,4.4562,4.3754,4.3497,4.3497,4.3497,4.3497,4.3497,4.3497,4.3497,4.3497,4.3497,4.3497,4.3532,4.3664,4.366,4.3726,4.3886,4.4065,4.4204,4.4204,4.4401,4.4599,4.4599,4.4599,4.4599,4.4599,4.4213,4.3855,4.3693,4.2959,4.212,4.1185,4.0467,3.9718,3.8762,3.8689,3.875,3.8826,3.8826,3.8884,3.9027,3.9027,3.9276,3.9738,3.9439,3.969,4.0509,3.9882,3.992,4.0509,4.049,4.1229,5.7123,5.7963,5.8462,5.9759,6.0628,6.1119,6.0698,6.1163,6.1582,6.0998,5.9769,5.8609,0.0,0.0,5.6261,5.4164,5.508,5.5812,5.4991,5.5595,5.6624,0.0,0.0,0.0,0.0,0.0,0.0,5.7015,0.0,5.4029,5.4614,5.3265,5.2707,5.3279,5.2557,5.2509,5.3188,5.3225,5.2821,5.205,5.2826,5.2348,5.0842,5.1618,5.1066,4.9559,4.9559,4.9307,4.8874,4.8096,4.8428,4.9315,4.8532,4.872,4.9277,4.8494,4.773,4.6826,4.5308,4.4743,4.4595,4.3752,4.3566,4.3529,4.3529,4.3529,4.3529,4.3529,4.3529,4.3529,4.3529,4.3529,4.3631,4.3974,4.4028,4.4117,4.4546,4.4624,4.465,4.465,4.465,4.4676,4.4676,4.4676,4.4676,4.4676,4.465,4.4455,4.4087,4.3319,4.2419,4.1282,4.0733,3.9965,3.8854,3.875,3.8826,3.908,3.9107,3.9264,3.958,3.9656,4.0056,4.0858,4.0079,4.0495,4.2092,4.048,4.0556,4.2129,4.135,4.1841,5.635,5.7513,5.8738,5.9611,5.9976,6.0239,6.0623,6.0657,6.0121,5.8716,5.6899,5.5313,0.0,0.0,0.0,5.4548,5.6694,0.0,5.7261,5.7894,0.0,5.8033,0.0,5.7997,5.7997,5.7997,0.0,0.0,5.7182,5.6394,5.5374,5.4974,5.4301,5.3266,5.3047,5.298,5.3225,5.3225,5.3115,5.2894,5.2784,5.2197,5.1158,5.1136,5.0515,4.9508,4.9508,4.9459,4.9356,4.91,4.8512,4.773,4.8787,4.856,4.7692,4.8042,4.8079,4.7674,4.6044,4.5123,4.4533,4.4048,4.4095,4.4233,4.3974,4.4095,4.4327,4.4327,4.4327,4.4327,4.4327,4.4327,4.4355,4.4401,4.4428,4.4493,4.4599,4.48,4.4966,4.4966,4.518,4.5361,4.5361,4.5361,4.5361,4.5361,4.512,4.4849,4.4482,4.3713,4.2833,4.1927,4.1154,4.0353,3.9452,3.9377,3.9402,3.9462,3.9462,3.951,3.9618,4.0207,4.0511,4.0324,4.0667,4.1187,4.1875,4.1453,4.1798,4.2833,4.239,4.283,5.6523,5.7648,5.879,5.9163,5.9226,5.9181,5.9244,5.9011,5.8362,5.6828,5.5331,0.0,5.2831,5.3599,0.0,0.0,0.0,0.0,5.725,5.8097,5.8603,0.0,5.7997,0.0,5.7997,5.7997,5.7997,0.0,5.7997,5.7446,5.6198,5.5794,5.5023,5.3775,5.3408,5.3225,5.3225,5.3225,5.313,5.2929,5.2679,5.2039,5.1082,5.0885,5.0296,4.9504,0.0,4.9589,4.9754,4.9349,4.896,4.8691,4.9238,4.9148,4.8577,4.8248,4.84,4.8476,4.6839,4.6001,4.546,4.4541,4.4401,4.4572,4.4318,4.4401,4.4599,4.4599,4.4599,4.4599,4.4599,4.4599,4.465,4.48,4.4825,4.4872,4.5011,4.5201,4.5303,4.5303,4.5457,4.5586,4.5586,4.5586,4.5586,4.5586,4.5438,4.5243,4.5055,4.4478,4.3577,4.2221,4.2115,4.148,3.9754,3.9943,4.0065,3.9835,3.9819,3.9882,4.0004,4.0842,4.1341,4.1435,4.1857,4.2542,4.347,4.2739,4.3008,4.4162,4.3616,4.3903,5.7099,5.7868,5.8442,5.8537,5.8453,5.818,5.745,5.7193,5.6708,5.524,0.0,5.369,5.246,5.366,5.4375,5.2698,0.0,5.782,5.6524,5.7635,5.8517,5.8231,5.8186,5.8186,5.8186,5.8186,5.8186,5.8186,5.8186,5.7773,5.6859,5.6051,5.517,5.4289,5.3555,5.323,5.3272,5.3272,5.3077,5.2673,5.2671,5.2048,5.0874,5.0865,5.044,4.9645,4.9645,4.9872,5.0145,4.9358,4.963,5.0471,4.9817,4.9971,5.0317,4.8817,4.874,4.9163,4.7586,4.7009,4.6666,4.529,4.4777,4.4726,4.4701,4.4701,4.4751,4.4751,4.4751,4.4751,4.4751,4.4751,4.4825,4.5115,4.518,4.5243,4.555,4.5586,4.5586,4.5586,4.5586,4.5586,4.5586,4.5586,4.5586,4.5586,4.5586,4.5586,4.5586,4.5246,4.4309,4.2579,4.3221,4.2751,4.0116,4.0586,4.0772,4.0196,4.0253,4.0422,4.0662,4.1623,4.2431,4.3085,4.3201,4.397,4.5432,4.397,4.4085,4.5586,4.4816,4.4893,5.6666,5.6868,5.7096,5.7668,5.7683,5.7521,5.7324,5.7211,0.0,0.0,5.3454,5.3003,5.1982,5.2346,5.3345,5.5034,5.6903,5.8313,5.8725,5.9627,5.9928,0.0,0.0,0.0,5.9139,5.9139,0.0,0.0,5.9139,5.8499,5.6867,5.6051,5.4913,5.3445,5.3298,5.3359,5.3683,5.3683,5.3495,5.3112,5.3413,5.2775,5.123,5.1538,5.125,5.0483,5.0483,0.0,5.0566,5.045,5.0086,4.9663,5.024,5.0125,4.9586,4.9279,4.9279,4.924,4.824,4.7471,4.68,4.6189,4.5757,4.5381,4.5115,4.5222,4.5438,4.5438,4.5438,4.5438,4.5438,4.5438,4.5438,4.5475,4.5494,4.555,4.5586,4.5586,4.5586,4.5586,4.5586,4.5586,4.5586,4.5586,4.5586,4.5586,4.5586,4.5586,4.5586,4.4935,4.4323,4.398,4.3499,4.2748,4.1506,4.1545,4.1294,4.0499,4.1113,4.1536,4.1585,4.3047,4.3624,4.3124,4.3739,4.4239,4.4509,4.4239,4.4624,4.5586,4.5432,4.547,5.6562,5.6601,5.6679,5.6981,5.6946,5.6552,5.5716,0.0,0.0,0.0,5.2128,5.2219,5.0892,5.2034,0.0,5.4764,5.6353,5.78,5.8631,5.9427,0.0,0.0,0.0,0.0,0.0,5.9389,5.9389,5.9389,5.9389,5.8874,5.76,5.633,5.4986,5.3561,5.3758,5.3979,5.4153,5.4153,5.4161,5.4183,5.3514,5.2856,5.2257,5.1603,5.1048,5.0702,5.0702,5.0702,5.0702,5.0702,5.0433,5.0125,5.0548,5.0433,5.001,4.9586,4.9702,4.9933,4.9086,4.8509,4.8106,4.7452,4.6494,4.5568,4.5419,4.5457,4.5586,4.5586,4.5586,4.5701,4.6163,4.5932,4.5817,4.6701,4.6586,4.6163,4.5701,4.5586,4.5586,4.5586,4.5586,4.5586,4.5586,4.5586,4.5586,4.5586,4.5586,4.5586,4.5586,4.524,4.4778,4.4355,4.4355,4.3893,4.2585,4.2854,4.2739,4.1893,4.2239,4.247,4.247,4.3662,4.4124,4.3739,4.4547,4.497,4.497,4.497,4.5201,4.5586,4.5586,4.5654,5.6601,5.6601,5.6601,5.656,5.638,5.5794,5.4209,5.3635,0.0,0.0,5.0985,5.1499,5.0012,5.1699,5.3546,0.0,5.5453,5.6928,5.8334,5.9001,0.0,0.0,0.0,0.0,5.9728,5.9728,0.0,5.9728,5.9728,5.9176,5.7989,5.6668,5.5333,5.3979,5.4288,5.4516,5.4609,5.4609,5.4667,5.4677,5.3378,5.2694,5.2626,5.1279,5.0702,5.0702,5.0702,5.0702,5.0702,5.0702,5.0702,5.0702,5.0702,5.0702,5.0625,4.9933,5.0087,5.0587,4.9933,4.9548,4.924,4.8394,4.7086,4.5817,4.5663,4.5586,4.5586,4.5586,4.5586,4.5778,4.6663,4.6394,4.624,4.774,4.7355,4.6509,4.597,4.5753,4.5632,4.5632,4.5632,4.5632,4.5632,4.562,4.5586,4.5586,4.5586,4.5586,4.5586,4.5586,4.5316,4.4662,4.5201,4.497,4.347,4.3932,4.397,4.3162,4.3278,4.3355,4.3355,4.4124,4.4586,4.4586,4.524,4.562,4.5632,4.5632,4.5648,4.5658,4.5658,4.5694,5.6601,5.6601,5.6561,5.6454,5.6293,5.5763,5.411,0.0,0.0,5.0402,5.0569,5.0894,4.9989,5.0579,0.0,0.0,0.0,5.5981,0.0,5.9573,0.0,0.0,0.0,0.0,6.0647,6.0647,6.0647,6.0647,6.0647,5.9584,5.7159,5.6899,5.6074,5.4495,5.4452,5.4671,5.5053,5.5015,5.4473,5.3353,5.3238,5.2374,5.0933,5.0779,5.0702,5.0702,5.0702,5.0702,0.0,5.0702,5.0702,5.0702,5.0702,5.0702,5.0702,5.0587,5.0625,5.0702,5.0587,5.0048,4.924,4.8394,4.7509,4.6624,4.5817,4.5586,4.5586,4.5586,4.5586,4.5778,4.6663,4.6855,4.7009,4.7894,4.6894,4.5893,4.6624,4.6236,4.5789,4.5789,4.5789,4.5789,4.5789,4.568,4.5586,4.5586,4.5586,4.5586,4.5586,4.5586,4.5547,4.547,4.5547,4.5201,4.4278,4.4239,4.397,4.3162,4.3778,4.4201,4.4201,4.5009,4.547,4.547,4.5547,4.5648,4.5789,4.5789,4.5801,4.5881,4.5881,4.5891,5.7226,5.7383,5.7383,5.7337,5.6406,5.5269,5.4123,0.0,5.23,5.0424,5.065,5.0936,5.0101,5.0617,5.1664,0.0,0.0,0.0,5.7193,0.0,0.0,0.0,6.0057,0.0,0.0,0.0,6.0781,6.0781,6.0781,6.0147,5.8563,5.8459,5.7843,5.6396,5.6137,5.6091,5.6213,5.5715,5.4978,5.3972,5.3433,5.2587,5.1395,5.0933,5.0702,5.0721,5.0791,5.0803,0.0,5.0903,5.0945,5.0932,5.0851,5.0803,5.0825,5.0721,5.0702,5.0702,5.0702,5.0471,4.9933,4.8548,4.7894,4.7355,4.6009,4.5586,4.5701,4.624,4.6394,4.6701,4.8048,4.8848,4.9135,4.849,4.8218,4.8102,4.7908,4.7206,4.6629,4.6629,4.624,4.5841,4.5841,4.5836,4.5789,4.5789,4.5789,4.5789,4.5789,4.5789,4.5789,4.5789,4.5673,4.547,4.5124,4.5086,4.4932,4.4624,4.4986,4.5201,4.5201,4.5583,4.5789,4.5789,4.5789,4.5825,4.5841,4.5841,4.5872,4.5879,4.5879,4.5952,5.7252,5.7757,5.8069,5.7811,5.6559,5.5143,0.0,0.0,5.1993,5.0391,5.0728,5.1024,5.016,5.0725,5.1554,0.0,0.0,5.4245,5.5884,5.6742,0.0,0.0,0.0,5.9177,0.0,6.0535,6.0781,6.0781,6.0781,6.0512,5.9935,5.9678,5.8896,5.7468,5.6898,5.6626,5.6626,5.6011,5.528,5.4472,5.3626,5.2741,5.1895,5.1087,5.0702,5.0756,5.0867,5.0918,0.0,5.1053,5.1094,5.1084,5.1011,5.0972,5.0959,5.0851,5.0803,5.0803,5.0803,5.0803,5.0571,4.9103,4.8446,4.7983,4.6839,4.605,4.5778,4.6663,4.7293,4.7979,4.9203,5.0022,5.0351,4.9489,4.9361,4.9322,4.8972,4.8218,4.765,4.765,4.7143,4.6714,4.6714,4.6683,4.6589,4.6316,4.6268,4.6191,4.5918,4.5879,4.5879,4.5879,4.5776,4.5703,4.5703,4.5703,4.5703,4.5703,4.579,4.5813,4.5813,4.5872,4.5879,4.5879,4.5879,4.5935,4.5967,4.5967,4.5981,4.6008,4.6008,4.6075,5.6316,5.7488,5.8501,5.7608,5.6756,5.5703,0.0,0.0,5.2021,5.0331,5.0679,5.1019,5.0152,5.0723,5.1564,5.248,0.0,0.0,5.5991,5.6886,0.0,0.0,0.0,5.7621,5.8353,5.9887,6.0781,6.0781,6.0781,0.0,6.0781,6.0075,5.8858,5.7071,5.6165,5.5703,5.5703,5.5703,5.528,5.4472,5.3626,5.2741,5.1895,5.1087,5.0756,5.0889,5.0889,5.0985,0.0,5.1094,5.1094,5.1094,5.1094,5.1094,5.1094,5.1084,5.1084,5.1084,5.1084,5.1084,5.0938,5.0091,4.9196,4.8487,4.8457,4.7133,4.5778,4.6663,4.8183,4.9614,4.9741,4.978,5.0014,5.086,4.9741,4.8738,4.9595,4.9205,4.8669,4.8669,4.8669,4.8669,4.8669,4.8574,4.8193,4.7328,4.7172,4.6861,4.5996,4.5879,4.5879,4.5879,4.5918,4.5918,4.5918,4.5918,4.5918,4.5918,4.5918,4.5918,4.5918,4.5918,4.5879,4.5879,4.5879,4.5974,4.6089,4.6089,4.6153,4.6289,4.6289,4.6289,5.351,5.4056,5.4414,5.4177,5.3491,5.2755,5.2265,5.1953,5.1601,5.1054,5.1172,5.1288,5.1014,5.1166,5.1623,5.2468,0.0,0.0,0.0,0.0,0.0,5.7218,5.8789,5.9916,0.0,0.0,6.1151,6.1151,6.1151,6.1151,6.1151,5.9774,5.894,5.8838,5.7466,5.6732,5.6732,5.6038,5.5011,5.3626,5.3318,5.2473,5.1206,5.0951,5.0903,5.1031,5.1083,5.114,5.1174,5.1258,5.1307,5.1304,5.1185,5.1167,5.1161,5.1122,5.1094,5.1094,5.1094,5.1094,5.0977,5.0091,4.9624,4.9274,4.866,4.7631,4.7012,4.8487,4.9714,5.0636,5.0719,5.0738,5.0834,5.1222,5.0881,5.0568,5.0842,5.0264,4.9722,4.9722,4.9253,4.8824,4.8824,4.8819,4.8694,4.8382,4.8343,4.8265,4.7991,4.7445,4.7288,4.7874,4.6898,4.6089,4.5935,4.5879,4.5879,4.5879,4.5988,4.6059,4.6059,4.614,4.6153,4.6153,4.6153,4.62,4.6246,4.6246,4.6248,4.6289,4.6289,4.6289,0.0,5.2397,5.2903,5.2987,5.2428,5.182,5.1896,5.1626,5.1391,5.1394,5.14,5.1403,5.1403,5.1406,5.156,5.2062,5.2401,0.0,0.0,0.0,0.0,5.7352,0.0,0.0,0.0,6.0851,6.1289,6.1289,6.1289,6.1172,6.081,5.9503,5.8831,5.8921,5.7533,5.6776,5.6698,5.5787,5.492,5.4126,5.3533,5.2773,5.1818,5.1541,5.1314,5.1125,5.1185,5.1215,0.0,5.1366,5.1406,5.1406,5.1318,5.1271,5.1307,5.1581,5.1681,5.1681,5.1681,5.1681,5.1564,5.0673,5.0399,5.0243,4.9391,4.8684,4.8427,4.9566,5.0463,5.1147,5.1258,5.1271,5.1316,5.1367,5.1406,5.1406,5.1406,5.1016,5.0664,5.0664,5.0195,4.9844,4.9844,4.9844,4.9726,4.9453,4.9375,4.9258,4.8945,4.8437,4.8281,4.8828,4.793,4.7221,4.705,4.6733,4.6415,4.6064,4.6452,4.6507,4.6195,4.6248,4.6445,4.6797,4.6797,4.6953,4.7266,4.7266,4.7266,4.7266,4.7266,4.7266,0.0,5.1813,0.0,5.3195,5.2699,5.2227,5.2446,5.1904,0.0,5.1391,5.1396,5.1398,5.14,5.1404,5.1406,5.1405,5.2066,0.0,0.0,5.5942,0.0,0.0,5.8601,0.0,5.9014,6.0409,6.1323,6.1323,6.1284,6.0884,6.0066,5.9279,5.846,5.764,5.6706,5.6146,5.5901,5.5141,5.4989,5.5514,5.4116,5.3398,5.3296,5.2686,5.2029,0.0,5.1327,5.1391,5.1484,5.1445,5.1406,5.1406,5.1406,5.1406,5.1484,5.2305,5.2617,5.2578,5.2578,5.2578,5.246,5.1639,5.1366,5.1249,5.0507,5.0087,4.9948,5.0064,5.0625,5.1222,5.1366,5.1406,5.1406,5.1406,5.1406,5.1406,5.1406,5.1406,5.1406,5.1406,5.1406,5.1406,5.1406,5.1406,5.1133,5.0391,5.0273,5.0,4.918,4.9023,4.9023,4.9062,4.8984,4.8945,4.8984,4.8203,4.7344,4.6523,4.7226,4.7344,4.6523,4.6484,4.6875,4.7695,4.7695,4.8086,4.8906,4.8906,4.8906,4.8906,4.8906,4.8906,4.7054,0.0,4.7937,4.8694,4.8763,4.9012,0.0,5.0544,5.0585,5.1247,0.0,5.1404,5.1406,5.1406,5.1406,5.1406,0.0,5.2067,5.3161,0.0,0.0,5.927,6.0317,6.0627,5.9963,6.0944,6.1629,6.1629,6.1001,6.0532,6.0337,5.8938,5.8043,5.7848,5.6983,5.6386,5.6146,5.5279,5.453,5.3945,5.3689,5.3244,5.2746,5.3202,5.3401,5.3318,5.2653,5.2382,5.2344,5.168,5.1406,5.1406,5.1406,5.1406,5.1406,5.1641,5.1636,5.1535,5.1535,5.1503,5.1445,5.125,5.1172,5.1147,5.1015,5.0975,5.1047,5.1052,5.1209,5.1365,5.1406,5.1406,5.1406,5.1406,5.1406,5.1406,5.1406,5.1406,5.1406,5.1406,5.1406,5.1406,5.1406,5.1406,5.1328,5.1133,5.1133,5.1055,5.0859,5.0273,5.0117,5.0742,4.9687,4.918,4.9844,4.9101,4.8516,4.8281,4.8476,4.8516,4.8281,4.8281,4.8398,4.8594,4.8594,4.8711,4.8906,4.8906,4.8906,4.8906,4.8775,4.8759,4.8318,4.7617,4.6868,4.777,4.832,4.902,5.039,0.0,0.0,0.0,0.0,5.1406,5.1406,5.1718,5.1874,0.0,5.2421,0.0,0.0,0.0,5.8336,5.9982,6.0675,6.0962,0.0,6.1365,6.1523,6.1133,6.0664,6.0078,5.9297,5.8398,5.7734,5.7305,5.6836,5.651,5.6277,5.503,5.4305,5.4077,5.3419,5.2877,5.2528,5.3064,5.3119,5.2773,5.2305,5.2109,5.207,5.1601,5.1406,5.1406,5.1406,5.1365,5.1357,5.1748,5.1839,5.1693,5.1693,5.1421,5.1094,5.1094,5.1094,5.1103,5.1133,5.1219,5.1297,5.1366,5.1406,5.1406,5.1406,5.1406,5.1406,5.1406,5.1406,5.1406,5.1406,5.1719,5.1992,5.1992,5.2305,5.2578,5.2578,5.2266,5.1992,5.1992,5.1641,5.1523,5.1953,5.1601,5.168,5.25,5.1406,5.082,5.1328,5.0547,4.9726,4.8945,4.9297,4.9336,4.8906,4.8906,4.9101,4.9492,4.9844,5.0194,5.0535,5.0144,5.0136,5.046,4.9991,4.9815,5.0722,4.97,4.8291,4.8934,4.9547,5.0243,5.1199,0.0,0.0,0.0,0.0,0.0,0.0,5.2183,0.0,0.0,0.0,0.0,5.7812,5.8202,5.8824,6.0233,6.0506,0.0,6.1289,6.1445,6.1133,6.0273,6.0078,5.9414,5.7969,5.7773,5.7344,5.6601,5.6601,5.6558,5.6445,5.4693,5.4072,5.45,5.3175,5.2542,5.2537,5.2808,5.25,5.1797,0.0,0.0,5.1561,5.1403,5.1363,5.1363,5.1365,5.1274,5.1263,5.2021,5.22,5.2075,5.2053,5.1614,5.1031,5.1031,5.1031,5.1031,5.1053,5.1063,5.1113,5.1307,5.1364,5.1366,5.1406,5.1406,5.1406,5.1406,5.1406,5.1406,5.1406,5.207,5.2695,5.2695,5.3398,5.3984,5.3984,5.3398,5.2891,5.2891,5.2266,5.207,5.2812,5.2891,5.3164,5.3906,5.3359,5.2891,5.2891,5.2226,5.1133,4.957,5.0039,5.0039,4.9297,4.9297,4.9648,5.0351,5.1171,5.1863,5.2517,5.1888,5.181,5.229,5.1569,5.118,4.9715,5.084,5.1408,5.1054,5.0508,5.0249,5.119,0.0,0.0,0.0,0.0,0.0,0.0,5.2494,5.1795,0.0,0.0,5.6172,0.0,0.0,6.0117,6.0351,0.0,6.1015,5.9726,6.0195,6.0273,5.9453,5.8711,5.8164,5.789,5.7187,5.6758,5.6601,5.6601,5.6601,5.6561,5.4842,5.3581,5.2851,5.2722,5.2655,5.2694,5.3437,5.3711,5.3554,0.0,5.2312,5.2269,5.1459,5.1148,5.1156,5.1196,5.1174,5.1131,5.1336,5.1295,5.1111,5.0962,5.0871,5.0738,5.0738,5.0738,5.0773,5.0889,5.0932,5.0972,5.1113,5.1206,5.1265,5.1366,5.1406,5.1406,5.1406,5.1406,5.1406,5.1406,5.207,5.2695,5.2695,5.3398,5.3984,5.3984,5.3906,5.3789,5.3789,5.3672,5.3633,5.3789,5.3789,5.3867,5.3984,5.3867,5.3789,5.3789,5.3672,5.3164,5.2187,5.1562,5.1172,5.1016,5.1016,5.1094,5.1211,5.1935,5.2372,5.2517,5.2987,5.2933,5.229,5.2046,5.1591,5.1515,5.2601,5.3156,5.3299,5.2961,5.2558,5.2524,0.0,0.0,0.0,0.0,0.0,0.0,0.0,5.4801,5.6562,0.0,5.6913,5.9491,5.9374,5.9217,0.0,0.0,6.0038,5.9258,5.9531,5.9414,5.8555,5.8125,5.7695,5.7226,5.6836,5.6601,5.6601,5.6601,5.6092,5.5104,5.4284,5.371,5.3307,5.2421,5.1992,5.1992,5.2422,5.2576,5.2446,0.0,5.1765,5.1717,5.1269,5.1094,5.1094,5.1117,5.0792,5.0273,5.0222,5.0153,5.0156,5.0548,5.0702,5.0702,5.0702,5.0702,5.0798,5.1296,5.1447,5.146,5.1618,5.1442,5.1318,5.1776,5.1605,5.1391,5.1896,5.1626,5.1318,5.1367,5.2461,5.3398,5.3398,5.4492,5.539,5.539,5.5,5.4687,5.4687,5.4297,5.418,5.4648,5.4687,5.4883,5.5351,5.4961,5.4687,5.4687,5.4212,5.3742,5.3437,5.2578,5.2305,5.2773,5.2344,5.2303,5.2677,5.2576,5.2902,5.3697,5.356,5.3466,5.3475,5.2966,5.2489,5.3167,5.4173,5.4585,5.516,0.0,5.4682,5.4026,0.0,0.0,0.0,0.0,0.0,0.0,5.6012,0.0,5.9492,5.8515,5.8241,6.0389,5.9412,5.8746,5.9413,5.9295,5.9101,5.8906,5.8906,5.8515,5.7656,5.7617,5.7305,5.664,5.6601,5.6601,5.6601,5.6366,5.5575,5.4133,5.3688,5.3391,5.331,5.1982,5.1318,5.1318,5.1318,5.1261,5.1174,5.1154,5.1101,5.1042,5.1008,5.1035,5.0996,5.1031,5.0467,4.9596,4.9679,4.9586,4.951,5.0394,5.0702,5.0702,5.0702,5.0702,5.0818,5.1433,5.1741,5.1896,5.1807,5.1591,5.1483,5.1921,5.174,5.1642,5.2298,5.1947,5.1508,5.1633,5.2887,5.3943,5.3942,5.5348,5.6558,5.6512,5.597,5.5543,5.5543,5.5038,5.4844,5.5508,5.5586,5.5859,5.6523,5.5975,5.5542,5.5497,5.464,5.4201,5.4518,5.3548,5.3278,5.3942,5.3273,5.3175,5.3741,5.3284,5.3563,5.4691,5.4194,5.4128,5.4472,5.3818,5.3395,5.319,5.4957,5.6069,5.6199,5.5658,0.0,5.4983,5.5007,0.0,0.0,0.0,0.0,0.0,5.7734,5.7849,5.7962,5.9178,6.0469,6.1484,0.0,6.0234,6.0312,5.9648,5.8867,5.8086,5.8008,5.7617,5.6758,5.668,5.668,5.6601,5.6601,5.6601,5.6601,5.5687,5.5157,5.4997,5.3276,5.2047,5.1317,5.12,5.1122,5.1122,5.1122,5.1113,5.1103,5.0959,5.0918,5.0889,5.0773,5.0721,5.074,5.0883,5.04,4.9674,5.0373,5.0087,4.951,5.0394,5.0702,5.0702,5.0702,5.0702,5.0702,5.0779,5.1318,5.1741,5.0991,5.1421,5.189,5.1336,5.1716,5.2222,5.23,5.2261,5.226,5.2395,5.3157,5.3826,5.3821,5.5226,5.6374,5.6242,5.6269,5.6319,5.6319,5.6358,5.6445,5.6484,5.6523,5.6523,5.6601,5.6429,5.6251,5.6154,5.5317,5.5151,5.5989,5.4599,5.3738,5.3816,5.3619,5.3555,5.3623,5.4206,5.4568,5.4691,5.5268,5.5186,5.4511,5.4434,5.3972,5.3345,5.4734,5.5693,5.6191,5.6121,0.0,0.0,0.0,0.0,0.0,0.0,0.0,0.0,0.0,5.8045,5.8548,5.9217,5.992,6.0646,6.0113,5.9413,5.8811,5.8512,5.8047,5.7187,5.7109,5.6953,5.6601,5.6601,5.6601,5.6601,5.6601,5.656,5.6465,5.5591,5.4755,5.4058,5.2783,5.1721,5.0851,5.1008,5.1094,5.1094,5.1094,5.1042,5.0985,5.0918,5.0851,5.0756,5.0702,5.0702,5.0645,5.0159,4.977,4.9521,4.9778,4.9663,4.951,5.0394,5.0702,5.0702,5.0702,5.0702,5.0779,5.1279,5.2049,5.2664,5.2356,5.2566,5.2733,5.1818,5.1523,5.1684,5.2731,5.2613,5.2485,5.3169,5.4076,5.4713,5.4601,5.5567,5.6368,5.6212,5.6232,5.6269,5.6269,5.6386,5.6462,5.6462,5.6559,5.6561,5.6465,5.6361,5.6212,5.6019,5.5824,5.5796,5.6005,5.5052,5.4741,5.5286,5.4733,5.4618,5.5021,5.4816,5.4912,5.5307,5.5553,5.5549,5.5241,5.5241,5.5049,5.3532,5.4557,5.5343,0.0,0.0,0.0,0.0,0.0,0.0,0.0,0.0,0.0,0.0,0.0,0.0,0.0,5.894,5.9332,5.9724,5.9198,5.846,5.7694,5.7456,5.7132,5.6595,5.6558,5.6559,5.6601,5.6601,5.6562,5.6558,5.6558,5.6348,5.5925,5.5046,5.4051,5.2995,5.2082,5.1348,5.0721,5.0913,5.0985,5.0985,5.0985,5.0918,5.0835,5.0835,5.0791,5.0702,5.0702,5.0702,5.0625,5.0048,4.9471,4.9048,4.9625,4.9471,4.9163,5.0279,5.0702,5.0702,5.0702,5.0702,5.0856,5.1664,5.251,5.3203,5.3203,5.3436,5.3528,5.255,5.1812,5.1648,5.3,5.2962,5.293,5.3896,5.4658,5.5118,5.4991,5.5676,5.6184,5.6071,5.6317,5.6511,5.6511,5.6855,5.7127,5.7127,5.7235,5.7168,5.6751,5.6407,5.611,5.5879,5.5955,5.6087,5.6248,5.5568,5.5436,5.6071,5.5475,5.5374,5.5822,5.5302,5.5249,5.5703,5.5703,5.5703,5.5703,5.5703,5.5703,5.3795,5.4623,5.5296,0.0,0.0,0.0,0.0,0.0,0.0,0.0,0.0,0.0,0.0,0.0,0.0,5.7492,5.8495,5.9098,5.89,5.8187,5.7609,5.7419,5.6658,5.6242,5.638,5.6391,5.6454,5.6562,5.6601,5.6518,5.6391,5.6391,5.5925,5.4918,5.3909,5.2957,5.2104,5.118,5.0702,5.0702,5.0702,5.0702,5.0702,5.0702,5.0702,5.0702,5.0702,5.0702,5.0702,5.0702,5.0702,5.0702,5.0702,4.9625,4.8317,5.0048,4.9586,4.8355,5.0087,5.0702,5.0702,5.0702,5.0702,5.0856,5.1664,5.251,5.3203,5.3203,5.3857,5.428,5.3433,5.2661,5.2298,5.3032,5.3297,5.3654,5.4514,5.4828,5.4863,5.4739,5.5365,5.5857,5.5707,5.6541,5.7185,5.7185,5.8051,5.8698,5.8698,5.8819,5.8499,5.7497,5.6697,5.6057,5.5707,5.5703,5.6088,5.6934,5.6203,5.5788,5.5907,5.5769,5.5703,5.5703,5.5703,5.5703,5.5703,5.5703,5.5703,5.5703,5.5703,5.5703,5.4835,5.5112,0.0,5.6052,0.0,0.0,0.0,0.0,0.0,0.0,0.0,0.0,0.0,0.0,0.0,5.6652,5.6925,5.7243,5.7651,5.7086,5.6552,5.6393,5.5707,5.5551,5.6212,5.5706,5.5372,5.5404,5.595,5.6012,5.5364,5.5325,5.5141,5.4749,5.3257,5.2298,5.1971,5.1126,5.0702,5.0702,5.0702,5.0702,5.0702,5.0702,5.0702,5.0702,5.0702,5.0702,5.0702,5.0702,5.0702,5.0625,5.001,4.9817,4.9933,4.9817,4.9856,5.001,5.051,5.1087,5.1471,5.0894,5.1087,5.1587,5.1856,5.251,5.3318,5.3933,5.4362,5.4571,5.4205,5.3588,5.3188,5.3956,5.4223,5.4545,5.5381,5.5683,5.5758,5.5568,5.573,5.5857,5.5707,5.6459,5.7061,5.7061,5.7925,5.8622,5.8819,5.8871,5.8506,5.7497,5.7107,5.6582,5.5784,5.6242,5.6703,5.6973,5.7319,5.7285,5.6714,5.6053,5.5703,5.5703,5.5703,5.5703,5.5703,5.5703,5.5703,5.5703,5.5703,5.5703,5.4882,5.5039,0.0,5.5937,5.6601,5.7109,5.7109,0.0,0.0,0.0,0.0,5.7192,5.6943,5.6269,0.0,5.6114,5.6191,5.629,5.6653,5.634,5.5913,5.5397,5.4978,5.4827,5.5048,5.4594,5.4307,5.4373,5.4879,5.4897,5.4322,5.4284,5.4089,5.3602,5.2558,5.1833,5.1433,5.0933,5.0702,5.0702,5.0702,5.0702,5.0702,5.0702,5.0702,5.0702,5.0702,5.0702,5.0702,5.0702,5.051,5.0125,4.9625,4.951,4.9663,4.9471,4.974,5.024,5.0587,5.101,5.1356,5.0856,5.1241,5.1972,5.2318,5.3049,5.3895,5.4741,5.5036,5.5075,5.5014,5.467,5.436,5.4475,5.461,5.4901,5.565,5.5955,5.6044,5.584,5.5825,5.5769,5.5707,5.6703,5.7511,5.7511,5.8623,5.9469,5.9694,5.9425,5.9004,5.8402,5.7978,5.7464,5.6802,5.7203,5.7627,5.7973,5.8204,5.8204,5.8011,5.6857,5.6357,5.6742,5.6395,5.6203,5.6203,5.6203,5.6049,5.5703,5.5703,5.5703,5.4414,0.0,0.0,5.5508,5.6719,0.0,5.789,0.0,5.8007,5.8866,0.0,5.6816,5.7293,5.6191,5.5316,5.5816,5.6057,5.6097,5.5924,5.5891,5.559,5.4706,5.4472,5.415,5.3569,5.3352,5.331,5.3436,5.3524,5.3494,5.329,5.3275,5.2829,5.1933,5.1741,5.1356,5.0702,5.0548,5.051,5.0587,5.051,5.0471,5.0471,5.0625,5.0702,5.0702,5.0702,5.0702,5.0702,5.0587,5.0125,4.9317,4.924,4.876,4.8241,4.9009,4.9394,4.9625,5.0433,5.0741,5.0818,5.0818,5.1356,5.2202,5.3049,5.3857,5.4664,5.5472,5.5703,5.5703,5.5703,5.5703,5.5511,5.478,5.4707,5.4951,5.5574,5.5808,5.5861,5.5707,5.5742,5.5818,5.5818,5.7242,5.8434,5.8511,5.9842,6.0839,6.0979,6.0317,5.9852,5.9813,5.9099,5.8528,5.8303,5.8357,5.8704,5.9435,5.8896,5.8858,5.9588,5.8011,5.7473,5.828,5.7511,5.7126,5.7126,5.7126,5.6703,5.5934,5.5857,5.5857,5.5898,5.5664,0.0,0.0,5.7617,5.785,5.7789,5.7192,5.6957,5.7855,5.7516,5.7145,5.7359,5.6403,5.5629,5.5869,5.5861,5.5789,5.5768,5.5748,5.5651,5.5472,5.428,5.3685,5.4207,5.3013,5.2241,5.2257,5.2913,5.2954,5.2242,5.2204,5.2107,5.1933,5.0625,5.0164,5.0702,4.9356,4.9009,4.9663,4.8971,4.8663,4.8702,5.0087,5.0702,5.0702,5.0702,5.0702,5.0625,4.9971,4.9391,4.8876,4.7857,4.7971,4.8684,4.8471,4.924,5.0433,5.0625,5.1125,5.1664,5.1664,5.2241,5.3087,5.3972,5.4357,5.4664,5.5472,5.5703,5.5703,5.5703,5.5703,5.5665,5.5472,5.5437,5.5517,5.5686,5.5707,5.5748,5.5724,5.6242,5.6703,5.6703,5.8127,5.9473,6.0165,6.0671,6.0982,6.0997,6.0988,6.0681,5.9869,5.9641,5.9204,5.838,5.8896,5.9319,5.9473,5.9973,6.0319,6.0512,5.8896,5.8127,5.8319,5.8127,5.8011,5.8011,5.8011,5.7934,5.7703,5.7049,5.7088,5.5384,0.0,0.0,5.7578,0.0,5.7288,5.7612,5.6909,5.628,5.6747,5.6795,5.6692,5.6706,5.6178,5.5672,5.5286,5.519,5.5126,5.5126,5.478,5.4511,5.4511,5.3356,5.2587,5.2664,5.1856,5.1318,5.1318,5.1741,5.1818,5.1356,5.1318,5.1318,5.1318,5.0471,5.0048,5.0087,4.9163,4.874,4.8779,4.8317,4.8202,4.8464,4.9384,4.9767,4.9767,4.9595,4.9549,4.9472,4.8632,4.7967,4.7365,4.7053,4.7372,4.8036,4.8318,4.9269,5.0462,5.0624,5.0971,5.1318,5.1318,5.2164,5.328,5.3741,5.4477,5.5249,5.5591,5.5768,5.5789,5.5707,5.5703,5.5703,5.5703,5.5703,5.5703,5.5703,5.5703,5.5703,5.5703,5.6395,5.6973,5.6973,5.8396,5.9819,6.0666,6.0839,6.0905,6.0905,6.102,6.0845,6.0325,6.0287,6.0071,5.9534,5.9896,6.0127,6.0127,6.055,6.0781,6.0781,5.9973,5.9511,5.9511,5.9088,5.8858,5.8858,5.8858,5.8665,5.828,5.7819,5.7857,5.464,0.0,5.6875,5.7651,5.7321,0.0,5.7506,5.687,5.6062,5.5913,5.6001,5.6071,5.5891,5.5857,5.5611,5.4821,5.4587,5.4511,5.4511,5.3741,5.3203,5.3203,5.2433,5.1664,5.0971,5.0779,5.0702,5.0702,5.0702,5.0702,5.0702,5.0702,5.0702,5.0702,5.0394,5.0048,4.9625,4.9048,4.8491,4.803,4.7664,4.775,4.83,4.8213,4.8365,4.868,4.8272,4.8098,4.8022,4.7219,4.641,4.579,4.6495,4.6835,4.7033,4.8251,4.93,5.0159,5.0483,5.0624,5.0741,5.1048,5.2087,5.3241,5.3571,5.4707,5.584,5.575,5.5788,5.5861,5.5728,5.5703,5.5703,5.5703,5.5703,5.5703,5.5703,5.5818,5.5934,5.5934,5.6742,5.7473,5.7627,5.8819,5.9973,6.0704,6.0781,6.0781,6.0781,6.0781,6.0781,6.0781,6.0781,6.0781,6.0781,6.0781,6.0781,6.0781,6.0781,6.0781,6.0781,6.0781,6.0781,6.0781,6.0089,5.9704,5.9704,5.9704,5.9396,5.8742,5.8588,5.8588,0.0,0.0,5.7416,0.0,5.807,5.8247,0.0,0.0,5.6786,0.0,5.5748,5.5768,5.5728,5.5728,5.5668,5.5549,5.4934,5.4511,5.4511,5.3741,5.3203,5.3203,5.2433,5.1856,5.1741,5.1125,5.0702,5.0702,5.0702,5.0702,5.0702,5.0702,5.0702,5.0702,4.924,4.9125,5.051,4.7586,4.6647,4.7646,4.5884,4.5457,4.6172,4.5827,4.6674,4.8332,4.7559,4.7257,4.7181,4.6323,4.5717,4.5417,4.5782,4.6214,4.6688,4.7862,4.906,5.0111,5.0159,5.0402,5.0933,5.2395,5.301,5.3474,5.5049,5.5634,5.5768,5.5861,5.5788,5.5707,5.5724,5.5703,5.5703,5.5703,5.5703,5.5703,5.5703,5.628,5.6819,5.6819,5.8088,5.9396,6.0165,6.0473,6.0666,6.0781,6.0781,6.0781,6.0781,6.0781,6.0781,6.0781,6.0781,6.0781,6.0781,6.0781,6.0781,6.0781,6.0781,6.0781,6.0781,6.0781,6.0781,6.0781,6.0704,6.0627,6.0627,6.0627,6.055,6.0435,5.9704,5.9742,5.5369,5.5024,5.4947,0.0,5.6658,5.6614,5.7158,0.0,5.6232,5.5801,5.5703,5.5549,5.5126,5.4626,5.4126,5.3664,5.328,5.3049,5.3049,5.2318,5.1972,5.2433,5.1741,5.1241,5.1241,5.0471,5.0164,5.0664,5.024,5.0164,5.0664,5.0702,5.0702,5.0702,4.9294,4.8903,4.963,4.7465,4.6426,4.6569,4.5481,4.5094,4.5469,4.5074,4.5769,4.7154,4.6221,4.5791,4.5717,4.4867,4.4438,4.435,4.4957,4.5593,4.6342,4.7755,4.8899,4.9846,5.0291,5.0525,5.0894,5.2087,5.2818,5.3454,5.4728,5.5441,5.5807,5.5769,5.5788,5.5769,5.5707,5.5703,5.5703,5.5703,5.5703,5.5818,5.6319,5.6703,5.728,5.8204,5.9011,5.9781,6.0666,6.0781,6.0781,6.0781,6.0781,6.0781,6.0781,6.0781,6.0781,6.0781,6.0781,6.0781,6.0781,6.0781,6.0781,6.0781,6.0781,6.0781,6.0781,6.0781,6.0781,6.0781,6.0781,6.0781,6.0781,6.0781,6.0781,6.0781,6.0396,6.0435,0.0,0.0,5.3275,5.5007,5.5186,5.5277,0.0,0.0,5.5972,0.0,5.5549,5.5203,5.4626,5.3972,5.3318,5.2664,5.2202,5.1895,5.1895,5.1202,5.0933,5.151,5.1048,5.0702,5.0702,5.0087,5.001,5.0625,5.0087,5.001,5.0664,5.0702,5.0644,5.0525,4.9258,4.8715,4.8973,4.7758,4.6685,4.5641,4.5258,4.518,4.537,4.4702,4.5068,4.619,4.4923,4.4415,4.4342,4.3754,4.3497,4.3608,4.4599,4.5441,4.6242,4.7859,4.8975,4.9765,5.0336,5.0758,5.1125,5.1972,5.2818,5.3723,5.4592,5.5325,5.5843,5.5769,5.5788,5.5825,5.5728,5.5703,5.5703,5.5703,5.5857,5.628,5.7126,5.7473,5.805,5.955,5.9819,6.005,6.0704,6.0781,6.0781,6.0781,6.0781,6.0781,6.0781,6.0781,6.0781,6.0781,6.0781,6.0781,6.0781,6.0781,6.0896,6.1127,6.1127,6.1204,6.1435,6.1243,6.1127,6.1127,6.0896,6.0781,6.0781,6.0781,6.0781,6.0781,6.0781,6.0781,0.0,5.3738,0.0,5.3591,5.4534,0.0,0.0,0.0,5.6703,5.5857,5.5088,5.4549,5.4511,5.4472,5.4434,5.4357,5.2972,5.1895,5.1895,5.1202,5.0702,5.0741,5.0741,5.0702,5.0702,5.0664,5.0625,5.0702,5.0664,5.0625,5.0702,5.0702,5.0504,5.0159,4.8533,4.8275,4.9457,4.8278,4.6861,4.5227,4.4878,4.5148,4.5809,4.4268,4.445,4.5846,4.4267,4.3534,4.3534,4.3497,4.3497,4.3644,4.5223,4.6094,4.6643,4.8278,4.9378,5.0049,5.0135,5.0856,5.1972,5.2856,5.3703,5.459,5.5531,5.575,5.5748,5.584,5.5788,5.5724,5.5703,5.5703,5.5703,5.5703,5.6319,5.7165,5.805,5.8819,5.9627,6.055,6.0742,6.0742,6.0781,6.0781,6.0781,6.0781,6.0781,6.0781,6.0781,6.0781,6.0781,6.0781,6.0781,6.0781,6.0781,6.0781,6.1127,6.1973,6.2012,6.2358,6.3128,6.2435,6.2012,6.2012,6.1204,6.0781,6.0781,6.0781,6.0781,6.0781,6.0781,6.0781,0.0,0.0,0.0,5.3589,5.3549,5.349,5.4766,5.5229,5.5318,5.4972,5.4703,5.4511,5.4511,5.3587,5.2818,5.2818,5.1856,5.1125,5.1125,5.0894,5.0702,5.0702,5.0702,5.0702,5.0702,5.0202,5.0087,5.0664,5.0164,5.0087,5.0664,5.0462,5.023,5.0111,4.8521,4.7754,4.7967,4.7533,4.676,4.5653,4.5515,4.5369,4.5112,4.4525,4.4599,4.5076,4.3975,4.3497,4.3497,4.3497,4.3497,4.3608,4.4709,4.5513,4.6276,4.7623,4.8627,4.9416,4.9924,5.0718,5.1698,5.2833,5.378,5.4647,5.5518,5.5748,5.5724,5.575,5.5748,5.5703,5.5703,5.5703,5.5818,5.6395,5.7203,5.805,5.8896,5.9742,6.0435,6.0742,6.0781,6.0781,6.0781,6.0781,6.0781,6.0781,6.0781,6.0781,6.0781,6.0781,6.0781,6.0781,6.0781,6.0781,6.0781,6.132,6.1781,6.2089,6.2589,6.3012,6.3281,6.3012,6.2627,6.2089,6.1781,6.1358,6.0781,6.0781,6.0781,6.0781,6.0781,6.0781,5.4002,0.0,0.0,0.0,0.0,5.2598,5.4147,5.4493,5.4587,5.4857,5.4703,5.4511,5.4511,5.3087,5.1895,5.1895,5.1202,5.0702,5.0702,5.0702,5.0702,5.0702,5.0702,5.0644,5.0504,4.9946,4.9827,5.0275,4.9778,0.0,5.0275,4.9782,4.9302,4.8894,4.8258,4.7644,4.7131,4.7388,4.7095,4.6324,4.6324,4.603,4.5516,4.5223,4.5112,4.5076,4.4232,4.3754,4.3497,4.3497,4.3644,4.3975,4.4782,4.5697,4.6611,4.7698,4.853,4.9209,5.0041,5.0926,5.1915,5.3024,5.4079,5.5011,5.5549,5.5703,5.5703,5.5703,5.5703,5.578,5.6049,5.6126,5.6357,5.7242,5.7896,5.8588,5.9704,6.0396,6.0781,6.0781,6.0781,6.0781,6.0781,6.0781,6.0781,6.0781,6.0781,6.0781,6.0781,6.0781,6.0781,6.0781,6.0781,6.0781,6.0781,6.1589,6.2204,6.2474,6.3281,6.3858,6.4166,6.3897,6.3474,6.2935,6.2397,6.182,6.1243,6.0935,6.0781,6.0781,6.0781,6.0781,0.0,0.0,0.0,0.0,0.0,0.0,5.4199,0.0,5.4664,5.5511,5.5011,5.4434,5.4472,5.3049,5.1856,5.1856,5.1202,5.0702,5.0702,5.0702,5.0702,5.0702,5.0702,5.0525,5.0135,5.0111,4.9924,4.9532,4.9504,4.9504,4.9504,4.8749,4.7776,4.66,4.7683,4.7939,4.7168,4.7902,4.7865,4.7058,4.7095,4.7057,4.7058,4.625,4.5883,4.5847,4.5039,4.4232,4.3497,4.3497,4.3975,4.4782,4.559,4.6611,4.7798,4.8617,4.9139,4.9558,5.0387,5.1509,5.273,5.3544,5.4647,5.5703,5.5703,5.5703,5.5703,5.5703,5.5703,5.5934,5.6819,5.7011,5.7242,5.8127,5.8357,5.8781,6.0435,6.0781,6.0781,6.0781,6.0781,6.0781,6.0781,6.0781,6.0781,6.0781,6.0781,6.0781,6.0781,6.0781,6.0781,6.0781,6.0781,6.0819,6.0819,6.1627,6.2474,6.3281,6.4166,6.5013,6.5859,6.5089,6.4628,6.4589,6.3012,6.2127,6.2089,6.1243,6.0781,6.0781,6.0781,6.0781,5.4638,0.0,0.0,0.0,0.0,0.0,0.0,0.0,5.3651,5.4495,5.3563,5.2818,5.3433,5.2164,5.101,5.101,5.0856,5.0702,5.0702,5.0702,5.0702,5.0702,5.0462,5.0206,5.0111,4.9846,4.9617,0.0,4.9504,4.9504,4.9504,4.9008,4.8468,4.7831,4.8125,4.8347,4.8375,4.7758,4.7168,4.6665,4.6394,4.625,4.6214,4.5406,4.5369,4.5847,4.5039,4.4232,4.3497,4.3497,4.3975,4.4782,4.559,4.647,4.7353,4.8163,4.8532,4.8787,4.9915,5.1124,5.2371,5.3427,5.4647,5.5703,5.5703,5.5703,5.5703,5.5703,5.6126,5.6819,5.7703,5.7473,5.7357,5.8819,5.9165,5.9473,6.055,6.0781,6.0781,6.0781,6.0781,6.0781,6.0781,6.0781,6.0781,6.0781,6.0781,6.0781,6.0781,6.0781,6.0781,6.0781,6.0781,6.105,6.1666,6.2474,6.332,6.4205,6.5051,6.5628,6.5897,6.5667,6.5243,6.4628,6.4128,6.332,6.2089,6.1243,6.0781,6.0781,6.0781,6.0781,0.0,0.0,0.0,0.0,0.0,0.0,5.2824,5.2411,5.228,0.0,5.2546,5.1664,5.251,5.1587,5.0702,5.0702,5.0702,5.0702,5.0702,5.0971,5.1124,5.096,5.0726,5.0469,5.0147,4.9574,4.9171,4.8978,4.9015,4.8716,4.8039,4.8407,4.8236,4.7315,4.7939,4.8421,4.8676,4.7647,4.6985,4.6749,4.6506,4.6214,4.5883,4.5773,4.5773,4.5883,4.5406,4.4929,4.4488,4.4488,4.4782,4.5296,4.6104,4.7131,4.8196,4.8673,4.904,4.9483,5.0526,5.1588,5.2734,5.4116,5.521,5.606,5.6621,5.6652,5.6496,5.6496,5.6703,5.7096,5.7592,5.7468,5.7594,5.8897,5.9379,5.9742,6.0589,6.0781,6.0781,6.0781,6.0781,6.0781,6.0781,6.0781,6.0781,6.0781,6.0781,6.0781,6.0781,6.0781,6.0781,6.0781,6.0781,6.1127,6.2012,6.2858,6.3666,6.4551,6.5436,6.5897,6.5897,6.5897,6.5667,6.5166,6.4782,6.3782,6.2089,6.1589,6.1166,6.0781,6.0781,6.0781,0.0,0.0,0.0,0.0,0.0,0.0,5.2638,5.1667,5.1056,0.0,5.1869,5.0929,5.1638,5.1121,5.0584,5.0584,5.0661,5.0661,5.0624,5.1355,5.1689,5.1282,5.1268,5.096,5.0213,4.9405,4.8785,4.8344,4.8306,4.7682,4.625,4.7535,4.7645,4.6214,4.7572,4.8344,4.8382,4.7425,4.7021,4.7169,4.6911,4.6544,4.6067,4.6691,4.6654,4.603,4.603,4.5993,4.592,4.6104,4.6104,4.6104,4.6838,4.8086,4.9444,4.9554,5.0031,5.0802,5.1683,5.2494,5.3402,5.5093,5.5913,5.6453,5.7785,5.7851,5.7539,5.7654,5.727,5.6974,5.7163,5.7484,5.7957,5.8825,5.9332,5.9858,6.0627,6.0781,6.0781,6.0781,6.0781,6.0819,6.0935,6.0935,6.0973,6.105,6.1089,6.105,6.0973,6.0935,6.0896,6.0819,6.0781,6.1166,6.2127,6.2897,6.3705,6.4666,6.5474,6.5897,6.5897,6.5897,6.5897,6.5897,6.5051,6.3858,6.2358,6.2089,6.155,6.0781,6.0781,6.0781,0.0,0.0,0.0,0.0,0.0,0.0,5.1939,5.1775,5.1873,0.0,5.1744,5.0761,5.0978,5.0296,4.9728,4.9808,5.0323,5.0605,5.0236,5.0909,5.1282,5.0856,5.1099,5.0987,5.0182,4.9714,4.9156,4.8343,4.8306,4.8159,4.7865,4.8122,4.8159,4.7829,4.8159,4.8458,4.8779,4.702,4.6616,4.7553,4.5952,4.5773,4.6874,4.6361,4.6397,4.6874,4.6874,4.6507,4.5993,4.7315,4.7462,4.6911,4.7058,4.7719,4.8636,4.9334,4.9701,5.0031,5.1499,5.2305,5.297,5.4614,5.5457,5.6009,5.6904,5.7105,5.7154,5.7829,5.7461,5.731,5.9019,5.9016,5.8891,6.0137,6.0465,6.0589,6.0742,6.0781,6.0781,6.0781,6.0781,6.1012,6.1704,6.1858,6.205,6.2704,6.282,6.2589,6.1935,6.1858,6.1589,6.0858,6.0781,6.1435,6.2935,6.3205,6.3974,6.5551,6.582,6.5897,6.5897,6.5897,6.5897,6.5897,6.5051,6.4436,6.4128,6.205,6.0973,6.0781,6.0781,6.0781,0.0,0.0,0.0,5.1005,0.0,0.0,0.0,5.038,5.0492,5.0862,5.0327,4.9821,4.9988,4.9679,4.9558,5.0032,5.0107,5.0078,5.0078,5.1348,5.2113,5.164,5.1777,5.1713,5.1119,5.0151,4.9224,4.8379,4.8306,4.8122,4.7719,4.8086,4.8122,4.7719,4.8086,4.8383,4.8604,4.7206,4.658,4.6792,4.5771,4.5516,4.592,4.592,4.6361,4.7131,4.7131,4.7095,4.7168,4.7976,4.8086,4.7755,4.8196,4.8857,4.9664,5.0472,5.1022,5.1499,5.2307,5.3011,5.3849,5.5463,5.6131,5.6559,5.8034,5.8182,5.7866,5.8278,5.764,5.7188,5.8653,5.8786,5.876,5.9845,6.0456,6.0781,6.0781,6.0781,6.0781,6.0781,6.1127,6.1589,6.2012,6.2435,6.2858,6.3243,6.332,6.3166,6.2743,6.2358,6.1935,6.1512,6.105,6.1473,6.3166,6.332,6.4051,6.5782,6.5897,6.5897,6.5897,6.5897,6.5897,6.5897,6.5051,6.4589,6.4589,6.2897,6.1858,6.1435,6.1435,6.1435,0.0,0.0,0.0,0.0,0.0,4.9168,0.0,0.0,0.0,4.9145,4.9033,4.8847,4.8684,0.0,0.0,4.9519,0.0,0.0,0.0,5.1479,0.0,5.201,5.2122,5.2121,5.1838,5.0475,4.9336,4.86,4.8416,4.8012,4.7388,4.7792,4.7792,4.7094,4.7755,4.8012,4.7829,4.7205,4.6544,4.5883,4.5736,4.5406,4.4966,4.5773,4.6507,4.7131,4.7278,4.7719,4.8306,4.8306,4.8306,4.8379,4.926,4.9994,5.0692,5.1646,5.2463,5.3134,5.3281,5.387,5.4748,5.6252,5.6823,5.7239,5.9039,5.9058,5.8449,5.8553,5.7802,5.7189,5.7913,5.8229,5.8528,5.9341,6.0132,6.0671,6.0781,6.0781,6.0858,6.1012,6.1743,6.232,6.232,6.3012,6.3628,6.3782,6.382,6.3743,6.3589,6.282,6.2281,6.2127,6.132,6.1473,6.3166,6.332,6.4051,6.5782,6.5897,6.5897,6.5897,6.5897,6.5897,6.5897,6.5205,6.4859,6.4859,6.3974,6.3051,6.2089,6.2243,6.2243,0.0,0.0,0.0,0.0,4.9522,0.0,0.0,0.0,4.9431,4.9749,0.0,4.8452,0.0,0.0,0.0,0.0,0.0,0.0,4.9008,5.0049,5.0545,5.0079,5.063,5.1032,5.1032,5.0186,4.9634,4.9483,4.8823,4.8382,4.8159,4.7572,4.7205,4.7131,4.7205,4.6911,4.6177,4.6067,4.5993,4.5883,4.5186,4.5149,4.5773,4.6617,4.7021,4.7168,4.7865,4.8233,4.8306,4.8306,4.8306,4.8379,4.926,4.9627,4.9921,5.1426,5.2299,5.2754,5.3498,5.4048,5.4635,5.5541,5.6338,5.699,5.7529,5.7635,5.7621,5.7965,5.7969,5.7986,5.8508,5.8639,5.8877,5.9785,6.0103,6.0311,6.0734,6.0781,6.1012,6.1781,6.2589,6.3166,6.3166,6.3897,6.4705,6.5474,6.559,6.532,6.4551,6.3705,6.2897,6.2166,6.132,6.1473,6.3166,6.332,6.4051,6.5782,6.5897,6.5897,6.5897,6.5897,6.5897,6.5897,6.5782,6.5743,6.5743,6.4897,6.3628,6.2127,6.282,6.2781,0.0,0.0,0.0,0.0,0.0,0.0,4.9997,0.0,4.9554,0.0,0.0,0.0,0.0,0.0,0.0,0.0,4.7102,0.0,0.0,0.0,4.9331,0.0,0.0,0.0,5.022,4.9853,4.941,4.8893,4.8565,4.8344,4.8306,4.7572,4.7131,4.7131,4.6654,4.625,4.5883,4.5883,4.5663,4.5223,4.4856,4.4892,4.5223,4.603,4.6654,4.7168,4.7976,4.8306,4.8306,4.8306,4.8306,4.8453,4.9774,5.0448,5.0824,5.2454,5.3311,5.377,5.4108,5.4484,5.5,5.5806,5.6641,5.7321,5.7379,5.7407,5.7472,5.7921,5.8231,5.8375,5.8326,5.8713,5.9139,5.9248,5.9492,5.9823,6.0311,6.0391,6.075,6.1873,6.2743,6.3474,6.3974,6.4782,6.5474,6.582,6.5897,6.5782,6.5397,6.4166,6.3166,6.282,6.1589,6.1473,6.3166,6.332,6.4051,6.5782,6.5897,6.5897,6.5897,6.5897,6.5897,6.5897,6.5397,6.5397,6.5897,6.5013,6.4243,6.3551,6.3897,6.3858,4.9328,0.0,0.0,0.0,0.0,0.0,0.0,0.0,0.0,0.0,0.0,0.0,0.0,0.0,0.0,0.0,0.0,4.7068,0.0,4.745,0.0,0.0,0.0,0.0,0.0,4.9515,4.9297,4.871,4.8271,4.8124,4.8306,4.7131,4.6544,4.6764,4.5993,4.5553,4.5553,4.5773,4.5626,4.5039,4.4819,4.4819,4.5039,4.5626,4.6361,4.7168,4.7976,4.8306,4.8306,4.8306,4.8306,4.8489,5.0141,5.112,5.1731,5.3236,5.4187,5.4671,5.4671,5.4905,5.5377,5.5963,5.6575,5.7101,5.7225,5.7266,5.7374,5.803,5.8461,5.8673,5.8461,5.8874,5.9354,5.9102,5.9319,5.9728,6.0189,6.0311,6.0659,6.1848,6.2743,6.3589,6.4436,6.532,6.5897,6.5897,6.5897,6.5897,6.5897,6.4397,6.3397,6.3628,6.2166,6.182,6.3512,6.3666,6.432,6.5782,6.5897,6.5897,6.5897,6.5897,6.5897,6.5897,6.5282,6.5282,6.5897,6.5243,6.4974,6.4974,6.4974,6.482,0.0,0.0,0.0,4.9304,0.0,0.0,0.0,0.0,4.7563,0.0,0.0,0.0,0.0,0.0,0.0,0.0,0.0,0.0,0.0,0.0,0.0,0.0,0.0,0.0,0.0,4.9398,4.9517,4.9554,4.8199,4.7611,4.8269,4.6067,4.5149,4.592,4.5149,4.4745,4.4745,4.5516,4.5883,4.5847,4.5076,4.5112,4.5847,4.5883,4.6361,4.7168,4.7976,4.8306,4.8306,4.8306,4.8306,4.8489,5.0141,5.1304,5.2114,5.3342,5.435,5.508,5.508,5.535,5.5703,5.5682,5.572,5.5915,5.6677,5.6911,5.7181,5.8348,5.8713,5.8796,5.9248,5.9389,5.9492,5.9946,6.0074,6.0189,6.0671,6.0781,6.105,6.1935,6.2743,6.3589,6.4436,6.532,6.5897,6.5897,6.5897,6.5897,6.5897,6.4397,6.3628,6.4474,6.3051,6.2743,6.4436,6.4551,6.4936,6.582,6.5897,6.5897,6.5897,6.5897,6.5897,6.5897,6.5859,6.5859,6.5897,6.5859,6.5859,6.5859,6.5859,6.5397,0.0,0.0,4.6307,4.7782,0.0,0.0,0.0,0.0,0.0,0.0,0.0,0.0,0.0,0.0,0.0,0.0,0.0,0.0,0.0,0.0,0.0,0.0,0.0,0.0,0.0,0.0,4.8121,4.8787,4.7831,4.7279,4.7498,4.625,4.5369,4.5112,4.4342,4.4158,4.4709,4.4966,4.5112,4.5112,4.5369,4.5369,4.5149,4.6214,4.6838,4.7168,4.7976,4.8306,4.8306,4.8306,4.8306,4.8491,5.0417,5.151,5.2175,5.3682,5.479,5.5508,5.5508,5.5577,5.5682,5.5399,5.5287,5.5351,5.5567,5.6033,5.6631,5.7635,5.854,5.9176,5.9354,5.9625,5.9823,5.9658,5.9625,5.9792,6.0255,6.0103,6.0213,6.142,6.2289,6.3093,6.3973,6.5114,6.5897,6.5897,6.5597,6.5513,6.5833,6.4573,6.3866,6.4526,6.3589,6.3358,6.4512,6.5128,6.559,6.5859,6.5897,6.5897,6.5897,6.5897,6.5628,6.5051,6.5051,6.5051,6.5051,6.5051,6.532,6.5897,6.5897,6.5743,4.4383,4.4513,0.0,4.6038,4.6464,0.0,4.7855,0.0,0.0,0.0,0.0,0.0,0.0,0.0,0.0,0.0,0.0,0.0,0.0,4.64,0.0,0.0,0.0,0.0,0.0,4.7594,4.7606,4.7978,4.75,4.7169,0.0,4.6361,4.5663,4.5149,4.4342,4.4305,4.5112,4.5149,4.5406,4.5993,4.6214,4.6214,4.603,4.6764,4.7278,4.7572,4.8086,4.8489,4.8746,4.8416,4.8673,4.9336,5.0786,5.1794,5.2621,5.4141,5.5134,5.5703,5.5703,5.5599,5.5446,5.5186,5.4988,5.4912,5.4985,5.5545,5.6441,5.7454,5.8574,5.9458,5.9823,6.0132,6.0283,5.9946,5.9885,5.9977,6.0283,5.9977,5.9912,6.076,6.1849,6.2803,6.3337,6.4803,6.5897,6.5897,6.5446,6.5291,6.5808,6.4652,6.4106,6.4987,6.4282,6.4128,6.4974,6.559,6.5897,6.5897,6.5897,6.5897,6.5897,6.5897,6.5782,6.5474,6.5205,6.5205,6.5474,6.5205,6.5359,6.5897,6.5897,6.6051]}]]